GFSGBSN_sfc_temp_000.txt.gz
Temp
60 60 60 60 60 60 61 60 59 59 58 58 58 59 59 60 60 59 58 57 57 57 57 57 58 58 66 79 78 91 72 80 89 89 88 86 83 80 75 77 80 75 76 78 77 77 77
60 60 60 60 60 60 60 60 59 58 58 58 57 58 58 59 59 58 57 57 56 55 57 57 58 57 77 72 90 91 90 91 92 91 88 88 83 84 78 75 76 75 77 75 75 75 75
60 60 60 59 59 59 60 59 58 58 58 58 58 57 57 58 58 58 57 56 55 56 56 56 56 68 82 77 90 92 89 89 89 89 85 85 85 82 81 75 76 75 72 75 74 74 73
60 60 60 59 58 58 59 58 57 57 58 58 58 58 57 57 57 57 57 56 56 56 55 55 56 71 76 88 93 90 91 88 89 89 87 86 87 81 78 77 75 73 73 68 72 74 74
60 60 59 59 58 58 58 57 57 57 58 58 58 58 57 57 56 56 56 56 56 55 54 55 71 81 74 83 84 87 87 84 86 86 85 84 83 77 77 74 71 71 66 64 67 72 72
60 60 59 59 58 58 58 57 56 56 57 58 58 58 58 57 57 56 55 56 56 57 63 70 79 78 81 76 82 83 87 84 82 82 82 81 81 76 77 74 63 62 63 66 64 70 71
59 59 59 59 58 58 58 57 56 56 56 57 58 59 59 58 57 55 60 73 76 76 81 73 74 75 77 83 85 83 82 82 82 80 72 74 73 65 65 67 66 65 63 62 66 68 65
58 59 59 59 58 58 58 57 56 56 56 57 57 58 58 57 56 55 70 78 73 78 71 76 76 78 79 80 76 80 86 77 75 70 72 71 63 66 67 66 64 63 61 62 65 65 65
58 58 58 58 57 57 57 57 56 55 55 56 57 57 57 56 55 65 77 73 77 77 72 73 75 76 76 80 70 73 79 75 72 68 69 66 64 66 65 65 63 62 60 59 59 64 66
57 57 57 57 57 56 56 56 56 56 55 55 56 56 57 55 66 77 74 75 76 74 65 64 70 75 77 77 69 77 76 73 69 65 67 65 66 63 64 61 62 58 62 60 59 59 59
57 57 57 56 56 55 55 56 56 55 55 55 55 57 56 59 76 79 73 76 75 75 47 65 70 81 77 71 70 72 76 76 65 63 66 59 62 62 61 59 62 58 61 59 59 60 59
57 57 57 56 56 55 55 55 55 55 55 55 55 57 58 71 76 73 75 74 75 58 44 61 69 67 68 69 68 72 71 75 70 67 68 63 67 66 63 64 63 63 59 59 60 60 51
56 56 56 56 55 55 56 55 55 55 55 55 56 58 69 75 74 73 73 75 60 50 61 59 62 66 64 61 63 65 63 60 60 56 55 61 61 66 65 62 65 65 59 51 46 47 47
56 56 56 56 55 55 55 55 55 54 54 55 56 59 61 72 75 72 75 67 50 55 58 64 64 64 59 61 61 62 61 59 63 61 59 55 51 60 64 59 57 58 57 48 37 42 47
56 56 55 55 55 55 55 55 55 54 54 54 57 72 73 70 71 73 73 54 54 59 64 62 64 59 57 60 61 60 58 57 59 61 54 53 52 62 61 63 61 57 52 56 45 37 42
56 56 55 54 54 55 55 55 54 54 54 55 75 75 72 69 71 74 65 52 59 63 64 65 57 59 55 57 57 58 56 58 57 60 62 55 50 57 60 63 63 60 60 50 52 35 36
55 55 55 54 54 54 55 54 53 54 54 55 73 71 69 70 71 73 58 57 60 63 64 62 59 57 57 55 58 55 54 58 60 60 63 59 54 53 57 56 55 57 55 53 53 49 40
55 54 54 54 54 54 53 52 54 53 54 64 68 64 69 70 66 64 61 63 56 63 65 63 63 60 58 57 55 55 53 57 60 61 55 57 53 49 52 57 59 59 54 54 45 39 45
55 54 54 54 54 53 51 52 53 53 54 72 70 68 71 69 55 53 60 59 61 62 60 61 59 61 61 56 51 55 56 58 60 60 57 58 51 46 48 53 57 54 55 54 50 47 41
54 54 54 54 53 51 50 51 51 53 53 70 69 57 66 69 65 63 60 58 57 62 60 62 59 62 59 56 58 53 54 57 58 59 48 56 53 48 45 49 53 49 52 54 51 41 44
54 54 54 51 51 50 50 51 53 53 53 70 67 60 60 55 58 63 63 61 58 56 61 63 59 60 58 51 53 52 56 57 57 53 57 57 47 50 52 54 53 51 50 52 50 49 42
54 54 52 51 52 50 51 51 53 52 53 68 65 62 62 59 60 62 54 60 59 57 61 58 58 59 61 55 56 52 56 56 55 57 56 55 46 45 43 49 51 47 51 52 52 52 51
53 53 52 51 52 50 50 51 52 52 57 69 62 63 68 48 56 58 57 60 60 61 58 63 63 60 53 59 63 61 61 59 58 55 51 50 46 41 37 44 43 37 46 51 52 53 52
53 52 51 53 53 52 51 52 52 52 56 68 65 67 59 50 55 59 59 61 60 60 58 59 63 55 59 63 62 61 58 56 56 53 55 40 43 39 35 37 32 48 57 56 52 54 57
52 52 53 53 53 53 52 52 52 52 52 66 63 66 59 37 56 55 59 59 59 60 58 59 58 58 64 61 52 40 45 39 42 48 49 51 44 34 32 36 44 49 52 51 48 49 55
52 52 52 52 52 52 52 52 51 51 52 64 61 61 63 43 51 61 59 61 56 55 55 53 57 60 60 51 45 36 41 43 45 45 46 46 44 41 36 30 30 48 53 56 55 43 53
51 51 52 52 52 52 52 52 51 51 52 65 61 59 66 54 59 60 59 58 60 58 56 55 55 52 57 42 38 39 43 46 43 36 36 36 35 34 35 32 41 54 54 55 36 41 50
50 51 51 51 52 51 51 51 51 51 51 62 59 58 64 54 59 59 60 58 58 61 53 54 54 51 46 38 36 39 36 45 44 48 44 43 38 34 35 31 30 54 53 41 50 48 45
50 50 50 50 50 51 51 51 51 51 51 55 64 59 59 62 59 59 60 62 63 68 61 55 56 55 55 45 39 38 36 34 40 39 51 42 48 45 43 45 57 58 54 55 50 47 50

GFSGBSN_sfc_temp_003.txt.gz
Temp
61 61 61 61 60 61 61 61 60 59 59 59 58 59 60 61 61 60 59 58 57 57 57 58 58 59 69 79 83 96 78 82 92 95 93 90 86 85 79 82 83 79 80 82 83 82 82
60 60 60 60 60 60 60 60 59 59 58 58 58 58 58 59 60 59 58 57 56 57 57 57 58 57 76 75 94 97 96 97 97 96 92 92 88 89 83 83 81 82 82 81 82 81 80
60 60 60 60 60 59 59 59 58 58 58 58 58 58 58 59 59 58 58 57 57 56 57 57 57 71 80 81 96 98 96 95 96 95 90 92 92 87 86 78 84 82 76 79 79 81 79
60 60 60 60 59 58 58 58 58 58 58 59 59 58 57 58 58 57 57 57 56 56 56 56 56 77 79 93 99 94 97 94 96 96 93 94 94 88 85 85 81 77 78 71 78 80 80
60 60 60 59 59 58 58 58 57 57 58 59 59 59 58 57 57 57 57 57 56 56 56 56 69 77 77 83 88 92 93 89 91 92 92 91 91 84 82 77 73 75 69 69 71 79 77
60 60 60 59 59 58 58 57 57 57 57 58 60 59 58 58 57 57 56 56 57 57 62 76 86 81 83 80 86 88 93 90 88 87 85 85 85 79 80 77 64 68 68 71 70 75 77
59 60 59 59 58 58 58 57 56 56 57 58 59 60 59 58 57 56 60 76 79 76 84 79 80 79 82 88 90 87 89 88 88 84 76 81 76 71 71 72 72 71 69 69 73 74 72
59 59 59 59 58 57 57 57 56 56 56 57 58 59 59 58 57 56 70 81 79 85 73 83 83 82 84 87 79 84 92 81 79 75 77 75 68 72 73 73 70 70 68 68 71 72 72
58 58 58 58 57 57 57 57 56 56 56 56 57 58 59 57 56 64 83 80 88 86 75 76 80 80 80 85 76 77 85 82 77 73 74 70 69 72 70 70 68 68 66 65 65 71 74
58 58 58 57 56 56 56 57 56 56 56 56 57 57 57 55 64 84 81 84 86 82 69 68 74 78 81 81 73 83 83 79 76 71 73 69 72 69 68 66 68 63 68 66 65 64 61
58 58 57 57 56 56 56 56 56 56 56 56 57 57 56 56 82 82 81 86 85 80 50 69 73 85 82 75 75 76 84 80 72 70 70 64 66 66 65 64 68 64 67 65 66 65 65
58 58 57 57 56 56 56 56 55 56 56 56 57 58 56 72 83 81 84 83 81 62 47 64 74 72 72 74 74 77 77 81 78 72 73 68 74 70 68 69 68 70 66 66 66 65 54
59 57 57 57 57 56 56 56 55 55 56 57 57 59 64 85 79 82 81 79 62 52 68 63 66 71 70 68 68 72 69 67 67 60 61 67 66 70 70 67 70 70 65 54 49 50 50
57 57 57 57 56 56 56 56 55 54 56 57 58 59 68 81 86 79 79 70 52 62 65 72 70 70 64 68 66 67 67 64 68 68 66 60 54 65 69 65 61 63 63 50 41 46 52
57 57 56 56 56 56 55 55 54 54 55 57 57 80 80 77 79 79 75 57 59 65 70 67 69 64 62 65 66 66 64 63 64 66 60 58 57 67 66 69 67 62 57 62 50 46 45
57 56 56 56 55 55 55 54 54 54 55 58 81 80 79 77 78 77 68 57 64 70 72 72 62 65 60 63 63 64 62 64 62 66 69 61 54 63 65 68 68 64 66 53 55 38 39
56 56 56 55 55 55 53 53 54 54 55 58 79 73 74 79 77 75 61 63 66 70 72 68 64 62 64 61 64 61 60 63 66 65 68 65 59 58 63 61 60 62 60 57 58 52 42
55 55 55 55 55 54 52 52 54 53 54 59 75 68 76 78 69 71 65 68 61 69 71 68 69 67 64 63 61 60 59 62 66 66 60 62 59 52 57 63 65 64 59 58 47 45 49
55 55 55 55 54 52 52 52 53 53 53 81 75 72 77 75 59 60 66 65 69 67 68 67 64 67 68 63 56 61 61 63 65 65 61 63 56 49 54 58 62 59 60 59 54 50 44
55 55 55 54 53 51 52 52 53 53 54 73 76 61 71 74 74 69 65 64 62 68 66 68 66 68 65 61 65 59 59 61 63 64 51 57 58 52 47 53 59 53 57 59 56 45 46
54 55 54 52 51 51 52 52 53 53 53 73 77 67 69 60 65 69 69 67 63 61 67 70 65 65 63 56 60 58 62 60 62 53 61 61 50 55 57 59 58 57 56 57 55 55 46
54 54 52 52 52 51 51 52 53 53 53 77 72 68 71 68 69 68 59 65 65 64 66 63 63 66 66 58 61 57 61 61 59 61 60 60 49 49 47 56 56 52 57 58 57 56 56
54 53 52 52 52 51 52 53 53 52 55 78 74 73 73 55 66 63 63 66 66 66 64 70 68 65 59 64 66 67 66 65 63 60 55 54 50 46 40 50 47 38 50 56 57 59 56
53 52 52 54 54 53 54 53 52 52 54 78 74 76 63 55 62 65 66 67 66 66 63 68 69 61 64 71 69 66 64 62 61 59 61 49 48 42 37 38 33 53 62 61 57 58 61
53 52 54 54 54 54 53 52 52 52 53 75 73 74 64 42 65 64 66 66 65 66 65 64 63 68 71 66 55 45 46 39 46 56 56 58 48 38 35 40 47 53 55 54 51 51 61
52 53 53 53 53 53 53 52 52 52 52 72 69 69 71 48 55 69 65 66 60 59 59 58 63 68 67 57 48 38 43 48 48 49 54 52 50 45 38 32 32 49 59 60 59 44 56
52 52 52 53 53 52 53 52 52 52 52 67 69 65 74 58 67 70 63 63 69 65 60 60 59 57 65 46 40 40 46 53 46 39 36 38 38 37 37 34 43 57 58 60 40 43 55
51 51 51 52 52 52 52 52 51 52 52 62 68 66 69 62 64 66 68 65 65 67 55 61 58 57 53 39 40 44 39 49 48 54 47 43 38 34 38 33 32 59 57 43 53 58 54
50 50 51 51 51 51 52 52 52 52 52 54 72 68 69 69 64 66 66 68 69 72 68 62 62 60 60 52 45 44 39 38 43 42 59 46 51 47 47 48 60 59 51 59 59 54 51

GFSGBSN_sfc_temp_006.txt.gz
Temp
61 61 61 61 60 61 61 61 60 60 60 59 60 59 59 60 61 61 60 60 59 58 58 58 58 58 65 73 81 95 80 78 84 88 89 89 85 84 79 81 82 78 79 81 82 81 81
60 60 60 60 60 61 61 60 60 59 59 59 58 58 58 60 60 60 60 59 58 57 57 57 58 57 69 70 95 98 97 97 97 94 93 92 88 89 84 82 80 82 81 80 81 80 80
60 60 60 60 60 60 59 59 58 58 59 59 58 58 58 59 59 59 59 58 56 56 57 58 58 67 76 79 96 98 97 95 96 94 90 92 93 87 86 79 85 82 75 78 79 79 78
60 60 60 60 60 59 58 58 58 58 59 59 59 58 58 58 58 58 58 57 56 57 57 57 56 70 75 94 96 95 96 94 97 97 93 94 94 88 84 85 81 76 76 68 77 79 79
60 60 60 60 59 58 58 58 58 58 58 59 59 59 58 57 57 57 57 57 57 57 57 57 64 73 76 84 88 93 94 89 92 93 92 93 90 84 82 74 70 72 65 68 70 80 78
60 60 60 60 59 59 58 58 57 57 58 59 60 59 58 57 57 57 57 57 58 57 60 72 79 74 84 81 87 90 94 91 88 87 85 84 82 76 76 73 58 63 67 70 69 74 75
60 60 60 59 59 59 58 58 57 57 57 59 60 61 59 58 57 57 57 68 73 73 80 79 80 79 83 88 91 88 91 88 87 83 73 80 73 66 69 72 73 72 70 69 72 75 71
59 59 59 59 59 58 58 58 57 57 57 58 59 61 60 58 58 57 62 77 80 85 72 83 83 83 86 89 80 85 92 80 78 72 78 74 66 72 75 74 72 71 67 67 72 74 71
59 59 59 59 58 57 57 58 57 57 57 58 58 59 60 58 56 60 77 82 90 86 74 76 82 80 81 86 78 78 84 82 76 73 74 66 69 74 72 71 67 69 65 63 63 70 73
59 59 58 58 57 57 57 57 57 57 57 57 58 58 58 56 61 83 81 87 88 84 66 68 74 78 82 83 73 85 86 80 77 72 73 69 73 70 70 67 67 62 68 66 65 63 58
59 59 58 58 57 56 56 56 56 57 57 58 58 59 56 55 69 81 82 87 86 80 47 71 74 87 83 76 78 77 86 81 72 71 71 65 68 68 66 65 68 64 68 66 65 62 62
59 59 58 58 57 57 57 56 56 56 57 58 58 60 56 67 74 83 86 85 80 59 46 65 75 73 73 75 75 79 78 82 80 73 73 69 75 70 68 70 70 71 67 67 66 62 50
58 59 58 58 57 57 56 56 55 55 57 58 59 59 64 81 76 84 82 78 59 52 70 64 67 72 71 68 71 73 70 69 66 60 60 67 67 71 72 66 71 69 63 50 45 47 45
58 58 58 57 57 56 56 55 55 55 57 59 60 58 69 82 85 81 78 67 51 64 65 74 71 71 65 69 68 69 69 64 69 67 64 59 52 65 71 65 62 64 61 47 39 40 47
57 58 57 57 56 56 55 55 54 55 56 59 58 76 79 77 80 79 72 55 59 65 71 68 69 64 63 67 67 67 64 62 64 66 59 58 56 68 68 69 68 61 55 63 51 44 42
57 57 56 56 56 55 54 54 54 55 56 61 76 76 78 79 80 75 65 56 66 73 74 72 62 66 60 64 64 65 63 66 64 67 71 62 54 64 67 69 69 64 67 52 51 38 37
56 56 56 56 55 55 52 53 53 54 56 59 73 70 74 81 78 71 59 63 68 74 74 69 67 64 66 63 66 63 62 64 68 66 69 65 60 58 64 60 59 61 58 58 57 50 39
56 56 56 56 55 53 53 53 53 54 54 63 74 64 76 78 66 68 64 69 62 69 73 71 71 69 65 65 63 62 60 62 68 68 60 62 59 49 58 64 67 64 60 59 44 44 46
55 55 56 56 55 51 53 53 53 53 54 74 70 69 76 76 58 60 68 68 71 69 70 69 66 69 70 64 57 63 60 65 66 64 58 61 56 47 52 58 63 59 61 60 55 47 42
55 55 56 53 53 51 53 53 54 53 54 69 73 60 69 71 72 67 64 64 63 71 68 71 68 69 66 62 66 60 58 62 65 62 53 57 59 52 45 52 59 54 58 60 57 42 43
54 55 54 52 50 51 51 53 53 53 54 69 74 66 71 59 64 69 69 68 64 61 70 71 66 67 64 56 60 59 62 60 63 55 61 61 51 55 56 58 58 56 56 57 55 55 44
54 54 53 53 50 50 52 53 53 53 51 71 68 68 71 69 69 68 60 65 65 67 66 65 64 67 67 59 61 58 62 62 60 62 61 61 48 48 47 57 56 51 55 56 57 57 56
54 53 53 53 52 52 54 53 53 53 56 76 75 75 73 58 67 64 63 66 67 67 66 72 70 66 57 63 65 66 66 65 64 60 57 54 49 44 40 47 45 38 48 56 57 59 56
54 53 53 54 55 55 54 53 52 52 53 72 74 76 62 56 64 65 67 70 68 66 64 70 71 60 65 71 67 65 63 62 63 60 62 48 46 41 37 37 33 53 62 61 56 59 60
53 52 54 54 54 54 53 53 52 53 53 73 74 72 63 41 64 67 67 68 68 67 66 63 66 69 71 67 53 45 44 40 48 58 58 59 47 36 35 38 45 51 56 53 50 49 60
53 53 54 53 53 53 53 52 52 52 53 71 67 67 70 49 59 71 67 67 61 60 59 59 67 71 69 55 45 36 41 49 46 49 56 54 50 43 35 32 31 49 59 61 59 41 57
52 53 53 53 53 53 53 52 52 52 53 63 67 67 68 60 69 69 65 62 68 63 58 59 59 57 66 44 37 42 45 55 44 39 36 37 39 36 36 34 40 56 60 60 40 42 54
52 52 52 53 53 54 53 52 52 52 52 60 67 68 66 60 65 69 71 69 68 66 53 61 57 57 51 38 40 44 39 46 47 53 42 38 36 34 38 33 32 60 58 44 52 55 55
51 51 51 52 52 53 53 52 52 52 52 54 70 70 69 66 63 68 67 69 68 69 67 63 62 59 57 49 46 46 38 38 41 42 60 45 49 45 45 43 57 61 56 58 54 54 51

GFSGBSN_sfc_temp_009.txt.gz
Temp
62 61 61 61 60 60 62 62 61 60 60 59 59 59 60 60 61 61 60 59 59 59 58 57 58 58 57 61 69 87 72 72 74 77 77 77 73 71 66 68 70 68 69 72 73 73 71
61 61 60 60 60 61 61 61 60 59 59 58 59 59 58 59 59 60 59 59 58 57 57 57 58 58 57 62 86 90 88 78 82 78 80 79 78 81 75 71 68 71 71 70 70 70 71
61 60 60 60 60 61 60 59 59 59 58 58 59 58 58 58 59 59 59 58 57 56 56 57 58 60 65 69 84 83 88 83 84 83 80 81 81 75 73 69 75 73 65 68 68 69 68
60 60 60 60 59 60 59 59 59 58 58 58 59 58 57 57 58 58 58 57 57 56 57 57 57 59 63 86 80 86 85 84 88 88 84 83 82 76 71 72 72 64 62 55 66 69 69
60 60 60 60 59 59 59 59 58 58 57 58 58 58 57 57 57 57 57 56 56 57 57 57 54 59 65 81 80 83 83 82 83 85 81 89 78 70 71 61 55 57 51 57 62 70 67
60 60 60 59 59 59 59 58 58 57 57 57 58 59 58 57 56 56 56 56 58 56 57 64 68 62 73 75 80 82 82 83 78 77 76 72 68 61 60 56 48 53 57 53 56 59 63
60 60 60 59 59 59 58 58 58 57 57 58 59 59 58 57 57 56 54 53 58 59 61 65 69 70 77 79 82 79 82 79 77 72 61 68 58 52 57 61 64 63 59 56 57 66 61
60 59 59 59 59 58 58 58 57 57 57 58 59 59 59 58 57 56 54 60 67 69 61 74 77 76 81 80 73 77 81 70 68 61 66 61 54 63 68 67 64 63 58 55 60 66 60
59 59 59 59 59 58 58 58 57 57 57 57 58 59 59 57 56 54 57 67 76 72 60 70 76 75 76 79 70 71 76 72 67 63 61 56 61 70 67 62 60 59 55 55 55 61 59
58 58 59 58 58 57 57 57 57 57 57 57 58 58 57 55 56 63 63 75 75 69 51 63 69 73 78 76 67 77 77 71 67 61 62 61 67 66 64 61 60 54 61 60 59 53 45
58 58 58 58 57 57 57 57 56 56 57 58 58 59 55 58 59 65 71 75 72 66 32 66 69 81 77 70 70 70 76 72 63 64 63 57 60 60 59 60 63 57 61 58 57 51 48
58 59 58 57 57 57 57 56 56 56 56 58 58 59 55 58 56 68 72 70 66 46 35 61 70 68 67 69 69 72 70 73 70 65 63 61 66 62 60 65 64 65 59 58 55 51 37
57 57 58 57 57 57 56 55 55 55 56 58 58 58 57 70 63 70 67 63 45 36 65 59 62 67 64 63 65 66 64 59 55 50 50 60 60 62 66 58 62 59 51 35 33 32 32
57 57 58 57 57 56 56 55 54 55 56 57 58 58 63 70 69 68 64 54 39 59 59 68 65 65 60 63 62 63 60 53 59 57 53 48 44 58 64 58 53 54 51 32 31 29 34
57 57 57 56 56 56 55 54 54 55 55 57 58 62 64 65 69 66 57 41 47 58 66 63 64 58 57 62 60 60 55 54 56 58 50 48 49 61 63 63 59 55 45 54 40 35 30
57 56 56 56 56 55 53 53 54 54 55 57 60 61 62 67 68 62 51 46 57 67 68 66 56 60 53 58 57 56 55 59 58 61 60 55 46 59 62 62 62 56 59 41 38 30 30
56 56 56 56 55 54 53 54 54 54 56 57 59 56 63 68 65 56 44 51 63 70 68 62 59 58 59 57 59 56 55 59 61 61 60 54 50 50 58 53 51 52 49 50 48 37 29
55 55 55 56 54 51 53 54 54 54 55 59 57 50 64 64 52 51 49 61 60 64 67 65 63 63 59 59 56 55 52 56 61 59 54 54 48 36 49 58 60 56 52 50 31 35 32
55 55 55 55 53 50 53 53 53 53 55 59 56 55 64 62 42 40 58 63 65 64 63 62 61 62 63 56 50 54 53 58 59 56 50 52 46 33 42 50 56 52 55 53 46 36 34
54 54 55 53 50 51 52 53 53 53 54 60 57 47 54 55 57 55 59 57 58 65 63 65 63 62 59 55 58 51 52 57 57 56 51 53 51 42 33 43 49 45 51 52 45 30 33
54 54 54 52 49 50 52 54 53 53 54 63 60 52 55 44 51 55 58 59 57 56 62 64 59 60 57 48 52 49 53 54 56 53 55 52 41 46 48 51 52 50 49 50 47 46 35
54 54 53 53 49 51 54 53 52 52 51 59 57 55 57 54 58 55 53 57 57 60 60 58 57 60 58 51 51 49 54 52 51 55 52 52 36 37 37 48 48 43 47 47 49 50 48
54 53 53 53 51 54 53 53 52 52 54 58 60 60 57 49 53 49 52 58 59 59 59 63 59 53 47 53 55 55 55 55 55 52 48 45 37 32 31 40 37 30 41 48 49 50 48
53 53 53 54 54 54 53 52 52 52 53 59 58 58 49 42 49 54 61 61 59 60 56 59 58 51 56 60 56 53 52 53 55 53 54 40 36 31 26 28 22 45 54 53 49 50 51
52 52 54 54 54 53 52 52 52 52 53 60 58 58 47 36 51 57 59 59 58 57 54 56 59 60 60 56 39 38 35 36 43 52 50 49 35 26 27 26 36 45 50 47 43 42 50
52 53 53 53 53 52 52 52 53 52 53 60 56 57 54 42 46 63 57 57 48 47 48 52 59 60 57 39 33 30 29 38 37 44 47 46 39 31 28 20 19 39 52 55 52 31 49
52 53 53 53 52 52 52 52 52 52 52 57 56 58 57 46 55 57 52 52 55 50 45 50 50 49 52 35 34 31 32 45 34 32 28 28 28 25 30 19 31 46 54 55 32 34 46
52 52 52 53 54 53 52 52 52 52 52 56 57 59 57 48 53 59 59 56 56 51 41 49 45 44 36 34 31 32 30 34 36 42 35 31 27 29 31 24 23 52 51 39 43 47 47
51 51 51 52 52 52 51 51 52 52 52 53 56 61 61 55 53 58 58 59 59 58 53 51 48 49 45 38 34 36 32 35 32 30 47 35 38 33 35 33 46 52 50 51 49 47 45

GFSGBSN_sfc_temp_012.txt.gz
Temp
62 62 61 60 60 60 61 62 61 60 59 59 59 59 59 60 60 60 60 59 59 59 59 57 58 58 55 58 65 81 71 69 71 74 72 72 69 69 65 65 67 63 65 69 68 69 65
61 61 60 60 60 60 61 61 60 59 59 58 58 58 58 59 59 59 59 59 58 58 57 57 57 58 54 57 79 81 79 73 76 74 74 73 72 74 69 67 66 67 67 67 68 65 67
61 60 60 59 59 59 60 60 59 59 58 58 58 58 58 58 58 58 59 58 58 57 56 58 58 58 58 65 77 78 82 77 77 76 75 77 76 70 68 65 69 67 61 63 61 63 62
61 60 60 59 59 59 59 59 59 58 58 57 58 57 57 57 58 59 58 57 57 56 57 57 57 56 60 80 77 82 80 81 84 83 79 77 77 71 69 68 68 62 59 52 60 64 65
60 60 60 59 59 59 59 58 58 58 57 57 57 57 57 56 56 57 57 56 56 56 57 57 53 54 63 79 77 83 78 78 80 81 79 84 76 67 67 57 53 55 48 51 56 65 63
60 60 59 59 59 59 59 58 58 57 56 57 57 58 57 56 56 56 55 56 57 57 57 60 64 58 69 71 76 77 78 79 74 74 73 71 63 58 56 53 45 49 51 44 54 57 58
60 60 59 59 59 59 58 58 58 57 56 57 57 58 58 57 56 56 54 52 56 56 58 63 65 66 71 75 77 74 78 76 72 70 59 63 56 51 54 57 59 62 53 52 52 60 59
59 59 59 59 59 59 58 58 57 56 57 57 57 57 58 57 56 56 53 58 65 66 58 68 69 70 76 75 68 71 77 66 65 58 61 57 51 59 64 62 59 57 55 52 57 63 58
58 58 58 59 59 58 58 58 57 56 56 57 57 57 58 57 56 54 56 63 71 67 57 66 71 71 71 75 66 66 71 66 62 59 57 53 59 65 62 58 57 54 52 51 52 56 56
57 57 57 58 58 58 57 57 57 57 56 56 56 57 56 55 56 58 60 70 69 66 48 59 65 69 74 71 64 73 73 68 64 58 59 59 63 62 58 56 55 49 58 57 54 49 44
57 57 57 57 57 56 56 56 56 56 56 56 56 57 55 56 57 60 68 69 67 64 31 62 65 77 72 66 67 67 73 69 59 59 59 54 57 56 55 56 58 54 58 55 53 47 45
56 57 57 57 57 56 56 56 55 55 56 56 56 57 54 56 54 63 66 64 63 43 34 58 66 64 62 65 65 67 67 70 67 61 60 58 61 58 56 60 60 61 55 53 51 47 35
56 56 57 57 56 56 56 55 55 55 56 56 56 56 55 66 61 65 63 59 43 35 60 56 58 63 61 58 61 62 58 55 51 47 47 55 56 60 61 56 59 56 47 33 33 31 32
56 56 56 56 56 56 56 54 54 54 55 55 55 55 57 66 64 63 60 52 38 54 55 61 61 60 56 59 57 59 55 50 56 54 48 45 41 54 61 54 50 52 47 32 32 29 33
56 56 56 56 56 56 54 54 54 54 55 55 56 57 60 63 65 61 55 39 44 53 62 60 60 54 53 58 58 56 51 50 53 53 48 45 46 57 58 58 56 51 43 50 38 33 29
56 56 55 55 56 55 53 53 53 54 55 56 58 57 58 64 63 58 49 43 54 61 63 62 52 56 49 54 54 52 51 55 54 57 56 52 43 54 58 60 59 54 55 40 36 29 29
56 55 55 55 54 54 54 54 53 54 55 54 57 54 60 64 60 52 42 47 58 64 65 59 56 55 56 53 54 51 50 54 56 57 56 51 48 47 54 50 47 49 46 46 44 34 28
55 54 54 55 53 52 53 54 53 54 54 57 54 48 61 61 50 45 46 57 59 61 65 62 59 57 56 54 51 49 49 52 56 55 50 51 44 34 46 55 56 52 48 45 30 35 29
54 54 54 54 50 51 53 53 53 54 55 56 52 52 60 59 39 37 52 59 61 59 59 59 57 58 58 53 46 50 50 54 55 53 48 50 43 32 40 47 52 49 50 48 41 34 34
54 54 54 52 50 50 52 53 53 54 55 56 53 44 51 52 50 51 51 54 55 61 60 61 59 60 56 52 53 48 49 54 55 53 50 51 46 40 34 40 45 42 47 46 42 29 32
53 53 52 49 50 50 53 53 52 53 55 57 54 49 52 43 47 50 54 56 54 53 59 60 57 57 54 45 48 46 50 51 54 52 52 49 39 42 44 46 47 45 44 44 43 41 34
53 53 52 49 50 52 53 52 52 52 55 56 54 53 51 48 54 52 51 53 54 56 57 54 53 55 54 47 49 46 50 48 48 50 48 48 36 37 37 44 43 40 44 43 44 46 45
53 52 52 49 51 54 52 52 52 52 55 59 60 56 54 45 48 47 49 54 56 57 56 59 54 49 45 50 50 50 51 52 52 49 45 42 35 31 30 36 36 30 40 45 46 47 45
52 52 52 53 53 53 52 51 51 52 55 61 59 55 48 41 46 50 56 58 55 56 52 55 54 49 54 56 53 52 50 50 51 49 50 37 33 28 25 27 21 42 50 50 46 46 45
52 52 53 53 52 52 51 51 51 52 52 57 54 55 47 35 47 53 56 52 53 52 51 52 54 55 56 51 38 38 34 37 40 46 45 45 32 27 23 25 34 43 48 46 43 41 46
51 52 52 52 51 51 51 51 52 52 53 55 53 55 51 41 44 56 51 52 45 44 46 50 56 56 50 35 32 29 28 35 34 41 45 42 35 29 27 20 19 37 48 52 49 32 46
52 52 52 52 51 51 51 51 52 52 52 56 54 56 55 45 51 53 49 50 50 46 43 46 48 47 48 29 32 29 31 41 32 31 28 28 25 24 19 17 29 42 49 51 32 35 45
51 52 51 52 51 51 51 51 51 51 52 57 54 56 56 46 50 54 55 53 51 47 41 47 45 42 36 32 28 32 31 33 33 39 34 31 27 25 24 18 24 47 48 39 42 43 45
51 51 51 51 51 50 50 51 51 51 52 54 54 57 57 52 52 56 56 57 56 56 50 47 47 45 43 36 35 36 32 34 31 30 43 36 37 32 35 34 45 48 48 48 47 45 44

GFSGBSN_sfc_temp_015.txt.gz
Temp
62 62 61 61 60 60 60 61 61 60 59 59 59 59 59 59 60 60 59 59 58 59 59 59 58 58 53 55 63 77 68 68 70 72 69 68 66 65 62 63 60 60 61 63 66 68 65
61 61 60 60 60 60 60 61 61 59 59 59 58 58 58 58 59 59 59 58 58 58 58 57 57 58 52 56 76 77 72 71 72 70 69 69 69 71 67 64 63 65 61 62 64 66 65
61 61 60 59 59 59 59 60 60 59 58 58 58 58 58 58 59 58 59 58 58 58 57 57 58 57 57 64 73 72 76 73 72 73 71 72 72 67 67 60 66 65 58 60 59 59 60
61 60 60 59 58 58 58 59 59 59 58 58 57 57 57 57 58 58 58 58 57 57 56 57 58 55 59 76 73 76 76 77 78 75 76 78 75 71 67 66 63 58 55 50 59 61 59
61 60 60 59 58 58 58 58 58 58 58 57 57 57 56 56 56 57 57 57 56 56 57 57 51 52 62 77 75 79 75 74 76 76 75 81 73 63 63 56 51 51 46 49 54 60 58
61 60 59 59 58 58 58 58 57 57 57 56 56 57 57 56 56 55 55 56 57 56 56 59 60 56 66 68 74 76 75 76 72 71 70 68 61 57 54 51 44 47 48 42 50 53 56
61 60 59 59 59 59 59 58 57 57 57 56 56 57 57 56 56 55 54 52 53 53 53 61 62 63 68 74 75 73 74 74 71 67 56 60 55 49 50 53 57 55 50 48 49 56 54
59 59 59 59 59 59 59 58 57 56 56 56 57 57 57 57 56 55 52 56 63 64 56 64 65 66 70 72 65 69 73 65 63 56 58 56 50 56 60 58 57 55 51 48 53 58 54
58 58 58 59 59 59 59 58 57 56 56 56 56 57 57 56 55 52 54 61 67 65 55 64 67 67 70 72 63 63 68 63 60 56 55 51 55 62 59 55 54 51 48 48 51 53 53
58 57 57 58 58 58 58 57 57 57 56 56 56 57 55 55 54 56 58 66 65 63 47 56 62 68 70 68 62 69 69 65 61 54 56 55 59 58 56 54 52 47 54 54 53 48 41
57 57 57 57 57 57 56 56 56 56 56 56 56 56 54 56 55 58 66 65 64 62 31 58 62 74 69 64 62 65 71 66 58 57 57 51 53 54 53 52 55 51 55 52 50 45 43
57 56 56 56 56 56 56 56 56 55 55 56 56 55 54 55 51 61 63 61 62 42 33 54 62 60 60 61 61 63 64 67 63 58 57 54 57 56 53 57 56 57 53 50 47 44 34
56 56 56 56 56 56 56 56 55 55 55 56 56 55 56 62 60 62 60 58 42 34 56 52 54 59 56 55 58 58 55 53 50 46 45 52 53 56 58 52 55 53 45 33 32 30 31
56 56 56 56 56 56 56 56 54 54 55 56 55 54 55 60 61 61 59 51 36 50 52 58 58 56 53 56 54 55 52 48 53 51 45 42 40 52 58 52 48 47 45 32 33 28 32
56 56 56 55 55 56 56 55 54 54 55 54 54 54 57 60 62 59 54 38 42 49 58 56 56 51 50 55 55 52 47 48 50 51 46 43 43 54 55 56 53 48 41 47 35 31 29
56 56 55 55 55 55 54 52 54 54 54 54 56 55 56 61 60 57 47 43 50 58 60 58 50 52 47 51 50 49 48 52 51 53 53 50 42 51 56 56 55 52 53 39 34 28 29
56 55 55 55 54 54 54 54 54 54 54 55 55 53 58 60 59 51 41 45 54 61 61 57 53 51 52 50 50 47 47 51 52 54 54 49 46 45 51 47 45 47 43 42 40 33 27
55 54 54 54 54 54 54 54 54 54 54 56 52 47 58 58 49 42 44 53 56 58 62 59 57 55 52 51 48 47 47 49 53 52 48 48 42 34 43 52 53 49 45 43 30 34 28
54 54 54 54 51 53 53 53 53 53 56 54 50 50 58 57 38 35 49 56 57 56 57 56 54 55 54 49 45 47 48 52 53 51 47 48 41 32 39 45 49 45 47 43 39 33 32
54 54 54 52 50 51 52 53 53 53 54 56 50 43 49 50 47 49 48 51 52 58 57 58 55 56 53 49 49 45 46 51 52 51 50 50 43 38 33 38 43 40 44 43 40 29 31
53 53 52 50 50 50 52 53 53 53 54 56 51 47 50 42 45 48 52 52 51 51 56 57 54 54 51 43 45 43 47 48 51 51 49 47 39 40 41 42 43 42 43 42 40 39 34
53 51 50 49 50 51 53 52 52 53 54 54 51 48 47 45 51 49 47 51 52 53 54 52 52 51 51 47 49 45 48 46 45 49 45 45 34 36 35 41 40 38 42 41 41 42 41
52 51 49 49 50 53 52 52 51 53 57 53 53 52 52 43 45 45 46 52 53 55 53 55 52 48 44 47 49 48 48 49 50 47 42 40 34 32 29 34 35 30 38 42 43 44 43
52 52 50 51 52 53 52 51 51 54 55 58 54 52 46 38 43 48 53 54 53 54 51 51 52 48 52 53 51 51 48 47 47 45 47 36 31 26 24 27 22 41 45 47 44 44 43
51 52 53 53 52 52 51 51 51 52 54 60 55 53 46 34 45 49 51 50 50 50 48 49 51 53 54 48 38 38 34 37 39 43 42 42 31 26 23 25 34 42 45 42 41 40 44
51 52 52 52 51 51 51 51 51 52 54 58 54 51 49 43 45 53 49 50 44 42 44 47 52 52 48 33 32 29 29 35 34 38 42 39 34 29 25 20 20 37 44 49 47 33 44
51 52 51 51 51 51 51 51 51 51 55 57 53 53 52 44 49 52 47 48 48 44 41 45 48 45 46 28 24 26 31 39 31 30 27 27 24 23 15 18 29 41 48 49 34 35 43
51 51 51 51 51 50 50 51 51 51 52 56 53 53 54 44 48 52 53 49 48 47 40 46 44 41 34 32 28 28 27 32 32 37 34 31 28 24 25 19 26 46 45 39 42 41 45
51 51 51 50 50 51 50 50 51 51 51 55 54 54 54 51 50 53 54 54 53 55 48 45 47 44 42 34 30 33 31 33 30 29 40 33 36 32 34 34 44 46 45 47 46 45 43

GFSGBSN_sfc_temp_021.txt.gz
Temp
63 63 62 62 61 61 61 61 60 59 60 60 59 59 59 59 59 59 59 58 59 60 59 59 59 58 55 54 61 73 67 68 69 72 72 69 67 66 63 65 66 64 68 68 70 70 70
62 62 61 61 61 61 61 60 59 59 59 60 59 59 58 59 58 59 58 59 58 58 59 58 58 58 51 56 77 73 69 69 71 72 70 71 70 71 68 66 65 69 68 68 67 68 68
62 62 61 60 60 60 60 59 59 58 58 59 58 58 57 58 58 58 59 59 59 58 57 57 57 56 52 62 77 72 73 72 71 74 69 71 74 71 69 66 70 68 66 66 66 68 67
62 62 61 60 59 59 58 58 58 58 58 59 59 58 57 57 57 57 58 58 57 57 57 57 58 55 55 74 74 73 72 74 73 75 74 75 74 71 69 71 66 64 62 59 65 67 65
62 62 61 60 59 59 58 58 58 58 58 58 58 57 57 56 56 57 58 56 56 57 57 57 53 52 59 75 74 80 77 76 71 72 73 76 74 67 68 62 59 59 56 56 61 62 66
61 61 61 60 59 59 58 58 57 57 58 57 57 57 56 56 55 56 56 56 56 56 56 59 57 54 66 69 74 76 80 78 71 70 69 69 65 62 60 61 52 55 55 56 58 59 59
60 61 61 60 59 59 59 59 58 57 57 57 57 57 56 56 55 55 53 54 52 52 51 59 61 61 67 74 74 75 77 76 70 69 62 63 61 57 60 61 60 59 57 56 56 57 54
59 60 60 60 60 59 59 59 58 57 57 56 56 56 56 56 55 55 55 51 62 66 57 59 61 63 67 71 67 72 77 70 67 61 64 62 57 60 61 60 59 57 55 52 55 57 55
57 58 60 60 60 59 59 59 58 57 56 56 56 56 56 55 55 54 52 55 66 68 57 61 62 64 69 70 66 68 73 69 64 60 59 57 59 61 59 58 57 54 55 53 53 55 56
57 56 58 59 59 59 59 58 58 57 56 56 56 55 55 54 52 53 53 64 63 64 50 56 62 68 69 69 64 72 72 69 63 56 57 58 61 59 58 56 57 52 58 55 53 54 50
57 56 57 58 58 57 57 57 57 57 56 56 55 55 54 56 55 55 64 65 62 62 36 58 63 75 68 65 65 66 70 68 59 58 60 55 57 57 55 56 59 54 58 57 54 52 52
57 56 56 57 57 57 56 56 56 56 56 55 55 55 54 54 52 58 63 63 61 46 36 55 63 61 62 62 62 65 66 67 65 58 59 57 62 60 59 58 58 57 56 54 51 51 44
56 56 55 57 57 56 56 56 55 55 55 55 55 55 54 58 57 62 60 59 46 39 55 53 55 60 58 56 58 59 56 55 56 50 49 55 56 60 60 58 59 57 53 44 42 41 41
55 55 55 56 56 56 56 55 55 55 55 55 54 53 54 56 59 57 58 53 42 49 50 58 56 57 54 57 55 55 54 52 55 54 50 48 46 56 59 57 55 52 53 43 36 36 41
55 55 55 56 56 56 55 55 55 54 54 54 53 53 52 57 58 56 54 41 44 48 56 55 56 52 52 56 55 53 51 51 53 55 51 47 48 58 57 59 59 51 48 51 41 36 38
55 54 54 55 56 55 55 55 55 54 54 53 52 51 55 60 58 56 49 44 51 55 58 57 50 53 49 53 51 51 52 54 54 55 57 52 46 54 57 59 57 56 54 46 44 35 34
54 54 53 55 55 55 55 55 54 54 53 54 53 52 57 58 57 53 44 46 53 58 59 57 53 51 52 51 51 50 50 53 55 56 57 54 51 50 54 52 51 51 48 45 46 41 37
53 53 51 54 55 55 55 54 54 53 53 52 50 47 57 56 49 44 46 51 54 57 60 58 58 55 52 51 50 49 50 53 54 55 53 53 47 43 49 55 56 54 50 48 41 38 36
52 52 51 54 54 55 54 54 53 53 54 51 49 51 57 56 41 39 49 54 57 56 56 57 55 56 55 50 47 49 50 53 54 55 51 52 46 40 45 51 54 51 50 46 43 41 38
52 51 51 54 54 54 54 53 53 53 55 55 50 45 50 49 48 49 49 51 53 57 56 57 54 55 52 50 50 46 49 53 53 53 48 52 46 45 42 46 48 46 46 46 47 39 39
51 51 52 54 54 54 53 53 53 53 54 53 50 47 50 43 45 48 52 52 52 51 57 57 54 55 51 46 47 45 50 51 53 50 51 51 45 45 43 44 46 47 46 45 46 45 43
51 51 52 53 53 53 53 52 52 52 53 52 49 47 46 45 48 49 47 50 51 53 54 53 52 52 53 48 51 46 49 49 50 51 49 47 42 43 41 42 42 43 46 46 45 45 46
52 52 52 52 51 51 51 52 52 52 55 52 51 51 51 41 45 45 45 49 52 54 52 54 54 51 49 52 52 50 50 49 51 49 44 44 40 39 36 37 39 35 43 46 45 47 49
52 52 51 51 50 50 51 52 51 53 54 55 53 51 46 37 42 46 49 52 52 53 51 52 53 51 51 53 53 53 50 48 48 45 47 40 38 34 34 32 32 47 49 49 47 48 49
51 50 50 50 49 51 51 51 51 53 54 55 53 53 46 34 43 46 49 48 49 49 48 50 50 51 53 51 43 42 39 39 41 43 42 44 37 30 33 34 40 48 46 45 44 49 51
50 50 50 50 51 51 51 51 51 53 54 55 53 52 50 41 42 52 48 49 45 44 45 46 51 52 49 39 38 35 36 41 40 41 43 41 39 38 30 32 31 44 49 51 52 41 52
50 51 51 51 50 50 50 50 51 52 54 56 53 53 52 45 50 51 48 48 48 46 43 45 48 48 49 36 34 36 38 41 39 34 31 33 32 33 26 33 37 46 50 52 41 44 48
51 50 50 50 50 50 50 50 51 52 54 56 53 54 55 46 49 53 53 49 48 48 44 46 47 45 39 37 36 35 35 38 38 41 37 37 33 31 28 30 32 48 50 44 50 50 50
50 50 49 48 48 48 49 50 52 53 53 55 54 54 53 51 50 53 55 55 55 55 49 46 50 46 46 39 35 33 33 32 34 36 41 37 41 39 39 41 48 50 50 53 50 51 52

GFSGBSN_sfc_temp_024.txt.gz
Temp
63 63 63 62 62 61 61 61 60 59 59 59 60 59 59 60 59 59 58 58 58 59 60 60 59 58 62 65 73 83 68 68 79 82 82 80 77 76 71 75 76 72 75 77 78 78 78
62 62 62 62 61 61 61 61 60 59 59 59 59 59 58 59 59 58 58 58 58 58 59 58 58 58 62 64 86 84 81 80 83 82 82 82 79 80 76 74 74 76 76 76 75 78 78
61 62 61 61 61 61 61 60 60 59 58 58 58 58 58 58 58 58 58 58 58 58 58 58 58 61 60 72 87 86 83 83 85 84 81 84 83 78 77 73 77 76 71 75 74 76 74
61 62 62 60 60 59 59 59 59 59 58 58 59 58 58 57 57 57 57 57 57 57 58 57 57 59 66 83 88 83 87 81 83 86 84 83 83 78 75 77 73 71 72 66 71 76 72
61 61 61 61 60 59 59 58 58 58 58 58 58 58 57 56 56 56 56 57 57 58 57 57 59 59 68 80 80 88 87 81 80 81 81 82 79 74 74 69 67 68 64 65 66 73 74
61 61 61 61 60 59 59 58 58 58 58 58 57 58 56 56 56 55 56 56 57 57 59 62 64 60 75 77 83 85 87 84 78 76 72 73 74 71 72 69 58 63 63 67 65 68 73
60 60 61 61 60 60 60 59 58 57 57 57 57 58 57 56 56 55 57 62 60 59 60 69 70 70 76 83 84 84 86 82 80 76 70 71 68 64 68 70 70 70 67 65 66 66 67
59 60 60 60 60 60 60 60 58 57 57 57 57 56 56 56 56 55 61 63 71 71 67 71 70 71 76 78 74 81 86 78 73 69 70 68 63 67 69 69 69 68 66 63 63 65 67
58 59 59 60 60 60 60 60 58 57 57 57 56 56 56 56 55 55 60 66 77 75 66 68 71 73 76 78 75 77 82 79 72 69 67 65 66 67 67 68 67 65 65 62 63 64 67
57 57 58 59 60 60 59 59 58 57 57 56 56 56 55 54 55 65 63 74 75 72 63 64 69 75 77 78 72 80 81 78 72 67 67 66 68 68 68 65 68 62 65 66 63 64 60
57 57 57 57 58 58 58 58 58 57 57 56 56 56 54 56 66 65 72 76 74 71 44 67 70 83 78 73 74 73 78 78 69 65 65 62 65 65 65 62 65 62 66 67 65 65 62
56 56 56 56 57 57 57 57 56 56 56 56 56 55 54 56 63 70 73 73 71 57 44 61 71 69 69 70 70 74 74 78 74 68 69 66 70 69 67 66 67 67 65 64 65 63 52
55 55 56 56 56 56 57 56 56 56 56 56 55 55 55 66 67 71 71 69 57 49 63 60 63 68 68 65 66 69 67 67 65 58 59 65 64 68 69 65 66 66 63 53 48 49 48
54 54 55 56 56 56 56 56 55 55 55 55 54 54 56 67 73 68 69 63 49 58 60 66 66 67 63 66 64 64 65 63 65 66 63 59 53 63 66 65 64 64 63 52 42 45 52
54 54 54 55 55 56 56 56 55 55 54 54 54 55 58 66 65 65 65 53 55 60 66 63 65 61 60 63 64 64 63 63 63 65 61 57 55 65 64 67 66 60 57 61 51 44 46
54 54 54 54 55 55 55 55 55 55 54 53 60 58 66 70 69 65 59 54 61 65 66 68 58 63 57 61 61 62 61 62 61 64 66 62 53 61 63 67 65 63 65 53 55 40 41
53 54 54 54 54 54 55 55 55 54 54 54 63 61 67 70 69 64 55 60 63 68 68 65 63 60 62 60 63 61 61 61 63 63 67 66 61 56 61 60 60 59 58 56 58 52 46
52 52 53 54 54 53 54 55 54 54 53 54 63 57 65 68 60 63 59 64 59 66 67 67 68 65 63 62 60 61 60 62 64 66 62 63 61 52 57 62 64 63 61 60 51 47 49
51 52 53 53 53 52 54 54 54 53 54 60 60 62 65 65 54 54 61 64 65 65 66 66 64 66 65 61 57 60 60 60 61 63 62 62 58 49 51 58 61 59 61 60 56 54 48
51 52 52 53 52 51 53 54 53 53 55 66 64 54 59 63 65 62 60 61 61 65 65 66 63 65 62 59 60 56 58 58 60 61 49 58 58 56 51 55 60 54 56 59 59 49 52
51 51 52 51 50 50 53 54 53 53 54 62 64 61 65 53 56 62 64 64 62 60 66 67 63 65 63 55 57 56 59 58 59 52 59 61 55 55 55 55 55 56 57 57 56 58 50
51 51 51 50 50 49 53 53 53 53 54 61 61 60 61 62 62 61 56 61 63 62 64 63 63 63 64 60 63 57 60 60 60 59 59 58 53 52 49 52 52 51 57 59 59 59 58
51 52 51 50 50 52 53 53 52 52 56 65 66 65 68 50 59 59 59 63 64 65 60 65 67 63 60 60 62 64 63 63 63 60 56 55 52 49 46 47 48 40 52 58 59 60 59
51 51 50 51 51 53 53 52 52 52 54 73 69 70 62 51 56 59 62 64 63 66 61 60 65 63 58 65 66 64 62 60 60 56 58 51 51 46 43 38 35 57 59 59 59 61 64
50 50 50 51 52 52 52 51 51 52 54 67 68 69 62 41 58 59 61 63 61 61 58 60 58 62 65 62 56 51 49 46 50 53 54 56 51 39 38 44 51 59 56 54 52 57 65
50 51 51 51 50 50 51 51 51 52 54 65 67 68 68 52 53 64 61 61 59 59 56 53 58 62 60 56 51 45 44 51 47 49 52 52 52 49 39 37 35 54 56 59 59 50 62
50 51 50 49 50 51 51 51 51 52 54 63 64 63 70 59 62 63 61 59 63 61 58 54 55 55 58 50 44 46 48 52 47 42 37 42 41 39 41 38 48 58 58 59 46 51 61
49 49 50 50 51 51 50 50 51 52 54 62 62 63 69 59 60 62 63 60 59 63 56 56 57 55 52 46 46 48 43 49 49 52 47 46 42 39 39 36 36 58 57 51 59 62 61
50 50 50 50 50 50 50 50 51 52 54 58 62 62 66 65 60 63 62 63 64 68 63 60 61 59 61 53 48 45 39 37 47 46 51 46 52 51 51 52 58 60 62 64 61 60 62

GFSGBSN_sfc_temp_027.txt.gz
Temp
62 61 63 63 62 62 62 62 61 60 60 59 59 60 60 60 60 59 58 58 58 59 59 59 59 59 62 68 76 85 68 69 81 82 85 83 80 80 75 78 80 76 79 81 82 83 82
62 61 62 62 62 62 62 62 61 60 59 59 59 59 59 59 59 59 58 58 58 58 59 59 59 58 64 65 92 92 88 84 88 86 85 87 83 85 79 78 77 81 80 80 81 81 80
61 62 61 61 61 61 61 60 60 60 59 59 59 58 58 59 58 58 58 58 58 58 58 59 58 65 66 74 93 93 89 89 91 88 84 88 88 81 81 75 82 79 73 76 78 79 74
61 61 61 61 60 60 60 60 60 60 59 59 59 58 58 57 57 57 57 57 58 58 58 58 58 67 67 90 96 91 92 89 91 91 88 89 88 82 78 81 78 73 74 66 75 78 80
60 60 61 60 60 60 59 59 59 59 59 59 59 58 57 57 56 56 57 57 58 58 58 59 62 66 71 79 85 93 94 85 85 87 87 86 82 77 78 71 69 70 63 66 68 80 78
60 60 60 60 60 59 59 59 59 59 58 58 58 58 57 57 56 56 56 57 57 57 61 70 71 64 77 80 88 90 93 87 82 81 78 78 76 71 74 70 56 61 64 68 67 75 78
59 60 60 60 60 60 60 60 59 58 58 58 58 58 57 57 57 56 57 66 66 63 67 71 75 75 80 87 90 88 91 86 83 79 70 75 68 64 70 72 72 71 68 68 72 74 73
59 59 59 60 60 60 60 60 59 58 58 58 58 57 57 57 56 55 61 70 75 75 68 76 77 78 82 84 77 85 90 79 75 67 74 70 61 73 74 73 71 71 68 68 71 74 71
58 58 59 59 60 60 60 60 58 57 58 57 57 57 57 56 55 57 66 73 83 80 68 75 79 77 81 83 78 81 86 83 73 69 70 57 68 72 71 70 69 70 67 67 67 71 73
57 57 57 58 59 59 59 59 59 58 57 57 57 56 56 54 56 71 68 79 80 77 62 67 72 78 81 82 75 86 88 82 75 68 70 63 73 70 71 69 71 64 71 71 68 65 60
56 57 57 57 58 57 57 58 58 58 57 57 56 56 54 55 69 70 77 83 81 73 46 72 75 88 84 77 78 78 87 82 70 69 72 62 69 70 69 68 71 63 72 70 70 68 64
55 56 56 57 57 57 57 57 57 57 57 57 56 56 54 57 64 75 80 78 74 55 46 65 75 72 72 75 75 79 79 83 81 73 74 66 75 74 72 71 72 73 69 68 69 67 55
54 55 56 56 56 56 56 56 56 56 56 56 55 55 56 68 70 77 76 72 56 50 69 64 66 72 71 69 71 73 71 69 67 60 61 68 69 72 74 68 71 71 66 53 50 51 50
53 54 55 55 56 56 56 56 55 56 56 55 55 54 57 69 76 74 72 64 48 62 64 71 71 70 66 71 70 70 69 67 73 71 62 60 55 69 73 70 67 67 67 53 44 46 53
52 52 53 55 55 56 55 56 55 55 55 55 54 59 60 66 68 70 66 53 56 65 71 67 69 64 64 69 68 68 68 68 72 73 61 61 59 71 70 72 72 66 60 68 57 52 49
51 52 52 54 54 55 55 55 55 55 54 54 61 58 64 71 69 66 60 54 65 72 73 72 61 66 61 65 64 66 66 71 68 71 74 68 57 67 68 71 71 67 71 57 58 44 43
51 51 51 54 54 54 54 55 55 54 54 54 64 59 73 73 69 63 55 60 68 74 74 69 67 65 67 65 67 65 66 69 71 70 73 71 65 61 65 64 65 63 61 62 63 58 47
50 50 51 53 54 54 54 55 54 54 54 55 61 55 70 73 59 62 59 67 67 72 74 71 71 70 67 67 64 66 65 69 75 73 66 70 66 57 61 69 71 69 66 65 52 52 54
50 50 52 53 54 54 54 54 54 53 55 62 58 62 67 70 53 56 66 68 72 70 70 69 68 71 72 67 61 66 68 65 68 69 68 69 62 52 56 62 67 63 66 66 64 59 52
49 50 52 53 53 53 53 53 53 53 56 65 63 55 58 62 68 64 62 64 64 73 72 73 71 72 68 66 68 64 65 64 66 69 52 61 64 59 52 59 66 59 63 66 62 51 53
49 50 51 52 53 53 52 52 53 53 55 63 63 63 65 54 61 65 66 66 64 63 71 73 69 69 67 61 63 62 67 62 64 54 64 66 57 62 64 63 63 63 63 63 61 62 55
50 50 51 51 52 53 52 51 52 53 56 56 59 66 68 64 65 64 60 63 65 68 68 66 67 70 71 65 66 62 66 65 63 64 64 66 57 58 54 61 60 58 62 64 65 64 64
50 51 51 51 51 51 51 51 51 53 56 58 66 70 69 59 63 61 63 65 67 70 66 73 72 70 67 68 70 71 72 72 70 65 62 61 57 53 48 54 55 43 55 61 64 67 65
51 51 51 51 51 51 50 50 48 54 58 70 66 69 59 55 62 62 67 68 68 70 66 69 74 69 67 73 73 71 69 68 66 64 68 58 57 52 46 41 34 61 67 66 62 66 70
50 51 50 51 50 50 49 50 50 53 54 69 67 67 64 45 64 65 66 67 70 69 68 67 65 71 73 71 60 53 53 50 56 61 61 64 57 45 40 46 55 60 64 60 58 60 69
50 50 51 51 50 50 49 50 51 53 53 59 66 73 71 59 60 70 66 69 64 63 60 58 66 71 68 64 56 50 47 55 51 54 60 58 59 51 45 37 34 56 62 65 65 52 66
50 49 50 50 50 50 50 51 52 53 54 57 68 69 74 65 71 70 65 65 71 68 63 59 59 59 65 55 45 50 51 59 50 46 39 45 45 42 44 40 50 64 64 64 48 52 65
48 48 49 50 50 50 51 51 52 53 53 57 69 71 75 67 68 69 74 69 70 69 59 62 60 60 59 50 50 53 48 54 54 59 51 48 45 40 46 36 37 65 63 53 61 66 67
47 48 49 50 49 50 51 51 51 52 52 55 67 72 78 72 64 70 68 69 73 77 72 64 68 64 65 60 55 54 42 42 53 48 61 50 57 54 55 54 64 67 65 69 68 64 65

GFSGBSN_sfc_temp_030.txt.gz
Temp
62 62 61 61 62 62 63 62 61 61 60 60 60 60 60 61 60 60 59 59 58 59 59 60 60 59 62 67 73 82 69 69 79 80 81 82 78 77 71 76 78 75 78 81 83 81 80
61 61 61 61 61 62 63 62 61 60 60 60 59 59 59 59 60 59 58 58 58 58 59 59 59 58 62 64 93 92 86 81 86 82 83 85 81 83 78 77 76 79 78 79 81 79 80
61 61 61 61 61 61 62 61 61 60 60 60 59 59 59 59 59 58 58 58 59 58 59 59 59 63 65 71 92 94 90 87 90 86 83 87 88 81 81 75 83 79 72 76 77 78 75
60 61 60 60 60 60 60 60 60 60 60 60 60 59 58 58 58 57 58 57 57 58 59 59 59 65 64 90 94 91 93 89 91 91 88 89 88 82 77 80 77 72 72 62 74 76 76
60 60 60 60 60 59 59 59 60 60 60 60 59 59 58 57 58 56 57 57 58 58 59 59 60 65 68 83 83 91 93 87 87 87 86 88 83 76 76 68 64 68 59 62 67 77 74
60 60 60 60 60 59 60 59 59 59 59 59 59 58 58 57 57 56 56 57 59 58 59 69 71 64 74 78 87 91 94 89 82 82 78 77 75 69 69 65 53 58 60 64 64 72 75
59 60 60 60 60 60 60 60 59 58 58 59 59 58 58 57 57 56 56 62 60 60 66 69 74 72 81 88 91 87 91 84 83 78 68 73 66 60 57 68 69 67 65 64 69 76 72
58 58 59 59 59 60 60 60 59 58 58 58 58 58 58 57 57 56 59 64 75 75 64 74 76 78 83 86 78 84 91 77 74 60 70 68 60 68 68 71 69 68 64 65 71 74 71
57 57 58 59 59 59 60 60 59 58 58 58 58 58 58 57 56 57 63 69 82 79 65 74 78 77 79 84 76 79 85 81 69 63 64 58 63 70 69 68 65 67 65 63 65 71 73
56 56 57 58 58 59 59 59 59 58 57 57 57 57 56 55 53 67 66 75 76 76 58 67 72 77 81 82 74 88 89 81 73 66 61 61 71 68 67 66 69 60 70 69 67 64 56
55 55 56 57 57 57 57 57 58 58 57 57 56 56 55 55 64 69 77 83 81 72 43 72 73 88 83 75 78 79 88 81 70 68 65 60 63 65 63 66 71 61 67 68 69 65 55
55 55 55 56 56 56 56 56 57 57 56 56 56 56 55 56 60 67 75 77 73 53 43 65 75 72 72 75 76 81 79 83 81 72 71 65 74 67 59 69 73 73 67 69 68 64 43
53 54 54 55 56 56 56 56 56 56 56 56 56 56 56 68 65 76 73 68 52 46 70 64 67 71 70 68 71 73 70 68 65 59 58 64 66 74 72 68 73 71 64 50 40 41 44
53 53 54 54 55 56 56 56 56 55 55 56 55 54 56 65 72 72 69 54 45 59 61 73 71 70 64 70 69 70 68 64 71 69 63 55 54 69 74 70 57 65 64 48 34 33 48
52 53 53 53 54 55 55 55 55 55 55 55 54 58 58 63 65 66 59 45 51 62 69 68 70 63 63 69 69 68 66 65 70 71 57 52 51 68 73 74 71 65 58 67 56 51 45
52 51 52 52 52 54 55 55 55 54 54 54 58 58 58 66 66 61 52 49 60 70 74 72 61 66 60 65 63 65 64 71 70 74 63 51 40 60 69 72 72 67 71 55 57 41 40
51 51 52 52 51 52 54 55 55 54 54 54 59 53 67 69 65 57 49 55 62 74 76 69 66 65 66 65 66 64 65 72 74 72 73 68 54 60 66 63 63 63 60 62 62 56 43
50 50 51 51 52 51 53 55 54 54 54 52 57 48 67 68 52 57 53 61 64 70 76 72 72 70 67 68 65 65 64 69 76 74 65 71 64 54 60 70 73 69 64 63 48 49 52
49 50 51 51 52 51 52 54 54 54 53 52 53 58 65 66 48 51 59 62 67 68 70 69 68 71 72 67 62 66 68 69 71 71 65 69 60 49 55 63 68 63 66 66 64 58 50
50 50 50 51 51 51 52 54 54 54 54 54 56 48 52 56 64 58 56 59 61 72 72 73 70 73 69 66 70 64 66 65 68 70 55 64 63 57 49 57 63 58 62 66 62 46 49
49 50 50 50 50 50 53 54 54 53 53 52 54 55 58 46 54 60 62 62 61 62 71 73 69 69 66 61 64 62 67 63 66 56 64 65 56 60 63 65 63 62 62 64 61 60 51
49 49 49 49 50 51 53 54 54 53 53 49 53 59 63 60 59 59 57 60 62 67 68 66 66 69 69 64 65 62 67 64 62 63 64 66 55 58 55 62 62 57 62 63 63 64 63
47 49 49 49 50 52 53 53 53 52 52 49 61 66 60 56 58 56 58 62 64 69 70 73 70 69 66 69 71 70 71 71 71 63 61 61 55 51 45 55 53 42 54 59 62 65 64
48 48 50 49 51 52 52 52 52 52 52 55 63 65 52 52 58 59 62 66 67 69 66 72 74 69 69 76 74 72 70 69 69 67 69 59 56 50 43 40 35 58 68 66 62 65 68
49 49 50 51 51 51 52 51 51 50 49 55 63 59 53 45 62 63 64 66 69 70 68 70 68 73 75 70 58 53 51 49 56 63 63 65 55 44 38 43 52 58 64 61 59 58 66
49 50 50 50 50 50 50 50 50 51 50 51 55 60 58 54 58 69 65 68 63 62 61 60 70 74 73 63 54 48 45 53 52 54 62 61 60 47 43 37 34 55 63 67 66 48 65
50 50 50 50 50 50 50 50 49 49 51 49 54 58 56 52 68 67 64 64 70 64 59 60 60 61 66 52 42 49 49 61 49 45 38 44 44 39 41 38 47 64 65 66 46 49 64
49 49 49 49 50 50 49 49 49 49 51 49 53 57 55 53 68 73 75 69 69 66 55 61 60 61 58 49 49 52 46 53 54 58 48 44 42 38 44 35 34 66 63 52 59 64 64
49 49 49 49 50 50 49 49 49 50 50 52 50 56 58 55 63 69 68 71 71 74 67 63 65 63 63 58 54 54 41 40 50 46 64 49 55 50 50 48 63 67 64 68 67 63 64

GFSGBSN_sfc_temp_033.txt.gz
Temp
61 62 61 61 61 62 63 62 62 61 61 60 60 60 60 60 60 59 58 58 58 59 59 59 59 59 55 56 63 75 68 68 73 74 72 70 68 66 63 66 67 64 69 73 71 71 67
61 61 61 60 61 61 62 62 61 61 60 60 59 59 59 59 59 59 59 58 57 58 58 59 59 59 52 55 81 75 75 72 75 71 73 73 72 76 70 68 63 70 70 71 73 70 68
61 61 60 60 60 60 61 61 61 61 60 60 60 59 59 59 58 58 58 58 57 57 58 59 59 59 57 59 79 76 80 75 77 76 72 77 77 70 70 64 72 73 63 68 67 69 62
60 60 60 60 59 59 59 60 60 60 60 60 60 59 58 58 57 57 57 56 57 57 58 59 59 55 53 79 75 78 79 78 81 80 79 80 78 72 68 70 67 62 61 54 65 67 66
60 60 60 59 59 59 58 59 59 60 60 60 59 59 58 57 57 56 56 56 57 57 58 58 52 53 56 79 76 82 81 80 81 80 78 85 74 65 66 58 52 55 48 55 61 69 66
60 60 59 59 59 59 59 59 59 59 59 59 59 59 58 57 56 56 56 57 57 57 58 61 62 53 64 71 80 83 83 81 76 73 71 68 63 57 57 53 43 50 54 50 55 62 63
59 60 59 59 59 59 59 59 59 58 58 59 59 59 58 57 57 56 54 53 50 51 54 57 62 63 74 80 84 78 82 77 73 69 56 61 53 49 54 58 63 61 57 56 61 67 63
58 58 59 59 59 59 59 60 59 58 58 58 59 58 58 57 57 57 52 51 64 64 54 65 67 69 76 78 71 77 81 69 66 56 62 56 48 60 66 65 62 62 57 55 63 68 63
57 57 57 58 59 59 59 59 58 58 57 57 58 58 57 57 56 54 52 57 69 65 52 65 71 68 72 76 70 71 76 71 62 60 57 53 57 66 65 61 59 58 55 57 58 60 60
56 56 57 57 57 58 58 59 58 58 57 57 57 57 56 55 51 55 53 64 63 62 45 60 66 71 75 75 67 79 80 72 64 57 58 55 63 63 61 60 62 56 63 61 62 54 46
55 55 55 56 56 57 57 57 57 57 57 57 56 56 55 56 53 55 66 66 66 60 33 64 68 81 77 69 70 72 82 73 62 59 59 54 57 57 56 61 65 57 63 61 60 56 50
55 55 55 55 55 55 56 56 56 56 56 56 56 56 55 54 53 56 63 63 62 45 34 61 69 66 65 68 69 74 72 72 71 63 62 61 65 62 60 65 64 66 61 60 56 51 40
54 54 54 54 55 55 56 56 56 56 56 56 55 55 54 61 54 63 62 57 42 36 63 60 61 66 63 62 65 66 63 59 55 50 48 59 60 66 65 59 63 61 52 38 34 34 35
53 54 54 53 54 55 55 56 55 55 55 55 55 54 55 59 61 61 57 49 38 52 55 67 64 64 58 63 62 63 60 54 60 58 52 49 45 58 65 60 59 56 54 39 31 30 36
52 53 53 53 52 54 55 55 55 55 54 55 54 54 53 56 59 59 52 41 42 54 62 62 64 57 56 62 62 59 57 56 60 63 49 47 48 61 64 63 62 57 52 57 42 39 33
52 52 52 53 52 53 54 55 55 55 54 54 52 51 53 59 58 55 47 45 51 63 65 64 55 59 52 57 57 56 56 63 63 66 59 50 44 56 60 64 65 60 62 46 43 34 33
52 52 51 51 51 52 53 54 55 55 54 54 52 47 56 61 57 50 42 47 54 65 67 62 59 57 58 56 58 55 57 64 65 61 60 54 50 49 56 55 54 55 52 53 52 43 34
50 51 51 51 51 51 52 52 54 54 54 52 50 43 58 61 44 46 44 52 55 62 66 63 64 62 59 59 57 56 56 60 67 65 59 55 49 40 50 63 65 61 55 52 35 41 40
50 50 50 50 51 50 52 52 53 54 55 51 47 50 58 60 40 41 49 52 57 58 60 62 61 62 63 58 55 57 56 61 63 62 58 57 49 38 45 54 58 55 58 58 54 44 40
49 50 50 50 50 50 52 52 52 54 54 52 47 42 49 52 55 48 47 50 51 61 61 64 64 63 59 57 59 55 54 60 62 59 52 58 54 46 37 46 55 49 55 57 52 34 38
49 49 49 49 49 49 51 52 52 53 54 52 47 48 51 43 45 50 52 53 52 52 62 65 61 61 58 52 54 55 55 56 59 54 57 56 47 50 53 56 58 58 55 55 52 50 41
48 49 49 49 49 50 51 51 50 52 54 48 45 50 52 51 52 49 50 50 53 57 59 59 58 61 60 55 56 53 57 55 54 54 55 57 45 47 45 55 54 49 54 54 54 54 52
49 49 49 49 49 50 50 51 50 52 53 46 51 52 54 48 49 47 49 54 55 60 61 66 62 59 57 60 61 60 62 60 59 54 51 51 46 39 36 45 46 35 47 52 53 55 53
49 49 49 49 49 50 50 50 49 52 52 50 52 53 46 44 49 49 55 57 57 59 57 64 63 59 61 65 62 60 58 58 60 57 58 48 46 37 32 33 26 47 58 59 55 55 55
49 48 47 49 49 50 50 50 50 53 53 50 52 50 48 35 52 53 55 57 59 61 59 62 62 65 64 60 48 44 39 43 49 56 55 54 42 34 31 30 41 50 54 52 50 48 55
48 48 48 49 49 49 50 51 52 53 54 51 51 50 50 46 48 59 55 58 54 53 50 53 59 60 62 50 39 37 33 43 43 48 54 52 47 36 31 27 24 43 55 59 57 37 54
49 47 48 48 48 48 50 52 51 52 52 50 48 52 48 47 56 57 55 55 60 52 47 49 52 52 56 35 35 34 35 51 38 37 35 33 34 30 26 25 35 54 58 58 37 39 54
49 48 49 49 49 50 50 50 50 51 52 49 47 50 49 48 54 57 63 60 59 54 46 52 49 49 45 38 37 35 32 40 41 47 40 36 32 28 32 30 30 57 55 45 48 52 55
48 49 49 49 49 49 49 49 50 50 51 51 45 52 54 48 50 58 59 59 64 62 54 52 53 52 51 45 40 38 36 35 38 33 51 37 42 37 39 37 50 55 55 56 56 53 52

GFSGBSN_sfc_temp_036.txt.gz
Temp
61 61 62 61 61 61 62 62 61 60 60 60 60 60 60 60 60 59 58 58 58 58 58 59 59 59 54 53 59 71 68 68 71 72 67 66 63 60 57 62 63 59 65 67 66 66 67
61 60 60 60 60 60 61 61 61 60 60 60 59 59 59 59 59 58 58 57 57 57 57 58 59 58 51 53 74 73 70 70 71 68 69 68 67 68 63 63 60 65 65 64 65 65 70
61 60 60 60 59 60 60 60 60 60 60 60 59 59 59 59 58 58 58 57 56 56 57 58 59 57 52 58 72 70 74 70 71 71 68 72 72 67 65 63 68 67 60 63 59 60 62
60 60 60 60 59 59 59 59 59 60 60 60 60 59 58 58 57 57 57 56 56 57 57 58 58 52 51 72 69 71 72 75 76 74 73 75 74 69 64 66 64 59 58 54 61 62 63
60 60 60 59 59 58 58 58 58 59 60 60 59 59 58 57 57 56 56 56 56 57 58 58 51 50 53 73 71 77 77 74 75 74 73 81 71 62 64 55 49 51 45 50 56 65 63
59 59 59 59 59 58 58 58 58 58 59 59 59 58 58 57 56 56 55 56 56 56 57 60 59 49 61 67 75 78 77 78 72 71 68 66 59 54 53 51 41 45 49 49 52 60 62
59 59 59 59 59 59 59 59 58 58 58 58 59 58 58 57 57 56 53 51 52 51 52 54 58 58 67 73 77 76 77 74 70 65 56 58 51 47 51 55 56 55 53 51 55 63 60
58 58 58 58 59 59 59 59 58 57 58 58 58 58 58 57 56 56 51 49 58 59 51 61 63 63 70 71 65 72 77 67 62 54 57 53 48 57 60 61 58 57 52 51 57 62 60
56 57 57 58 58 59 59 59 58 57 57 57 58 58 58 57 56 52 49 52 64 63 50 59 64 63 67 70 65 67 73 67 59 55 55 50 55 62 60 60 57 54 52 51 53 58 56
56 56 56 57 57 58 58 58 58 57 57 56 57 57 56 55 52 52 50 60 60 60 43 53 60 66 70 71 63 74 75 69 60 55 55 53 60 60 56 56 57 50 60 59 56 51 45
55 56 55 56 56 57 56 57 57 57 57 57 56 56 55 56 52 53 60 62 60 57 28 60 62 76 71 65 66 68 75 68 58 57 57 54 55 55 55 57 61 55 60 57 59 49 46
53 55 56 55 55 56 56 55 56 56 56 56 56 56 54 53 51 53 60 59 59 45 33 56 65 62 61 63 64 67 68 69 67 59 57 55 60 60 60 62 61 61 57 55 51 48 39
53 53 55 55 55 55 55 55 55 56 56 56 55 55 55 58 51 57 61 54 41 36 57 55 57 61 59 58 60 62 60 57 53 47 46 54 57 60 62 58 61 59 49 36 35 32 34
53 53 54 55 55 54 54 55 55 55 55 55 55 54 55 58 54 56 56 50 36 47 50 61 60 60 54 58 58 59 55 52 55 54 47 45 43 57 60 58 53 52 50 36 32 30 35
53 53 53 53 55 54 53 54 54 55 55 54 54 53 53 55 54 57 50 41 40 48 59 57 58 53 52 58 58 56 53 52 57 56 47 44 48 58 60 60 58 54 47 53 40 35 31
52 53 52 52 53 54 54 53 54 55 55 54 51 51 52 56 57 54 46 43 48 58 60 59 51 54 48 53 52 52 52 58 57 61 58 51 43 54 59 62 60 56 59 46 41 33 31
52 52 52 52 52 53 53 52 53 55 55 54 50 46 55 59 55 47 40 45 52 61 60 56 54 53 54 52 54 50 54 59 61 57 59 53 49 47 54 52 53 52 49 49 47 39 33
51 52 51 52 52 52 52 52 52 54 54 52 48 41 55 58 43 43 43 49 52 57 60 57 58 56 54 54 52 52 53 58 61 58 53 54 47 39 50 58 59 56 52 50 34 39 37
51 51 51 51 51 52 51 52 52 52 54 48 44 47 54 57 38 39 47 51 53 55 56 56 56 59 59 53 50 53 54 58 59 58 53 53 45 36 43 51 54 52 55 53 48 40 38
51 51 51 51 51 51 51 51 52 52 54 49 46 40 47 49 49 46 43 45 46 56 54 56 56 57 56 54 56 52 53 57 58 58 52 56 49 43 36 45 50 47 51 51 47 33 37
50 50 50 50 50 51 51 51 51 51 53 49 45 44 48 40 42 46 48 47 45 46 56 58 55 55 52 50 52 48 53 54 56 54 54 54 46 48 50 52 52 51 52 51 48 47 40
50 50 49 49 50 51 51 50 50 51 51 45 43 42 48 44 48 43 46 45 46 50 54 54 52 56 55 53 54 50 53 51 52 52 51 53 44 44 42 49 49 46 50 49 50 50 48
49 49 49 49 50 50 50 49 49 51 50 43 48 51 48 47 46 42 43 47 49 53 56 59 57 55 52 57 59 58 58 57 56 52 49 49 44 36 35 42 42 34 44 50 51 51 51
49 49 49 49 49 50 49 48 49 51 49 48 49 50 45 40 46 45 48 51 51 53 51 59 60 55 58 60 58 58 55 54 55 52 54 45 42 34 31 32 25 45 54 53 49 49 50
48 48 49 49 49 49 49 49 49 50 50 46 51 47 45 38 48 49 50 51 54 56 54 58 60 62 62 55 46 42 38 42 47 52 51 51 39 33 30 29 39 47 52 50 46 44 50
48 48 49 48 49 49 49 49 50 50 50 45 49 49 46 42 43 54 49 52 49 48 51 54 57 58 58 45 38 36 34 41 41 46 50 47 42 36 29 27 24 41 51 56 53 36 52
48 48 49 49 49 49 49 49 50 50 50 47 48 50 46 43 49 55 50 49 53 50 46 48 52 51 51 35 33 32 34 47 36 36 34 32 32 30 24 25 33 47 54 54 38 38 51
48 48 48 48 48 48 48 49 49 50 50 49 48 50 47 44 46 51 56 51 55 55 44 48 47 47 42 37 37 33 31 39 37 43 39 37 31 26 31 26 30 52 52 45 46 48 51
47 47 47 47 48 49 49 49 49 50 51 51 45 50 51 44 46 52 52 54 55 63 51 48 52 50 48 44 39 36 33 31 36 32 46 37 40 35 38 36 48 51 50 51 51 49 48

GFSGBSN_sfc_temp_039.txt.gz
Temp
61 61 61 61 61 60 61 61 61 60 60 60 60 60 60 60 60 59 58 57 57 58 58 58 59 59 53 52 57 69 67 67 66 67 64 64 61 58 54 58 58 57 61 64 64 63 63
61 60 60 60 60 60 61 61 60 60 59 59 59 59 59 59 59 59 58 57 57 57 57 58 58 58 50 51 71 70 68 66 66 65 65 65 65 65 59 59 57 62 62 61 62 61 64
60 60 60 59 59 59 59 59 59 59 59 59 59 59 59 59 59 58 58 57 56 56 57 57 58 56 50 57 69 67 71 68 68 66 66 68 68 63 63 60 65 63 56 58 59 60 60
60 60 60 59 59 58 58 58 58 59 59 60 60 59 58 58 58 57 57 56 56 56 57 57 58 51 50 68 65 68 66 69 72 70 69 71 70 64 61 64 62 57 55 49 58 59 60
59 59 59 59 59 58 58 58 58 58 59 59 59 58 58 57 57 56 56 56 56 57 57 57 49 49 52 69 66 73 72 71 71 71 69 77 67 59 60 52 49 50 43 48 54 60 59
59 59 59 59 58 58 58 58 58 58 58 58 58 58 58 57 57 56 55 56 56 55 56 59 57 49 59 64 71 73 70 73 68 66 65 63 56 52 50 48 40 43 45 44 48 56 57
59 59 59 58 58 58 59 59 58 57 57 57 58 58 58 57 57 56 53 51 52 50 52 54 55 56 61 69 72 70 73 71 67 64 53 57 51 46 50 52 54 51 49 46 50 60 57
58 58 58 58 58 58 59 59 58 57 57 57 57 57 58 57 57 56 52 48 55 55 49 58 59 60 66 68 61 67 74 64 60 53 54 52 47 55 58 56 56 53 51 50 57 60 57
55 56 58 58 58 58 58 58 58 57 57 57 57 57 57 57 56 53 50 52 62 58 47 55 60 59 62 66 60 62 69 63 57 54 52 48 53 59 58 54 53 51 49 49 52 56 52
55 55 55 57 57 57 57 58 58 57 57 56 56 56 56 55 51 53 51 58 59 57 42 50 55 60 65 66 60 70 71 66 57 55 53 51 57 57 55 52 54 47 56 53 51 48 43
55 55 54 55 57 56 56 56 57 57 57 56 56 56 55 56 53 51 58 59 58 55 28 56 58 71 66 62 63 64 71 65 56 54 54 51 53 53 52 55 58 52 56 54 53 49 44
54 55 55 54 55 56 55 55 55 56 56 56 56 56 54 53 51 53 57 58 56 40 30 52 61 58 58 61 60 64 65 66 63 56 54 54 57 55 56 60 59 59 54 51 48 46 37
54 54 54 54 53 55 55 55 55 55 55 56 55 56 54 58 51 56 58 56 42 32 54 51 54 57 55 54 57 58 57 53 51 45 44 51 53 57 58 53 56 54 47 35 34 32 34
53 53 53 54 53 53 55 55 54 54 54 55 55 54 55 58 53 55 57 48 35 44 47 57 56 55 52 55 55 56 53 49 53 50 44 43 41 54 58 54 51 48 48 35 31 30 35
53 53 53 53 54 52 54 54 54 54 55 54 54 53 53 56 55 54 50 40 39 46 55 53 55 49 49 54 54 53 50 50 54 54 46 42 45 54 57 57 58 50 46 51 38 34 30
53 53 53 53 53 53 53 54 54 54 55 54 47 49 51 57 57 51 44 43 49 55 57 54 48 51 45 49 50 49 48 55 54 57 57 50 43 51 55 57 57 54 56 42 39 33 30
53 53 53 52 53 53 52 54 53 53 54 54 46 44 53 58 56 45 37 44 50 59 58 52 49 49 51 49 50 47 51 55 57 55 56 50 48 46 52 50 50 49 46 46 45 37 32
52 52 52 52 52 53 53 53 53 53 53 51 46 38 52 56 43 43 39 46 52 55 57 54 53 52 51 51 49 49 50 55 59 56 52 52 46 39 47 54 57 52 49 47 34 37 34
51 52 52 51 52 52 52 53 53 53 53 48 42 45 53 54 38 40 44 47 52 53 52 52 51 53 54 50 47 50 51 56 57 55 51 52 43 35 42 48 51 49 50 49 45 38 35
51 51 51 51 52 51 51 52 52 52 52 49 43 37 45 48 49 45 41 43 45 54 52 53 51 53 51 50 52 49 50 55 55 56 53 53 45 43 38 44 49 44 49 49 46 32 36
51 50 50 51 51 51 51 51 52 52 51 48 42 42 45 39 42 44 46 45 44 46 52 54 49 49 48 44 48 46 49 51 53 52 51 53 45 45 46 49 49 49 49 48 45 44 39
50 50 50 51 51 51 51 51 51 52 51 45 40 42 43 42 47 44 44 44 44 47 49 48 49 53 53 48 51 48 50 49 50 51 49 51 42 44 40 46 47 45 49 48 48 46 46
49 49 49 50 50 50 51 51 51 51 50 42 47 48 47 44 44 43 43 44 46 50 51 53 53 52 48 52 55 57 55 55 55 51 47 47 42 36 35 39 40 34 42 47 48 49 49
49 49 49 50 51 51 51 51 51 51 49 44 48 48 43 38 42 43 46 48 47 49 47 53 55 50 55 57 56 54 52 51 52 50 51 43 39 33 30 32 25 45 49 50 47 46 48
48 49 49 50 49 50 50 50 50 50 50 43 47 45 44 35 44 46 45 46 49 52 49 51 55 61 58 52 45 42 37 42 44 48 48 48 38 31 30 30 38 45 47 47 45 42 48
48 48 49 49 49 50 50 50 50 50 51 46 44 46 45 40 40 51 45 48 44 45 45 49 57 58 54 44 37 36 34 40 39 43 47 44 41 36 28 27 25 41 48 52 50 35 49
48 48 49 49 49 49 49 49 49 49 51 46 44 46 46 41 48 50 47 46 51 47 44 46 53 49 51 35 32 33 33 45 36 36 35 32 32 30 23 25 33 45 51 52 38 39 48
48 48 48 48 48 49 49 49 49 49 50 46 43 49 46 42 44 49 49 49 50 50 44 46 49 45 39 37 35 34 31 38 36 41 38 37 31 26 27 24 30 49 49 44 45 45 48
47 47 47 48 48 48 48 48 49 49 50 48 41 49 51 44 44 50 50 51 50 55 53 46 49 48 47 42 38 35 34 30 35 31 43 38 40 35 38 37 46 46 49 48 48 48 47

GFSGBSN_sfc_temp_042.txt.gz
Temp
60 60 60 61 61 61 61 61 60 60 59 59 60 60 60 61 60 59 58 57 57 57 57 58 58 59 53 51 57 65 66 66 64 65 63 62 59 56 52 54 54 54 59 63 62 61 58
59 60 60 59 60 60 61 60 59 59 59 59 59 59 59 60 60 59 58 57 57 57 57 57 58 58 50 50 68 68 65 65 65 62 61 63 62 63 57 56 54 61 57 57 61 58 61
60 59 59 59 59 59 59 59 59 58 58 59 59 59 59 59 59 58 58 57 57 56 57 57 58 55 49 57 66 64 67 64 66 65 62 65 65 60 59 56 61 62 55 57 58 59 57
60 59 59 58 58 58 58 58 58 58 58 58 59 59 58 58 58 57 57 56 56 56 57 57 57 50 49 66 62 65 64 66 68 67 65 68 66 61 57 59 57 55 54 48 55 57 57
59 59 59 58 58 58 58 58 58 58 58 58 58 58 57 57 57 57 56 56 56 57 57 57 49 47 51 67 63 69 69 68 68 66 66 74 64 56 57 50 47 48 41 46 51 60 58
58 59 59 59 58 58 58 58 58 58 57 57 57 57 57 57 57 56 55 56 56 55 56 58 56 47 58 60 67 69 66 69 65 64 62 60 54 50 48 46 40 43 44 41 45 54 54
58 58 57 59 58 58 58 58 58 57 57 57 57 57 57 57 57 56 54 52 51 50 51 54 54 54 59 66 68 66 68 68 64 62 51 53 49 44 48 50 50 50 48 45 48 55 54
57 57 57 57 59 58 58 58 57 57 57 57 57 57 57 57 57 56 52 50 54 54 48 56 57 57 62 64 59 64 70 62 58 51 52 51 45 52 54 54 51 52 48 46 52 55 53
56 56 56 57 56 59 58 58 57 57 57 57 57 56 56 57 55 52 50 53 61 57 45 54 57 56 59 63 58 59 66 61 54 51 50 47 52 57 54 51 51 48 46 46 50 52 50
55 55 55 56 56 56 58 57 57 57 56 56 56 56 55 55 52 52 49 58 59 56 40 49 53 57 61 62 57 66 68 63 54 52 51 49 55 54 51 50 52 45 53 51 49 47 41
55 55 55 55 56 55 55 57 57 56 56 56 56 56 55 55 51 49 57 59 58 54 30 54 54 67 61 60 61 61 68 63 54 53 52 49 50 50 49 52 55 51 54 51 49 45 43
54 55 55 55 55 55 54 55 56 56 56 56 56 55 55 53 53 53 58 58 55 42 30 50 58 55 55 57 57 59 62 64 60 53 51 51 54 54 54 56 55 56 52 49 46 43 36
54 54 54 54 54 54 54 54 56 56 55 55 55 55 54 57 52 54 58 54 42 32 52 49 51 55 52 51 55 56 54 52 49 43 42 48 51 54 56 51 53 51 45 34 34 32 34
54 54 54 54 54 54 54 54 54 55 55 55 55 54 54 57 57 53 55 46 33 42 45 55 54 52 49 52 52 53 51 47 49 48 42 42 39 51 55 54 49 47 46 34 31 29 35
54 54 54 54 54 54 54 54 53 54 54 54 53 48 50 55 56 55 48 37 40 44 52 51 52 47 47 51 51 51 48 47 51 52 45 40 43 51 54 54 53 48 43 48 36 34 29
54 53 53 53 53 53 53 54 53 54 54 53 47 45 47 57 56 51 42 41 47 53 55 54 46 49 43 46 48 47 46 52 52 54 54 49 41 49 53 54 54 50 53 41 38 32 30
53 53 53 53 53 52 53 53 53 53 54 53 46 41 49 56 54 45 38 40 49 56 56 51 47 46 48 46 48 45 48 52 55 52 53 49 47 44 49 48 48 46 44 43 43 36 32
52 52 52 53 52 52 52 53 53 52 53 50 44 34 51 54 43 44 41 43 50 53 56 52 50 49 48 48 46 47 48 54 56 54 50 50 45 38 46 51 52 49 48 45 34 36 33
52 52 52 52 52 52 52 52 52 52 53 47 40 42 52 53 37 38 46 47 48 50 50 50 49 51 51 47 44 48 48 55 54 54 50 50 41 35 41 45 48 46 48 46 42 36 34
52 52 51 52 51 52 52 52 53 51 53 47 41 34 43 45 49 42 42 43 42 52 50 51 49 50 49 47 49 46 49 52 53 54 51 53 43 41 38 42 46 41 46 45 43 32 35
51 51 51 51 51 51 52 52 52 51 52 46 41 38 44 36 39 42 44 44 41 42 51 51 46 48 47 44 45 44 48 49 51 50 51 51 42 43 44 46 47 46 46 45 43 43 39
51 51 50 50 50 51 51 52 51 51 52 43 38 38 42 39 43 41 42 42 41 45 46 45 45 48 48 43 48 45 48 47 48 48 48 48 41 41 38 44 44 42 46 44 44 43 43
51 51 50 50 50 50 51 51 51 51 51 41 44 44 43 42 41 38 40 43 43 47 50 51 50 49 44 49 55 55 54 53 51 46 45 45 40 36 36 38 40 34 41 45 45 45 47
50 51 50 50 50 50 51 51 51 51 51 45 45 44 41 35 41 41 43 45 45 47 45 52 52 48 52 58 55 52 50 49 50 47 48 41 39 34 29 31 26 44 46 47 45 46 47
50 51 50 50 49 50 50 50 50 50 52 45 44 43 40 30 41 43 45 44 47 49 48 50 53 57 57 54 46 41 38 39 41 45 44 44 37 32 30 29 37 42 45 45 44 44 47
50 50 50 49 49 49 50 50 50 51 51 46 45 44 42 39 39 47 45 47 42 43 43 46 55 56 54 44 37 35 33 39 38 41 45 43 39 36 27 27 25 40 47 50 49 37 47
50 49 49 48 49 50 49 50 51 50 51 45 44 45 41 39 45 47 44 43 48 45 40 44 48 47 50 32 32 32 34 43 35 36 34 32 31 30 22 25 33 44 48 50 37 39 47
48 48 48 48 49 49 49 50 50 50 50 45 43 46 41 41 43 48 47 45 47 48 39 43 45 45 38 37 36 34 30 37 36 40 38 37 32 27 26 24 30 48 47 43 45 43 46
47 47 48 48 49 49 49 50 50 49 50 47 40 46 47 41 43 47 47 49 48 50 49 45 45 45 47 40 36 34 32 29 36 33 42 38 41 36 38 38 46 46 47 48 47 46 46

GFSGBSN_sfc_temp_045.txt.gz
Temp
60 61 60 60 61 61 61 61 60 59 59 59 59 59 60 61 61 60 59 58 58 58 58 58 59 59 57 58 62 68 66 66 67 69 69 68 67 65 62 63 63 61 65 67 68 64 64
60 59 60 59 60 60 61 61 60 58 58 58 58 59 59 60 60 59 59 58 57 57 57 58 59 58 56 55 72 70 67 67 70 70 69 69 69 69 65 63 63 66 64 64 64 63 66
60 60 59 59 59 60 60 59 59 58 58 58 58 58 58 59 59 59 58 58 57 57 57 58 58 56 53 60 69 69 70 71 70 71 69 70 72 69 68 63 67 66 61 64 64 64 62
59 59 60 59 58 58 58 59 59 59 58 58 58 58 57 58 58 58 57 57 56 57 57 57 58 54 53 69 68 67 69 70 71 71 72 73 73 69 66 67 65 61 61 57 63 63 63
58 59 59 58 59 58 58 58 58 59 59 58 57 57 57 56 57 56 56 56 56 57 57 57 53 53 55 69 66 72 72 71 69 70 71 74 71 64 65 59 57 56 54 54 58 64 61
58 58 58 58 57 58 58 57 57 57 58 57 57 57 57 56 56 56 55 56 57 56 56 58 57 51 61 65 70 73 70 72 71 67 68 67 62 61 58 58 48 52 53 54 55 61 61
58 58 58 58 58 57 59 58 57 57 57 58 58 57 56 56 57 56 55 55 54 52 52 55 57 57 62 68 70 70 72 71 70 67 59 61 59 54 57 56 58 57 55 55 58 61 61
57 57 57 57 57 57 57 58 57 57 57 57 57 57 56 56 56 55 55 52 55 56 48 57 57 58 63 67 60 66 73 66 64 58 59 58 53 59 59 57 57 56 54 54 58 61 59
56 56 56 57 57 57 57 57 58 57 57 57 57 57 56 55 55 54 53 54 61 60 47 54 57 57 60 64 59 62 69 65 61 55 56 53 58 59 58 57 55 56 54 54 55 58 58
55 55 56 56 56 56 57 57 56 57 56 56 56 56 55 55 52 54 51 59 60 59 43 50 54 58 61 63 59 68 70 68 60 57 55 56 59 57 57 56 57 51 59 57 56 55 51
55 55 55 55 55 55 55 56 55 56 57 56 56 56 55 55 52 51 57 60 57 55 32 55 54 68 62 61 63 62 69 67 57 56 58 55 56 55 54 56 58 56 58 57 56 54 51
55 55 55 55 55 55 55 55 55 54 56 56 56 56 55 53 53 55 58 60 56 42 31 51 57 54 54 59 61 63 65 67 64 57 57 57 61 60 59 60 59 60 57 54 52 52 45
54 54 55 54 54 54 54 54 54 54 54 55 55 55 54 57 52 56 59 55 41 34 52 50 51 55 54 54 56 58 56 55 54 48 48 54 56 61 61 57 59 58 54 45 41 41 41
54 54 54 54 54 54 54 54 54 54 54 55 55 54 54 56 58 57 56 45 33 43 46 56 55 53 50 54 55 56 53 52 55 54 48 48 46 56 60 59 56 53 54 44 37 37 43
54 54 54 54 54 54 54 54 54 54 54 54 54 50 49 54 57 55 48 36 40 45 51 51 54 49 49 53 55 54 51 53 56 56 50 45 47 58 58 61 61 54 50 54 43 39 40
54 53 54 53 53 53 53 53 53 54 53 53 47 46 48 54 56 51 42 40 45 53 56 54 47 51 45 49 50 52 48 54 54 57 60 53 47 55 57 61 59 57 58 48 45 37 35
53 53 53 53 53 53 53 53 53 53 53 53 45 40 50 55 53 45 37 42 48 55 57 52 48 47 50 48 50 48 50 55 57 55 59 54 53 50 55 54 54 52 51 48 50 45 39
52 53 53 53 53 53 52 52 53 53 53 49 43 34 49 54 40 43 39 46 49 52 56 54 53 51 50 50 47 48 50 55 58 57 53 56 50 44 51 56 58 56 54 52 44 42 41
52 52 52 53 53 52 52 52 52 53 52 45 38 41 49 50 34 37 45 47 50 49 51 51 50 52 54 50 46 50 50 56 55 56 53 54 47 43 47 52 55 53 53 51 47 44 41
51 52 52 52 52 52 52 51 52 52 53 46 39 32 41 43 47 43 41 42 44 50 49 53 51 53 52 50 51 50 50 54 54 57 51 56 48 47 43 48 52 47 50 51 51 42 44
51 51 51 51 52 52 51 51 51 52 52 45 40 37 43 34 37 41 45 44 42 42 50 51 48 50 49 45 47 47 52 52 54 51 54 56 47 47 49 51 52 52 51 49 50 50 46
50 50 50 51 51 52 51 50 51 52 51 42 37 38 42 42 43 40 43 41 42 45 47 46 46 48 50 46 49 47 51 52 51 51 51 52 47 46 46 48 50 49 51 50 50 50 50
50 50 50 50 51 52 51 50 50 51 50 41 43 44 45 42 40 38 40 43 44 47 49 53 51 48 45 50 54 55 55 55 56 52 48 48 44 43 41 44 46 39 46 50 51 52 53
49 49 50 50 51 51 50 50 50 51 50 45 45 44 39 35 39 39 42 45 44 46 45 50 52 49 53 58 57 56 54 52 51 51 53 46 44 41 37 37 33 51 53 54 52 52 54
48 48 49 51 50 51 50 49 50 51 52 44 44 42 40 35 42 42 43 43 46 49 47 50 52 55 56 55 46 43 41 42 44 47 48 50 42 36 36 38 44 49 51 50 49 54 55
49 49 50 50 50 50 49 49 50 51 51 47 43 44 43 38 38 47 43 45 42 43 43 47 54 56 53 44 40 36 36 41 41 43 47 44 45 44 34 35 34 47 54 55 56 44 55
49 50 50 50 49 49 49 49 50 51 51 48 43 45 43 39 43 46 44 43 48 45 41 45 48 48 53 37 35 35 37 46 39 38 37 38 37 38 33 36 41 50 54 55 44 49 53
49 49 50 49 49 48 49 49 50 51 51 49 42 46 42 39 42 45 46 46 48 48 41 44 45 45 41 37 37 37 35 42 41 44 41 41 37 35 35 34 37 52 51 48 54 53 53
49 49 49 48 48 48 48 49 50 50 51 48 41 45 46 39 40 46 48 50 49 56 49 49 47 46 47 42 39 38 36 35 41 39 45 41 45 43 45 45 53 53 57 56 54 55 52

GFSGBSN_sfc_temp_048.txt.gz
Temp
61 60 60 60 60 60 60 60 60 60 59 58 58 59 60 60 60 60 59 58 58 58 58 59 59 59 65 68 73 80 67 68 78 79 80 78 75 74 71 73 73 70 74 76 76 72 73
59 59 60 60 60 60 60 60 59 59 59 58 58 58 59 59 60 59 59 58 58 58 58 58 59 58 64 62 80 79 78 78 82 81 80 79 77 78 73 72 71 75 74 74 73 70 72
59 59 59 59 59 59 59 59 59 59 59 59 58 58 58 58 58 58 58 58 58 57 58 58 58 63 61 67 80 81 80 81 83 82 78 80 80 76 76 72 76 75 69 73 73 73 70
58 58 58 58 58 58 58 58 58 59 59 59 59 58 57 57 57 57 58 57 57 57 58 58 58 63 63 78 82 77 81 80 82 82 80 82 81 77 74 77 74 70 70 66 71 72 71
58 58 58 58 58 58 57 58 58 59 59 59 59 58 57 56 56 56 57 57 57 57 58 58 60 61 65 71 72 81 82 78 80 79 80 80 79 74 73 69 66 68 62 63 66 73 71
58 58 58 58 58 58 58 57 58 58 58 58 58 58 57 56 56 56 56 56 59 57 61 64 65 58 69 72 77 79 83 82 77 76 74 74 75 70 71 68 57 61 62 65 64 69 70
58 58 58 58 58 58 58 58 56 57 57 57 58 58 57 56 56 56 59 68 64 60 60 65 66 66 70 77 77 78 80 77 78 75 67 71 66 63 66 68 68 66 64 64 68 70 67
57 57 57 58 58 58 58 58 57 55 57 58 58 57 57 57 56 56 61 60 63 62 57 68 66 68 72 73 67 75 82 73 71 66 69 65 62 68 68 66 64 64 63 63 67 67 66
56 56 57 57 57 57 58 58 57 57 55 57 57 57 57 56 56 57 63 63 69 68 57 63 68 67 69 70 67 73 76 76 70 66 66 64 66 67 66 65 62 63 63 62 62 66 68
55 55 55 56 57 57 57 57 57 57 55 56 56 56 56 55 54 63 60 68 69 66 51 58 59 66 68 71 64 80 80 76 69 65 67 66 71 65 65 64 66 59 68 65 63 62 57
55 55 55 55 55 55 55 56 56 56 56 55 56 56 55 55 58 58 64 67 66 62 39 63 61 74 69 67 69 71 81 75 67 65 66 63 64 63 62 64 67 62 67 65 64 63 61
55 55 55 55 55 55 55 55 55 55 55 55 55 55 55 56 55 63 67 67 63 48 38 57 62 59 59 64 67 71 70 76 77 68 68 68 70 69 68 67 68 68 64 64 63 62 50
55 55 55 55 55 55 55 55 55 55 55 54 54 55 55 61 55 66 65 61 48 41 60 56 57 60 61 59 63 66 64 62 62 55 56 64 65 70 69 64 67 66 62 50 47 48 47
54 54 54 54 54 54 54 54 54 54 54 54 54 54 55 57 63 64 57 47 40 53 54 62 60 60 57 61 63 64 63 60 67 66 61 56 52 64 70 66 63 63 62 51 40 43 50
54 54 54 54 54 54 54 54 54 54 54 54 54 52 53 53 58 56 48 38 46 53 60 57 60 55 55 59 62 62 61 61 66 67 58 56 57 67 67 69 69 61 56 65 53 49 48
54 54 54 54 54 54 54 54 53 54 53 53 51 46 51 55 57 48 41 42 52 62 62 61 53 58 52 55 54 58 59 65 64 69 72 62 54 63 64 68 66 64 68 53 56 42 41
53 53 53 53 53 53 53 53 53 53 53 53 48 40 53 60 54 41 35 46 55 63 64 58 57 57 57 55 57 55 59 62 68 66 71 67 62 56 62 60 61 60 58 59 60 55 46
53 53 53 53 53 53 53 53 53 53 53 51 45 35 57 58 38 40 35 49 55 59 63 59 59 58 55 57 56 55 57 63 69 70 60 67 61 54 58 65 67 68 63 62 51 50 53
52 52 52 53 53 53 53 53 53 52 52 47 38 39 53 52 33 35 47 48 54 56 59 57 56 59 59 55 52 58 60 67 67 67 64 64 58 50 53 58 63 61 64 64 61 56 52
51 51 52 52 51 52 53 52 52 52 52 49 39 33 40 43 53 46 43 43 47 57 58 60 59 60 57 55 57 52 57 58 63 68 55 62 62 56 49 56 63 56 60 63 60 51 53
51 51 51 52 52 51 52 52 52 51 51 47 39 39 43 34 40 49 50 48 46 47 57 60 56 57 55 51 53 51 56 56 58 54 63 64 56 59 62 64 64 62 62 62 59 60 54
51 51 51 50 51 52 52 52 52 51 51 43 35 42 49 47 46 45 47 44 47 51 53 52 53 57 58 54 55 49 55 55 58 58 61 64 56 59 55 62 61 58 62 64 62 63 63
51 50 50 50 51 51 51 51 51 51 49 41 44 55 52 46 45 41 44 48 48 53 56 59 57 55 53 57 60 58 59 58 60 59 57 57 57 53 49 57 56 44 55 61 63 64 63
50 49 49 49 50 51 51 51 51 50 49 48 52 53 44 41 43 42 45 49 49 52 51 57 59 53 60 63 62 58 59 57 59 60 63 56 55 54 48 42 35 60 65 67 64 66 69
49 50 50 50 49 51 51 51 51 50 50 48 52 49 46 38 47 47 45 47 51 54 52 55 57 60 62 59 52 47 45 48 53 58 58 60 56 48 42 45 55 55 58 60 59 62 71
49 49 50 50 50 50 50 51 50 49 50 49 51 55 50 44 45 53 47 47 46 48 51 54 61 61 59 52 49 42 41 45 48 49 54 56 56 52 44 42 37 58 67 69 66 54 71
49 48 49 49 49 49 50 50 49 49 50 50 49 54 51 45 53 54 46 44 51 50 49 53 53 52 58 47 40 42 43 53 42 43 39 44 45 43 46 44 53 64 65 67 51 56 70
49 48 48 49 49 49 50 50 49 49 50 50 47 53 51 46 46 51 55 51 52 51 48 54 51 50 48 43 44 45 43 49 50 53 48 46 44 41 48 40 40 63 61 58 67 65 69
49 49 49 49 49 49 49 49 49 49 51 51 42 51 54 49 39 47 50 53 51 62 58 56 55 54 55 49 49 51 42 42 51 44 57 47 55 53 53 54 66 64 69 70 71 71 66

GFSGBSN_sfc_temp_051.txt.gz
Temp
60 60 60 60 60 60 61 61 60 59 59 59 59 59 59 60 60 60 59 59 59 59 59 59 60 59 68 73 77 84 68 69 80 83 83 82 80 80 75 78 78 75 78 80 82 79 78
59 59 60 59 59 60 61 60 59 59 59 59 59 58 58 59 59 59 59 59 59 59 59 59 60 58 69 65 89 88 86 81 86 85 84 85 82 83 78 77 76 80 79 79 79 78 78
59 59 59 59 59 59 58 59 59 59 59 59 59 59 58 58 58 58 58 58 58 58 58 59 59 67 66 71 89 90 86 86 89 87 84 87 86 81 81 76 82 79 73 78 78 78 77
59 59 59 58 58 58 58 57 58 59 59 59 59 59 58 57 57 57 57 57 57 58 58 59 59 69 64 86 90 86 88 86 89 90 87 88 87 81 79 83 78 74 75 66 57 78 79
59 59 59 59 58 58 58 58 57 58 59 59 59 59 58 57 56 56 56 57 57 58 59 59 64 67 67 74 77 86 88 84 85 86 86 86 84 79 79 71 69 72 64 65 64 79 77
59 59 59 58 58 58 58 58 58 57 57 58 58 58 58 57 56 56 56 56 61 58 61 70 72 63 72 75 83 86 88 86 81 81 78 77 77 72 74 71 59 64 65 69 68 66 75
58 58 58 58 58 58 58 58 58 57 56 57 58 58 58 57 57 56 58 70 65 62 67 67 71 72 76 83 84 83 87 81 82 78 68 75 69 65 71 73 72 70 68 68 71 75 71
57 57 58 58 58 58 58 58 58 57 57 56 57 57 57 57 57 56 60 65 69 66 59 73 72 74 79 79 73 80 86 74 73 67 74 71 64 74 74 72 69 68 66 66 70 74 71
56 56 56 57 57 57 58 58 57 57 56 56 55 57 57 57 56 57 63 68 76 72 59 67 74 73 75 78 71 77 81 77 72 68 70 66 71 74 70 69 66 67 65 64 65 66 74
56 55 56 56 56 57 57 57 57 57 56 56 55 56 56 56 54 64 65 74 76 71 53 62 66 72 76 77 68 83 85 79 74 68 71 69 76 70 68 67 70 62 72 68 67 65 58
55 55 55 55 56 56 56 56 56 56 56 56 55 55 55 54 58 63 70 75 73 65 40 68 69 80 77 69 75 74 86 79 69 70 71 66 69 67 65 68 72 66 71 69 68 65 63
55 55 55 55 55 55 55 55 55 55 56 55 55 55 55 57 58 60 61 72 67 50 40 61 67 63 64 67 71 79 76 81 80 72 72 71 79 74 72 74 73 74 67 67 67 64 52
54 55 55 55 55 55 55 55 55 55 55 55 55 55 54 64 58 65 61 55 49 43 65 61 61 64 63 62 66 71 68 66 63 57 59 67 69 74 74 67 71 70 63 50 48 50 48
54 54 54 55 55 55 55 54 54 54 54 54 54 54 55 61 67 63 52 44 41 55 58 66 66 64 58 65 65 67 65 63 69 68 63 57 55 68 73 69 65 65 64 52 40 44 50
54 54 54 54 54 55 54 54 54 54 54 54 54 57 51 59 64 62 43 35 46 57 66 63 63 57 58 65 65 65 64 64 67 70 61 59 60 75 74 74 72 65 59 69 56 57 50
54 54 54 54 54 54 54 54 54 54 54 53 52 55 55 57 62 54 39 36 50 63 67 65 57 61 56 61 61 63 63 69 67 72 75 67 57 69 70 74 73 69 71 57 58 43 41
54 54 54 54 54 54 54 54 54 54 53 53 48 42 58 60 57 43 33 43 54 64 68 63 60 60 62 61 63 62 62 69 71 70 73 71 64 62 67 63 63 64 61 64 63 57 44
53 53 53 53 54 53 54 54 53 53 53 50 44 35 57 60 38 39 36 49 56 60 65 64 65 63 63 63 61 62 61 67 72 71 62 70 64 56 60 71 74 70 65 64 53 52 57
52 52 52 53 53 52 52 53 53 53 52 46 39 42 56 54 32 35 44 48 56 56 59 59 59 63 67 62 57 62 64 72 71 68 64 68 61 51 56 63 68 64 67 68 66 63 54
52 52 52 52 53 53 53 53 53 52 52 47 40 33 40 43 51 45 44 46 47 59 59 62 59 65 63 59 64 59 62 65 70 69 60 62 63 57 51 58 64 59 63 67 64 53 54
51 51 51 51 52 52 52 53 53 53 52 46 40 39 43 33 39 48 50 50 49 49 58 62 55 53 60 56 59 58 62 59 63 59 65 64 57 61 63 66 67 65 64 65 62 63 55
50 50 51 51 51 51 52 52 52 52 51 43 34 44 49 48 46 45 47 47 50 54 56 54 54 52 58 57 60 57 60 59 59 62 63 67 57 60 57 65 65 61 66 66 67 66 65
50 50 50 50 51 51 51 52 52 52 50 42 42 55 53 46 44 44 45 48 50 57 58 61 60 58 52 60 62 63 62 61 61 59 60 58 58 56 49 61 61 51 61 64 66 69 67
50 50 50 51 51 51 51 52 51 52 51 43 45 56 46 43 42 46 49 51 51 56 53 60 63 59 62 67 66 63 59 60 59 59 63 57 58 56 48 45 38 59 71 70 66 68 72
50 51 51 51 51 51 51 51 51 50 51 45 54 51 48 40 49 47 49 51 54 57 54 58 63 67 70 62 53 49 46 46 51 56 58 63 57 49 44 46 55 62 65 65 64 64 74
50 50 50 50 50 49 49 50 50 50 51 48 57 58 51 44 47 53 49 53 49 52 53 53 65 68 64 53 49 43 40 47 46 45 57 61 60 50 48 43 39 57 69 75 74 56 74
49 49 49 50 49 49 49 49 50 51 51 48 49 56 49 44 54 53 47 50 56 54 48 53 58 56 61 46 40 43 44 56 46 41 41 47 49 43 46 45 54 67 72 76 53 56 75
49 48 48 49 49 49 49 49 50 50 50 48 47 54 50 47 51 52 54 51 53 54 48 53 53 51 49 43 45 47 46 51 52 56 48 45 45 42 47 44 41 68 68 60 68 74 75
48 48 48 48 48 48 48 49 50 50 50 51 45 52 56 48 43 52 55 59 56 62 59 59 52 54 56 52 53 53 47 47 52 45 61 47 53 50 54 55 67 67 69 74 78 76 75

GFSGBSN_sfc_temp_054.txt.gz
Temp
60 60 60 60 60 59 60 61 60 60 60 59 60 59 59 60 60 59 59 58 59 59 60 60 60 60 65 70 74 80 69 69 79 80 80 80 78 77 72 77 79 74 77 80 82 81 79
59 59 59 59 59 60 60 59 59 59 59 60 59 60 60 59 59 58 58 58 58 58 59 59 60 58 65 60 89 90 85 79 84 81 82 83 80 83 77 76 75 79 78 78 80 79 79
60 59 59 59 58 58 59 59 58 58 59 60 60 59 59 59 58 58 58 57 57 58 59 59 60 65 63 64 89 91 88 84 86 86 81 86 86 80 80 74 81 79 72 76 77 78 75
59 59 59 59 58 58 58 58 58 58 58 59 59 60 59 58 58 57 57 57 57 58 58 59 60 64 59 84 89 86 89 86 89 90 87 89 88 80 76 80 76 72 72 64 74 75 76
59 59 59 59 58 58 58 57 57 58 58 58 58 58 59 58 57 57 56 56 57 58 59 60 60 63 62 78 78 85 89 82 85 86 87 88 83 75 76 69 65 69 60 65 66 74 73
59 59 59 59 58 58 58 58 57 57 57 57 57 57 58 58 58 56 56 56 60 59 62 68 69 62 69 72 83 84 88 86 81 80 78 76 74 68 69 66 54 61 63 66 66 72 74
58 58 58 58 58 58 58 58 58 57 57 57 57 57 57 57 57 56 58 65 64 58 62 63 66 66 75 82 87 82 86 82 82 76 65 72 64 60 66 69 70 69 66 65 68 73 70
57 57 57 58 58 58 58 58 57 57 57 57 56 56 57 57 57 56 58 58 70 69 57 70 68 69 75 80 72 78 86 73 71 65 70 67 60 70 74 73 69 67 64 64 71 73 70
56 56 56 57 57 57 57 58 57 57 57 57 56 56 56 57 56 56 54 58 73 74 57 63 71 70 72 75 70 74 81 75 69 65 67 62 68 74 72 69 66 66 63 64 63 66 71
55 55 55 56 56 56 56 57 57 57 57 56 55 55 55 55 52 62 60 71 71 72 48 58 67 71 74 75 66 80 84 76 71 64 67 67 74 71 68 66 68 60 71 69 66 63 55
55 55 55 55 55 55 55 56 56 56 56 56 55 55 55 54 58 59 65 65 74 64 34 69 70 83 78 68 72 72 82 76 66 67 69 64 68 67 64 66 71 65 71 68 67 63 61
55 55 55 55 55 55 55 55 55 55 55 55 55 55 54 54 57 61 67 62 65 46 36 61 68 64 65 68 69 75 73 78 77 69 71 69 78 73 70 73 73 74 68 67 66 62 49
54 55 55 55 55 55 55 55 55 55 55 55 55 55 55 60 53 66 63 53 44 38 62 60 62 65 62 62 63 66 65 63 61 55 56 65 67 74 75 67 72 69 62 49 45 46 45
54 54 54 54 54 55 55 55 54 54 54 55 54 54 55 60 62 61 53 43 37 51 53 69 68 65 58 63 62 62 62 59 67 65 59 56 52 67 73 68 64 63 61 50 38 39 46
54 54 54 54 54 54 54 54 54 54 54 54 54 53 53 58 60 58 44 33 41 51 62 59 64 59 58 63 64 60 62 61 66 66 57 55 56 72 72 73 71 63 56 66 56 53 46
54 54 54 54 54 54 54 54 54 54 54 54 49 49 51 59 60 52 38 34 46 58 63 63 54 62 56 59 59 59 60 67 65 69 71 63 54 68 71 74 72 67 70 54 57 41 39
53 53 54 54 54 54 54 54 54 54 54 53 47 40 55 59 55 42 33 39 48 59 62 57 55 56 60 60 62 59 60 66 68 69 71 67 60 61 69 64 62 63 60 61 61 56 43
52 53 53 53 53 53 54 54 53 53 53 50 44 35 54 56 37 39 38 45 51 55 60 59 60 58 58 62 58 60 59 65 73 71 63 67 61 53 60 70 72 69 63 62 50 50 54
52 52 53 53 53 53 53 53 53 53 53 47 39 39 53 53 32 34 43 46 51 52 55 57 56 60 61 57 50 59 60 71 71 69 65 65 57 49 53 61 67 62 65 65 63 60 51
52 52 51 52 52 53 53 52 52 53 53 48 39 33 41 43 48 41 41 42 44 53 53 58 59 62 58 52 57 53 58 68 69 69 58 63 60 55 47 51 61 58 63 64 61 49 51
51 51 51 52 52 52 52 52 52 52 52 48 39 35 44 32 36 44 46 47 44 45 53 57 55 57 56 49 48 47 56 61 65 60 66 63 54 58 61 63 64 62 62 63 60 61 50
51 51 51 51 51 51 52 52 52 52 52 45 33 37 48 46 44 42 43 44 45 50 51 49 51 57 59 52 51 46 48 59 55 64 62 64 53 57 54 62 61 59 64 64 64 64 64
50 51 50 51 51 51 51 51 52 52 51 44 41 48 48 44 42 40 40 45 47 51 54 57 57 56 55 57 59 56 48 53 58 61 58 57 56 53 46 58 57 47 59 63 65 67 65
49 50 50 50 50 51 51 51 51 52 51 45 41 47 38 36 41 43 46 48 48 51 49 57 60 56 63 68 57 55 52 48 48 60 62 57 55 53 44 44 37 58 69 68 64 66 70
49 50 50 50 50 50 50 50 50 51 52 46 45 46 43 35 47 46 47 49 50 52 52 55 61 66 69 60 49 39 37 37 44 58 57 59 52 45 41 42 52 59 63 63 60 60 70
49 50 50 50 50 50 50 50 50 51 52 48 46 54 47 40 42 52 48 50 46 47 48 54 62 67 64 55 47 35 31 38 38 48 59 57 54 45 44 39 35 52 65 72 70 51 70
50 50 50 50 50 50 50 50 50 51 51 48 46 53 48 39 49 52 47 47 53 50 48 53 55 55 61 49 41 40 40 52 41 40 39 41 40 38 41 40 49 64 67 70 49 51 69
49 49 49 49 49 50 50 50 50 51 51 48 45 53 48 41 49 53 49 47 51 51 45 54 50 50 42 42 43 44 42 47 48 53 46 41 37 38 43 39 37 67 66 57 62 66 71
49 49 48 48 48 49 49 49 50 51 51 49 44 53 54 46 44 52 53 52 53 57 52 55 52 52 50 41 49 49 43 45 49 41 58 42 48 43 50 50 60 62 64 68 68 68 69

GFSGBSN_sfc_temp_057.txt.gz
Temp
60 60 60 60 60 60 60 60 59 58 59 60 60 59 60 60 60 59 58 57 58 58 59 59 60 60 57 58 63 72 68 68 71 73 71 70 68 66 62 65 67 64 67 72 72 73 68
60 60 59 59 59 59 59 59 59 58 58 58 59 60 60 59 60 59 58 57 57 57 58 59 60 59 55 50 76 76 73 71 73 71 71 72 71 73 68 67 63 69 69 68 72 71 69
60 60 59 59 59 59 59 58 58 58 58 58 58 59 60 60 59 59 58 57 57 57 57 58 59 60 54 54 73 75 78 74 74 74 70 75 76 69 69 64 71 70 62 66 68 68 65
59 60 59 59 58 58 58 58 58 58 58 58 58 58 57 59 59 58 58 57 56 57 57 58 59 56 50 73 73 72 75 73 79 78 78 79 78 71 66 69 67 62 60 51 64 68 65
59 59 59 59 58 58 57 57 57 57 57 57 57 57 57 57 58 57 57 56 57 58 58 58 55 52 51 74 68 74 77 75 78 79 77 84 74 64 65 56 52 55 48 53 59 68 64
59 59 59 59 58 58 58 58 57 57 57 57 57 57 57 56 56 56 55 56 58 58 60 63 62 51 61 65 75 77 78 78 74 73 70 68 62 56 54 50 43 50 54 53 54 62 61
58 58 58 58 58 58 58 58 58 57 57 57 57 57 56 56 56 56 54 53 52 50 55 53 56 57 66 75 77 75 77 74 73 67 57 62 52 49 52 58 61 60 59 54 57 64 63
57 57 57 57 57 58 58 58 57 57 57 57 56 56 56 56 56 56 52 48 56 55 47 62 61 62 68 71 63 69 78 66 64 57 61 57 51 60 64 64 63 63 57 54 61 68 61
56 56 56 57 57 57 57 57 57 56 56 56 56 56 55 55 55 52 50 52 62 58 46 55 63 62 64 68 61 64 72 69 62 58 59 53 59 66 64 62 61 60 56 54 56 59 59
55 55 55 56 56 56 56 56 56 56 56 56 55 55 55 55 49 52 50 61 61 58 38 49 60 62 67 68 59 72 74 70 64 58 60 58 66 64 62 61 62 54 64 63 61 54 45
55 55 55 55 55 55 55 55 56 56 56 56 55 55 54 55 48 47 59 60 61 56 24 58 62 75 71 61 65 66 75 67 60 61 60 56 60 60 59 61 65 59 66 61 60 52 48
54 54 54 55 55 55 54 55 55 55 55 55 55 55 54 51 48 51 59 58 53 39 28 53 64 62 60 61 63 69 66 70 70 63 63 61 69 65 64 68 67 68 61 60 56 51 39
54 54 54 54 54 54 54 54 54 54 55 55 54 55 53 55 45 55 58 49 36 29 56 53 55 60 58 57 58 61 59 57 52 48 50 58 61 67 70 61 65 61 55 39 35 35 34
54 54 54 54 54 54 54 54 54 54 54 54 54 53 53 54 54 56 51 41 29 44 46 61 57 58 53 57 57 58 55 51 59 57 50 48 45 61 67 63 59 57 53 38 33 32 37
53 53 53 54 54 54 54 54 54 54 54 54 53 50 48 51 52 53 43 31 33 43 54 52 55 50 52 57 56 55 54 53 57 60 50 48 50 66 68 67 64 57 49 57 46 48 37
53 53 53 53 53 54 54 54 54 54 54 53 48 46 47 55 51 46 37 33 39 50 53 52 44 52 45 53 52 51 51 58 56 62 64 55 46 62 66 67 64 60 63 47 47 36 33
52 52 53 53 53 53 54 54 54 54 53 53 46 41 50 55 50 41 32 35 43 51 54 49 47 46 48 48 51 47 52 59 60 62 64 61 52 53 63 59 56 54 54 55 52 45 35
52 52 52 52 53 53 53 54 54 54 53 50 44 35 51 54 36 38 34 39 46 49 53 50 50 49 47 48 48 50 47 54 64 63 56 60 53 46 53 64 68 63 56 54 40 42 43
51 51 52 52 52 53 53 53 53 53 53 48 40 39 50 50 31 32 40 39 43 43 47 47 47 51 52 48 43 48 52 58 61 58 58 58 52 42 48 55 63 58 59 60 56 49 43
51 51 51 52 52 52 52 52 53 53 53 48 39 32 39 42 43 37 36 36 37 47 45 48 48 51 48 45 52 47 49 56 55 54 58 61 53 50 41 46 55 51 58 59 55 39 44
50 50 51 51 52 52 52 52 52 53 52 48 37 34 39 33 34 37 39 41 38 38 47 48 44 45 45 41 46 46 51 49 53 55 58 58 50 53 55 57 59 57 56 57 55 55 46
50 50 50 51 51 51 51 52 52 52 53 46 32 36 41 39 41 37 38 37 37 43 44 43 42 45 47 43 46 45 48 47 45 48 49 58 45 50 49 56 56 54 56 57 58 58 57
50 50 50 50 51 51 51 52 52 52 51 44 41 41 43 40 38 36 35 37 39 43 46 50 48 45 43 47 52 49 48 48 47 45 43 47 46 43 41 52 52 42 51 56 56 59 59
50 50 50 50 50 51 51 51 51 52 51 45 41 43 37 34 37 36 40 40 40 44 42 48 51 47 51 55 52 49 48 49 49 48 48 40 44 42 34 39 34 51 60 60 58 61 62
49 50 50 50 50 50 50 50 50 51 51 46 42 42 40 33 39 40 40 41 43 45 44 47 51 55 56 53 45 38 35 39 43 48 47 46 43 35 36 38 45 53 58 55 54 53 63
49 49 50 50 50 50 50 50 50 50 51 47 45 45 42 35 35 46 41 43 39 40 41 45 53 54 52 47 39 34 30 37 35 40 47 41 45 37 32 32 32 45 57 63 62 44 63
49 49 49 49 49 49 50 50 50 50 51 48 45 47 42 34 43 46 42 41 48 45 42 45 47 46 50 37 32 33 33 44 34 33 34 33 33 32 32 32 38 54 61 63 44 43 62
49 49 49 49 49 50 50 50 49 50 50 48 45 48 43 37 42 48 49 41 46 46 40 43 43 44 41 34 34 32 29 40 41 45 40 36 33 31 34 30 30 55 58 51 53 60 62
49 49 49 48 49 49 49 49 50 49 50 49 43 48 48 42 42 46 48 50 49 49 46 46 45 45 43 37 36 37 31 34 38 34 50 36 42 38 41 37 51 54 54 56 55 54 62

GFSGBSN_sfc_temp_060.txt.gz
Temp
60 60 60 60 60 60 60 60 59 58 58 58 58 59 60 60 60 59 59 58 57 58 58 59 59 60 56 55 58 72 68 68 69 71 68 66 62 61 57 60 61 59 63 67 68 65 62
60 60 60 59 59 59 59 59 59 58 58 58 58 58 59 60 60 59 59 58 57 57 57 58 59 59 52 47 72 75 71 68 71 67 67 67 66 66 63 62 57 63 63 64 66 66 63
60 60 59 59 59 59 59 58 58 58 57 58 58 58 58 58 59 59 58 57 57 57 57 58 59 59 53 52 68 68 72 68 70 70 66 70 70 63 64 61 65 65 59 62 63 62 60
60 59 59 59 58 58 58 58 58 58 58 57 58 57 57 57 57 57 57 57 57 57 57 58 58 57 48 67 66 66 66 66 72 73 72 73 71 66 63 65 62 57 55 48 59 62 62
59 59 59 58 58 58 57 57 57 57 58 57 57 57 56 56 56 56 56 56 56 57 58 58 55 51 47 68 63 68 69 68 72 73 71 78 68 62 62 53 48 49 44 48 55 65 62
58 58 59 58 58 57 58 57 57 57 57 57 57 56 56 56 55 55 55 55 57 56 56 61 60 48 56 61 70 73 70 72 69 68 66 64 59 54 51 47 39 44 46 46 50 57 58
57 58 58 58 57 58 58 58 57 57 57 57 57 56 56 56 56 55 53 52 51 49 51 51 53 52 61 69 74 69 73 69 68 63 55 59 51 48 50 52 55 54 51 50 55 61 58
56 57 57 57 57 57 58 58 57 57 57 57 56 56 56 55 55 55 52 46 50 50 42 57 57 58 63 66 59 65 71 62 60 54 57 54 49 58 59 58 56 54 51 52 56 63 58
55 56 56 56 57 57 57 57 57 56 56 56 56 56 55 55 55 51 48 51 59 54 40 52 59 58 59 62 55 58 65 63 59 54 55 52 55 62 59 56 55 54 52 53 53 57 57
55 55 55 56 56 56 56 56 56 56 56 55 55 55 55 54 49 49 47 57 60 55 35 44 53 57 62 62 53 68 69 64 59 55 56 53 62 59 57 55 57 49 60 59 57 50 43
55 54 55 55 55 55 55 55 55 55 55 55 55 55 54 55 46 45 54 58 58 50 23 52 57 68 63 57 60 61 71 63 55 57 56 52 56 55 54 57 61 55 62 58 57 49 45
54 54 54 54 54 54 55 55 54 54 55 55 55 55 55 50 46 48 54 56 50 36 26 47 60 56 55 57 59 64 61 65 64 57 58 56 64 61 60 63 63 65 58 56 52 47 37
53 53 53 53 54 54 54 54 54 54 54 54 54 54 53 53 43 49 54 48 35 28 51 49 53 58 55 52 55 57 57 52 50 46 46 55 57 63 64 57 61 59 49 37 35 34 34
53 53 53 53 54 54 54 54 54 53 54 54 54 53 53 52 48 50 49 40 28 40 43 55 54 55 51 54 53 55 53 50 55 52 48 44 41 56 63 58 55 53 51 37 33 30 36
53 53 53 53 53 53 53 54 54 53 53 53 53 49 48 48 49 50 41 31 34 41 50 48 51 47 47 54 53 52 49 50 54 56 46 44 45 61 63 64 61 54 46 55 43 41 35
53 53 53 52 52 53 53 53 53 53 53 53 48 46 47 52 48 45 36 32 38 48 50 49 40 46 41 47 46 43 46 54 53 57 58 51 43 56 62 64 63 59 59 44 42 33 32
52 52 52 52 52 52 52 53 53 53 53 53 46 40 50 52 48 39 29 34 41 49 49 45 43 42 44 45 48 46 45 52 54 56 60 54 50 49 55 54 52 52 49 50 49 41 33
51 51 51 51 52 52 52 52 53 53 53 50 44 35 49 52 35 36 32 39 45 44 49 46 47 45 43 46 44 45 45 52 58 54 49 56 48 43 49 59 61 61 55 52 40 39 39
50 50 51 51 52 52 52 52 53 52 53 48 41 39 49 48 30 31 38 39 42 42 43 44 43 46 47 42 40 45 47 57 55 53 48 50 46 39 42 52 59 54 55 57 52 46 42
50 50 50 51 51 51 52 52 52 52 52 48 37 32 39 41 40 36 35 35 37 46 42 43 43 45 43 41 44 41 44 53 54 53 49 49 47 44 40 44 51 48 53 57 52 37 41
49 50 50 50 50 51 51 52 52 52 52 48 36 34 38 32 34 37 38 39 36 36 44 45 40 40 39 35 39 40 46 47 53 50 51 48 39 47 51 54 56 54 54 54 52 50 43
49 49 49 50 50 50 51 51 51 51 52 44 32 35 39 35 41 36 37 35 35 39 41 39 39 43 43 38 40 39 43 44 45 50 46 47 38 44 45 53 55 52 54 56 56 52 51
49 49 49 49 50 50 51 51 51 51 50 44 44 42 43 39 37 34 34 35 38 40 43 45 44 42 40 43 46 46 46 47 46 45 43 41 38 36 33 48 50 39 50 54 53 54 52
49 49 49 50 50 50 51 51 51 50 50 45 42 43 37 33 36 35 39 40 38 40 38 45 46 42 48 53 49 47 45 46 45 45 48 39 37 36 32 36 31 49 56 57 54 57 58
49 49 50 50 50 50 50 50 50 50 51 45 44 42 38 33 36 38 39 40 41 42 40 43 46 50 52 46 38 36 32 37 40 45 45 47 40 32 31 32 42 48 52 52 51 53 60
49 49 50 50 49 50 50 50 50 51 50 47 45 45 40 35 35 43 39 41 37 36 37 41 49 51 48 40 34 29 26 33 34 37 46 42 42 35 32 29 27 43 55 59 59 42 58
49 49 49 49 49 49 49 50 50 50 51 47 44 46 41 33 39 42 38 38 43 39 35 39 41 42 47 33 28 28 30 41 32 31 31 31 30 30 32 31 35 49 53 60 43 43 58
48 48 48 48 48 49 49 49 50 50 50 47 44 46 41 35 38 43 47 41 43 42 36 39 40 40 38 33 31 30 26 35 34 40 37 33 30 30 32 31 28 51 52 44 47 52 54
48 48 48 49 49 49 49 49 49 49 50 49 42 46 47 40 39 47 48 50 50 48 44 41 41 41 42 36 33 33 27 27 34 31 46 34 41 35 39 37 51 51 52 54 53 52 53

GFSGBSN_sfc_temp_063.txt.gz
Temp
59 60 60 59 59 59 60 60 59 58 57 57 58 58 59 59 60 59 58 57 58 58 58 58 58 59 55 50 55 68 68 68 67 68 66 64 61 59 54 56 57 56 59 62 64 63 59
59 59 59 59 59 59 59 59 58 57 57 57 57 57 57 58 58 58 58 58 57 57 57 58 58 58 54 43 67 69 67 65 67 65 64 65 63 64 58 57 55 59 60 61 63 60 59
60 60 59 59 59 59 59 58 58 58 57 57 57 57 57 57 57 57 57 57 57 57 57 58 58 56 52 49 63 64 66 64 66 67 64 66 66 60 59 57 62 61 56 57 59 58 57
59 59 59 59 58 58 57 57 57 58 57 57 57 57 56 56 56 56 56 56 56 57 57 58 58 55 46 64 60 62 60 62 67 68 67 69 68 62 59 61 59 55 52 46 55 58 59
58 58 58 58 58 57 57 57 57 57 58 57 57 56 56 55 55 55 55 55 56 57 58 57 54 52 46 64 60 65 65 63 67 67 66 74 66 59 57 51 46 46 41 46 52 59 57
58 58 57 57 57 57 57 57 57 57 57 57 57 56 56 55 55 55 54 55 57 55 55 60 58 47 54 58 65 69 65 66 64 64 62 61 57 52 48 46 38 41 42 41 45 53 53
57 57 57 57 57 57 57 58 57 57 56 57 57 56 56 55 55 54 52 50 47 46 50 48 51 51 57 65 69 65 67 64 64 60 52 55 48 46 52 51 51 50 47 45 50 58 54
56 56 56 56 56 57 57 57 57 56 56 56 56 56 56 55 55 54 50 44 48 50 41 52 52 54 59 62 54 63 67 58 56 50 55 51 48 55 56 54 52 50 47 47 52 58 55
55 55 56 56 56 56 57 57 56 56 56 55 55 55 55 55 54 49 45 48 59 57 41 47 53 54 58 59 52 55 62 58 55 50 51 48 53 59 56 52 50 49 47 48 49 53 52
55 55 55 56 56 56 56 56 56 56 55 55 55 55 54 54 48 48 45 55 57 56 34 42 48 54 60 59 50 64 66 61 55 52 52 50 59 56 52 52 52 45 55 54 53 46 41
54 54 55 55 55 54 54 55 55 55 55 55 54 55 54 55 45 43 52 55 57 50 24 51 53 64 60 54 56 58 67 59 52 53 53 49 52 52 51 54 56 51 57 54 52 47 42
53 54 54 54 54 53 54 54 54 54 54 55 54 54 54 50 46 47 50 51 50 35 25 45 56 51 50 54 55 60 58 62 61 53 53 54 59 57 56 60 59 61 54 52 48 44 36
53 53 54 53 53 53 54 54 54 54 54 54 54 54 53 51 43 47 49 45 34 27 47 45 50 52 52 49 51 54 51 49 48 43 43 51 54 58 60 53 57 54 47 35 33 33 35
52 53 53 53 53 53 53 54 54 54 53 54 54 53 53 50 48 49 45 39 28 38 39 50 50 51 49 51 51 51 48 43 50 49 44 41 38 54 59 56 52 49 48 35 31 30 35
52 52 53 53 52 53 53 53 53 53 53 53 53 49 48 46 47 46 38 30 35 39 46 44 47 43 45 50 50 49 46 45 50 52 45 42 43 58 61 61 59 49 43 53 41 37 33
53 52 52 52 52 52 52 52 53 53 53 53 48 46 47 47 48 41 34 33 39 46 47 46 39 43 38 43 45 45 45 51 50 55 56 49 40 54 59 58 57 55 56 42 39 32 31
52 52 52 52 52 52 52 52 52 52 53 53 46 41 49 50 48 38 28 34 40 47 47 41 41 41 41 40 42 43 45 52 53 53 55 52 46 47 54 49 48 48 46 47 47 39 35
51 50 50 51 51 51 52 52 52 52 52 50 45 35 48 51 35 35 31 38 45 43 47 44 44 43 41 42 41 41 43 49 54 53 46 49 45 40 47 57 58 55 51 51 41 38 37
50 50 50 50 51 51 51 51 52 52 52 47 40 38 47 48 30 31 37 37 41 40 41 41 40 43 44 40 36 42 45 53 54 52 48 50 41 34 41 48 52 50 52 53 48 43 41
50 50 50 50 51 51 51 51 52 52 52 47 36 32 39 41 38 36 34 34 35 43 41 42 40 42 40 38 41 38 41 50 52 52 50 49 43 39 32 40 47 45 50 54 50 39 40
49 50 50 50 50 50 50 51 51 51 52 46 35 33 39 32 34 37 38 37 35 35 42 42 38 39 36 32 36 36 41 46 51 50 49 46 38 40 40 44 48 48 51 52 50 48 42
50 50 50 49 50 50 50 50 51 51 51 43 32 35 39 35 39 36 37 35 36 39 39 37 36 40 39 35 37 34 39 39 42 47 46 46 36 38 36 45 45 45 50 53 50 49 48
49 49 49 49 49 50 50 50 50 50 50 41 42 42 41 38 36 34 34 36 37 41 42 44 41 39 36 40 43 45 43 44 44 44 41 40 37 35 33 39 41 36 45 50 53 57 50
49 49 49 49 49 49 49 50 50 50 50 45 44 42 37 32 35 36 39 39 37 40 37 42 44 40 45 48 47 45 43 43 43 44 45 38 37 34 29 34 27 42 51 53 52 55 55
48 49 49 49 49 49 49 49 49 49 50 45 44 43 39 33 36 38 39 39 41 41 39 41 44 47 49 43 37 34 31 33 37 42 42 43 37 32 28 30 37 42 48 49 48 49 57
48 48 49 49 49 49 49 49 49 50 50 47 45 45 41 36 34 42 38 40 34 35 36 39 46 49 45 38 33 29 24 31 30 37 44 43 43 34 31 28 25 39 50 58 54 39 54
49 49 49 49 49 49 50 50 50 49 49 47 44 46 40 33 39 43 37 37 43 38 34 38 41 41 44 30 28 29 27 37 30 30 32 32 32 32 30 28 33 44 47 51 36 38 51
48 48 49 49 49 49 49 49 49 50 49 47 44 46 41 35 38 43 45 41 43 42 34 37 38 36 33 29 29 28 24 32 34 36 33 31 28 27 29 27 27 48 46 37 44 49 51
48 48 48 48 48 48 49 49 49 49 50 49 41 46 47 39 37 46 48 47 45 48 44 42 41 40 39 32 30 31 26 25 32 28 41 32 38 32 35 36 48 49 47 49 50 49 53

GFSGBSN_sfc_temp_066.txt.gz
Temp
59 59 59 59 59 59 59 59 59 58 57 57 57 57 58 58 58 58 57 57 57 58 58 58 58 58 54 50 54 65 68 67 65 66 64 62 59 57 53 54 56 53 56 59 62 60 57
59 59 59 59 59 59 59 59 58 57 57 57 57 57 57 57 57 57 57 56 56 57 57 58 58 58 49 44 64 64 63 61 62 62 63 63 61 61 57 55 54 57 58 58 58 60 57
59 59 59 58 58 58 58 57 57 57 57 57 57 57 57 57 57 57 57 56 56 56 57 57 58 55 48 49 61 60 62 61 61 63 62 63 63 59 57 54 60 57 52 54 57 56 56
58 59 59 59 58 57 57 57 57 57 57 57 57 57 56 56 56 56 56 56 56 56 57 57 58 53 45 64 58 60 57 59 64 64 63 65 65 60 57 59 56 50 49 44 54 53 55
58 58 58 58 58 57 57 56 57 57 57 57 57 56 56 55 55 55 55 55 56 57 57 57 53 51 44 65 58 63 62 60 63 64 63 72 63 56 55 50 45 45 39 43 49 54 52
58 58 57 57 57 57 57 57 57 57 56 56 56 56 56 55 55 54 54 55 56 55 55 57 57 46 53 57 64 65 61 63 61 60 59 58 54 48 46 45 38 41 41 38 42 49 50
57 57 57 57 57 57 57 57 57 56 56 56 56 56 56 56 55 54 52 48 46 47 47 46 47 48 56 63 66 62 63 60 58 55 50 53 46 43 46 49 50 48 45 42 46 54 50
56 56 56 57 57 56 57 57 56 56 56 56 56 56 56 55 55 54 49 44 47 49 39 50 49 50 56 59 50 59 64 55 52 47 52 47 45 53 54 52 51 48 45 43 49 55 52
55 55 56 56 56 56 57 56 56 55 55 55 55 55 55 55 54 48 42 46 57 54 40 45 50 49 54 57 51 54 59 56 52 47 49 48 49 57 53 49 49 46 45 43 47 48 49
55 54 55 55 56 56 56 55 55 55 55 55 54 54 54 54 47 46 43 54 56 54 34 40 45 50 57 56 47 63 65 59 52 48 49 48 57 52 50 50 51 44 50 51 48 44 38
54 54 54 54 55 54 54 54 54 54 55 55 54 54 54 54 43 43 51 54 55 50 22 48 50 61 57 52 53 56 65 56 50 50 50 46 49 50 47 50 53 50 54 50 48 43 40
54 54 54 54 54 54 53 53 53 54 54 54 54 54 54 49 48 47 49 50 49 33 22 42 52 49 48 50 51 56 56 60 58 52 50 50 55 53 55 58 55 57 51 49 45 42 33
53 53 53 53 53 53 53 53 53 53 54 54 54 54 52 51 42 47 47 46 33 25 44 42 44 50 48 47 48 51 49 47 46 42 41 48 50 54 57 50 52 50 46 34 31 32 32
53 53 53 53 53 53 53 53 52 53 53 53 53 52 51 50 48 47 44 37 27 36 37 48 47 47 45 48 49 49 46 41 48 49 43 39 37 51 56 54 50 48 46 33 30 30 34
53 53 53 53 52 52 53 52 52 52 52 53 52 49 47 48 48 46 36 27 32 37 43 41 44 41 42 47 47 48 44 42 47 50 44 40 41 56 58 59 59 47 40 50 39 35 32
53 53 52 52 52 52 52 52 52 52 52 52 44 46 47 47 50 44 33 29 37 45 45 43 36 41 36 41 42 43 44 50 48 51 52 47 38 52 56 57 55 52 54 41 37 31 30
52 52 51 52 51 51 51 52 52 52 52 52 45 39 48 50 49 38 28 29 38 46 46 40 38 38 38 38 41 40 43 48 51 51 51 48 43 44 51 46 46 47 46 44 44 37 32
50 50 51 51 51 51 51 51 51 52 51 49 43 34 46 49 34 35 31 35 43 41 45 42 42 40 39 40 38 41 42 46 52 51 45 47 41 35 45 55 56 51 47 47 36 36 35
50 50 50 50 50 50 50 51 51 51 51 45 39 39 46 48 30 31 36 36 39 39 40 40 39 40 42 38 34 39 42 50 51 49 47 48 41 32 38 46 50 47 49 50 46 41 38
49 50 50 50 50 50 50 50 51 51 51 45 35 31 38 40 40 37 33 34 34 41 39 40 38 40 38 36 39 36 39 46 49 50 49 49 43 38 32 35 41 38 44 48 48 39 38
49 49 49 49 50 50 50 51 51 50 51 45 36 31 38 30 34 36 38 38 34 34 40 40 36 36 34 30 33 33 39 43 47 49 47 46 36 39 41 43 43 41 40 42 44 46 40
49 49 49 49 50 50 50 50 50 50 50 42 32 33 38 36 40 35 35 33 35 37 38 35 34 38 37 34 36 34 37 37 38 44 42 44 35 37 34 43 44 40 44 44 45 47 47
49 49 49 49 49 50 50 50 49 50 49 41 41 41 39 37 36 33 33 36 35 41 41 43 39 38 35 38 40 41 43 42 41 39 38 38 36 32 30 38 40 33 39 41 43 46 47
48 49 49 48 49 49 49 49 49 50 49 44 41 41 35 32 34 35 38 38 38 39 37 42 43 38 44 45 45 42 40 40 40 40 42 38 36 32 27 30 25 41 48 49 46 48 50
48 48 48 48 48 49 49 49 49 49 50 44 45 42 37 31 36 36 38 36 40 42 40 41 44 47 48 45 37 33 30 32 36 39 39 41 36 29 24 26 34 39 45 47 45 45 51
48 48 49 49 49 49 49 48 48 49 50 46 45 46 41 35 33 39 37 40 34 34 36 39 47 48 45 37 33 27 24 30 30 35 41 39 39 35 30 23 20 35 45 50 50 35 47
48 48 49 50 49 48 49 48 48 48 49 47 44 46 41 33 41 43 36 37 41 37 34 38 41 40 42 29 29 29 27 36 28 31 30 33 32 31 31 29 31 42 47 50 35 34 46
48 48 48 49 49 49 49 48 48 48 49 47 44 47 41 36 39 44 45 40 40 40 33 37 37 36 34 29 30 31 25 30 31 34 32 31 29 29 30 29 25 47 46 41 45 46 48
48 47 48 48 48 48 49 49 49 49 48 48 39 47 47 39 38 44 46 47 45 48 43 42 40 38 36 30 29 30 25 24 30 26 37 30 35 31 33 32 43 45 47 51 49 49 50

GFSGBSN_sfc_temp_069.txt.gz
Temp
59 59 59 59 59 59 60 59 58 58 57 57 57 57 58 58 58 58 57 56 57 57 57 58 58 58 55 54 58 67 66 67 67 69 69 67 65 63 60 62 62 59 64 65 67 66 65
59 59 59 59 59 60 60 59 58 57 57 57 57 57 57 57 57 57 57 56 56 56 57 58 58 58 52 48 70 66 65 66 68 67 68 68 68 68 64 63 62 65 64 65 65 67 66
59 59 58 58 58 58 58 58 57 57 57 57 57 57 57 57 57 57 56 56 56 56 57 58 58 56 48 53 67 65 64 66 67 68 66 69 71 67 65 61 65 64 60 63 65 65 63
59 58 58 58 58 57 57 57 57 57 57 57 57 56 56 56 56 56 55 55 55 56 57 57 58 54 45 63 64 61 63 63 66 68 66 70 71 67 65 66 62 59 57 54 62 62 58
58 58 58 58 57 57 57 57 56 57 57 57 56 56 56 55 55 55 55 55 55 57 57 57 53 50 47 65 59 65 64 62 64 66 67 72 68 63 62 58 54 52 50 51 56 63 60
58 58 57 57 57 57 57 56 56 56 56 56 56 56 56 55 55 54 54 54 56 56 56 57 57 46 54 57 65 66 63 65 63 62 62 62 61 56 55 55 46 49 48 50 54 60 60
57 57 56 57 56 56 56 56 56 56 56 56 56 56 55 55 55 54 52 49 49 48 50 47 49 48 53 62 66 64 64 63 64 60 53 57 53 47 52 56 56 55 51 52 55 59 58
56 56 56 56 56 56 56 56 56 55 55 55 55 55 55 55 54 54 50 46 48 48 38 50 50 51 56 59 50 60 67 59 56 52 54 51 48 55 57 56 55 53 51 52 56 58 57
55 55 56 56 56 57 56 56 56 55 55 55 55 55 55 54 54 49 46 47 56 52 40 46 52 49 51 55 49 54 63 59 54 50 51 50 55 58 55 53 51 52 51 52 52 55 58
54 55 55 55 56 55 56 56 55 54 54 54 54 54 54 54 49 47 45 53 55 52 35 40 45 49 55 56 47 61 65 62 54 51 51 53 59 54 54 53 54 47 56 55 52 51 46
54 54 54 54 55 54 54 54 54 54 54 54 54 54 54 54 46 45 51 53 54 49 25 49 49 62 58 52 54 56 65 58 53 51 53 49 51 52 50 53 56 53 56 54 54 50 49
53 54 54 54 54 54 54 53 53 53 53 53 54 54 54 50 49 50 51 50 49 34 25 42 53 50 48 52 53 57 56 61 61 54 53 54 58 57 57 58 58 60 56 53 50 48 40
53 53 54 53 53 53 53 54 53 53 53 53 53 53 52 52 46 49 49 46 33 27 45 42 44 50 49 47 48 51 49 48 47 42 41 50 53 58 59 54 56 56 51 41 38 38 38
52 52 53 52 52 53 53 53 53 52 52 53 52 52 51 52 51 51 46 37 26 37 38 47 47 46 45 50 50 50 46 43 50 49 45 42 40 53 58 55 52 51 51 42 34 36 42
52 52 53 53 53 53 53 53 52 52 52 52 52 46 47 48 50 49 39 26 32 38 43 41 44 42 42 47 47 49 47 45 49 52 45 40 43 57 58 60 60 49 45 55 44 43 40
52 52 52 52 51 51 52 52 52 52 52 51 44 45 45 49 51 44 34 30 35 45 44 43 36 41 37 41 43 45 46 49 48 53 54 50 42 53 58 60 60 56 57 44 43 36 35
52 51 52 51 51 51 51 51 51 52 52 51 43 38 47 50 49 38 29 32 38 45 45 40 38 37 39 38 41 42 44 49 49 52 54 52 48 46 54 51 50 51 50 49 50 45 39
50 51 50 50 51 51 51 51 51 51 51 47 41 32 46 49 35 34 31 36 42 42 45 43 43 40 40 40 39 41 42 46 53 52 47 50 44 40 46 56 58 57 52 52 43 42 42
50 50 50 50 50 50 50 51 51 51 51 42 36 37 46 47 30 31 35 34 39 39 41 41 39 41 43 40 36 41 42 50 50 50 47 50 42 37 41 49 51 46 49 49 49 48 43
50 50 50 50 50 50 50 50 51 50 51 43 36 30 37 40 40 37 33 33 33 41 40 41 39 42 40 38 41 38 40 47 49 50 50 49 46 38 34 37 43 40 44 46 45 39 42
49 49 49 50 50 50 50 50 50 50 51 43 36 31 37 30 33 35 38 36 33 34 41 41 37 39 37 33 36 37 41 43 47 49 49 48 40 44 45 45 44 44 44 46 45 46 40
49 49 49 49 49 49 49 50 50 50 50 40 32 33 37 35 37 34 36 33 34 37 38 36 35 38 39 35 37 37 39 41 40 45 44 46 38 40 37 44 44 41 45 46 47 47 47
49 49 49 49 49 49 49 49 50 50 49 39 40 41 38 36 36 33 33 36 35 40 41 44 41 39 37 40 44 45 45 44 44 41 39 40 39 36 33 39 41 35 41 46 49 50 49
48 48 49 49 49 49 49 49 49 50 49 42 42 40 34 29 33 35 36 38 37 40 38 42 44 40 45 50 47 45 42 42 42 42 43 38 38 35 33 35 27 45 50 51 48 51 53
49 48 48 48 49 49 49 48 48 49 49 43 43 40 36 30 35 35 36 36 40 42 40 41 44 48 49 45 35 33 35 36 38 41 40 43 39 33 31 31 38 44 49 48 46 48 50
49 48 48 48 48 48 48 48 48 48 49 45 43 44 40 33 33 41 36 38 35 35 36 40 47 47 47 37 33 28 27 33 33 37 42 40 42 36 31 28 26 42 49 52 53 40 51
48 49 49 49 49 49 49 48 48 48 49 45 43 46 40 33 39 42 37 36 42 38 35 38 39 37 43 34 30 29 29 38 31 32 31 33 33 30 31 31 37 47 50 52 38 43 52
48 48 48 49 48 49 49 48 48 48 49 46 43 46 41 35 39 44 46 42 39 39 34 38 35 36 35 31 32 31 31 35 36 38 35 35 31 32 33 30 28 50 49 44 51 54 53
48 48 48 48 48 48 49 49 47 48 48 48 40 46 47 39 38 45 48 50 49 47 43 41 40 38 40 35 34 36 31 31 36 31 41 35 40 37 39 40 48 50 49 53 53 51 53

GFSGBSN_sfc_temp_072.txt.gz
Temp
59 59 59 59 59 60 60 60 59 58 58 57 57 58 58 58 58 58 57 57 57 57 57 58 59 59 63 64 69 77 69 69 79 77 78 77 74 74 69 73 74 69 74 77 78 77 76
60 59 59 59 59 59 59 59 58 58 58 57 57 57 57 58 58 58 57 57 56 56 57 58 58 58 61 55 80 78 76 76 80 78 77 78 76 79 72 73 71 74 74 75 77 76 76
59 59 59 58 59 58 59 58 58 58 58 57 57 57 57 57 57 57 57 56 56 56 57 57 58 61 55 61 79 78 74 77 79 79 76 79 80 74 75 70 76 74 67 73 74 76 75
59 58 59 58 58 57 57 57 57 57 57 57 57 57 56 56 56 56 56 55 56 56 57 58 58 60 53 75 77 72 76 75 77 77 75 80 80 75 73 75 70 67 68 62 73 74 73
58 58 58 58 58 57 57 57 57 57 57 57 56 56 56 55 55 55 55 55 55 57 58 57 58 56 56 70 65 72 74 70 75 75 76 77 75 71 72 65 63 65 60 62 66 75 72
58 58 58 57 57 57 56 56 56 56 56 56 56 56 56 55 55 54 54 54 58 57 61 63 63 51 62 63 70 70 71 71 69 70 68 68 69 64 65 64 53 60 60 63 63 71 70
57 57 57 57 57 56 57 57 56 56 56 56 56 56 56 55 55 54 57 63 61 57 58 56 59 57 63 68 72 71 70 66 68 67 60 65 60 56 62 65 67 67 63 62 68 70 65
56 56 56 56 56 56 57 57 56 56 56 55 55 55 55 55 54 54 60 55 50 51 43 57 57 58 63 66 55 66 72 64 59 58 64 60 55 64 67 66 63 63 60 61 67 68 65
55 55 56 56 56 56 57 56 56 55 55 54 55 55 55 54 54 57 56 54 59 60 45 53 58 56 58 60 54 59 66 65 58 57 58 57 62 64 64 61 59 61 59 60 61 66 67
54 54 55 55 55 56 56 56 56 55 54 54 54 54 54 54 52 59 57 59 60 60 42 51 50 56 58 59 51 63 70 64 61 57 59 60 66 60 59 59 62 56 66 62 61 59 54
54 54 54 54 55 54 54 54 55 54 54 54 53 54 54 54 55 53 58 63 61 55 34 53 54 66 62 55 59 58 67 62 53 58 57 57 58 58 55 59 64 59 67 62 61 59 58
53 53 54 54 54 53 54 54 54 54 53 53 53 53 53 57 57 58 62 60 57 41 34 48 56 54 52 56 56 59 56 65 64 54 58 58 65 63 62 65 65 65 61 61 60 58 46
53 53 53 53 53 53 52 53 53 53 53 53 53 53 54 58 49 60 60 56 40 36 52 46 48 53 51 51 54 55 52 47 51 41 42 52 54 62 64 59 64 63 58 48 45 45 44
52 52 52 53 53 52 52 53 53 53 53 52 52 52 55 59 59 55 56 44 32 43 45 52 51 52 48 54 54 54 52 49 54 55 49 41 40 55 62 60 57 58 58 50 40 43 49
52 52 52 52 52 53 52 53 53 52 52 52 52 55 53 58 59 53 43 32 40 44 49 45 50 47 47 51 52 54 52 50 54 56 47 46 47 60 61 63 62 57 53 62 52 51 46
51 51 52 51 52 52 52 51 51 52 52 52 48 49 51 60 57 47 35 35 43 49 49 47 41 46 41 46 48 51 50 54 51 57 60 53 45 57 61 63 63 61 65 49 52 39 39
51 52 51 52 50 51 50 51 51 52 52 51 47 43 56 60 54 39 30 37 45 52 50 44 42 42 44 42 47 48 47 53 55 56 58 56 50 49 57 55 55 56 54 57 57 52 44
50 51 50 50 51 51 51 51 52 51 51 49 44 34 55 54 36 36 33 41 46 48 52 48 47 45 44 45 43 46 45 50 56 57 50 54 50 46 50 60 62 62 56 57 48 47 52
50 50 50 50 50 51 50 50 51 51 51 49 39 41 53 47 31 32 37 41 47 46 48 47 45 47 48 44 40 45 48 54 54 53 49 54 48 42 47 53 57 56 56 56 56 54 48
50 50 50 50 50 50 50 49 50 51 50 47 38 31 43 40 39 41 39 39 35 48 47 48 47 47 45 44 48 43 45 52 55 54 48 52 49 43 41 46 51 45 50 53 52 47 49
49 50 50 50 50 50 50 50 50 51 50 44 37 33 44 32 33 35 42 42 40 40 46 49 44 44 43 40 43 42 47 49 52 51 54 51 45 48 49 50 50 49 50 52 50 52 46
49 49 49 49 50 50 50 50 50 50 50 41 33 37 40 37 41 35 36 33 41 45 44 42 42 45 45 41 44 43 45 46 45 51 49 51 45 46 44 49 50 47 51 53 53 54 54
48 48 48 49 49 50 49 49 50 50 49 39 41 46 40 38 41 36 34 40 38 46 48 50 47 44 42 46 51 52 52 51 49 46 44 44 45 43 38 45 46 39 48 53 55 58 58
48 49 49 49 48 49 50 50 49 50 49 47 45 44 36 30 35 39 43 40 39 44 43 48 50 45 48 54 53 52 51 50 50 49 50 44 44 43 38 39 30 50 57 56 53 58 61
48 49 50 50 49 48 49 49 49 49 49 45 48 43 38 32 40 41 38 36 43 46 43 46 49 52 51 45 39 39 40 41 44 48 49 49 45 38 35 38 45 49 55 54 52 53 58
49 49 49 50 49 48 48 48 48 48 48 44 43 49 39 33 37 46 42 41 35 38 42 45 45 52 45 38 38 32 32 38 38 42 50 48 48 41 38 32 30 47 55 59 59 46 59
48 49 49 49 49 48 48 48 48 48 48 45 42 47 40 33 41 41 42 43 43 38 39 42 39 38 41 36 33 33 34 43 36 36 32 34 36 34 36 35 43 55 59 59 42 45 59
48 48 48 49 49 49 49 49 48 48 48 46 42 46 41 36 41 48 49 47 47 45 39 40 37 36 34 33 35 37 36 41 41 45 37 35 33 32 37 32 30 57 55 47 53 58 59
48 48 48 48 48 49 49 49 49 49 49 47 40 45 47 42 39 51 53 55 53 52 46 41 42 40 43 38 42 42 38 41 42 36 50 38 46 43 45 45 56 57 57 61 58 55 57

GFSGBSN_sfc_temp_075.txt.gz
Temp
60 60 59 59 59 59 60 59 59 59 58 58 58 58 58 58 58 58 57 57 57 57 57 58 58 58 63 67 71 87 70 70 80 79 79 80 77 77 72 77 80 76 78 81 83 83 82
59 60 59 59 59 59 60 59 59 58 58 58 58 58 57 58 58 57 57 57 56 56 57 58 58 58 61 57 86 87 85 83 85 82 81 83 80 82 78 77 76 80 79 79 81 81 82
59 59 59 59 58 58 58 58 58 58 58 58 57 57 57 57 57 57 56 56 56 56 57 57 58 62 61 65 87 88 84 83 87 85 79 84 85 80 79 73 80 78 72 77 78 80 78
58 58 59 58 57 58 57 57 57 57 57 57 57 57 56 56 56 56 55 55 55 56 57 57 58 64 59 81 85 81 83 81 84 85 82 85 86 79 76 80 76 71 72 65 77 80 80
58 58 58 58 58 57 57 57 57 57 57 56 56 56 56 56 55 55 55 55 55 56 58 58 62 63 61 72 72 80 81 75 80 81 81 83 80 73 74 67 65 68 62 66 70 80 78
58 57 57 57 57 57 57 57 56 56 56 56 56 56 56 55 55 54 54 54 60 57 60 69 69 56 66 68 75 78 79 77 73 74 72 71 71 67 68 66 54 61 64 67 67 77 76
57 57 57 57 57 57 57 57 57 56 56 56 56 56 56 55 55 54 57 69 66 61 65 61 65 63 69 78 78 75 78 72 71 67 60 68 60 59 64 67 69 69 67 67 73 78 72
56 56 56 56 57 56 57 57 56 56 55 55 55 55 55 55 55 54 60 60 56 57 47 62 63 64 69 72 62 69 79 65 64 56 56 56 55 67 70 70 68 66 64 66 71 75 69
56 55 55 56 56 56 56 56 56 56 55 55 54 54 54 54 54 57 62 60 67 64 50 59 65 63 65 67 61 63 72 68 63 57 52 51 59 68 66 66 64 65 62 64 65 72 72
54 54 54 55 55 55 55 56 56 55 55 54 54 54 54 54 51 64 61 66 68 63 43 56 59 63 65 64 57 70 72 68 63 55 52 49 62 64 63 62 66 58 69 67 65 63 57
54 54 54 53 54 54 54 54 55 55 54 54 54 54 54 54 58 59 63 68 67 58 38 58 60 72 67 60 64 63 72 67 57 58 57 46 53 59 59 61 66 60 68 67 66 61 61
53 53 54 54 54 54 54 54 53 54 54 54 53 53 53 58 58 63 66 65 61 40 37 54 61 58 58 62 61 63 61 67 65 57 58 57 63 63 64 67 65 67 65 64 65 61 51
52 52 52 51 51 52 53 53 53 53 54 53 53 53 54 59 52 64 64 60 44 39 58 53 54 58 58 57 58 60 55 51 50 43 43 49 52 63 66 59 64 65 60 48 45 47 46
53 52 52 52 53 53 53 53 52 53 53 53 52 52 57 62 65 63 57 47 35 49 51 59 56 58 53 58 58 58 56 52 53 53 49 44 39 53 64 60 56 59 59 51 40 42 50
52 52 52 52 52 53 52 53 52 52 52 52 52 56 57 60 63 59 48 35 45 50 56 51 55 52 53 56 55 56 55 55 59 54 46 47 47 61 62 63 60 54 53 63 53 54 48
52 51 51 51 51 52 50 51 52 52 52 51 54 52 54 62 61 52 39 38 48 55 54 54 47 51 48 50 52 54 53 56 53 60 60 54 46 59 59 63 63 59 62 50 54 39 38
51 51 51 51 51 51 52 51 51 52 52 51 52 42 60 63 56 41 32 40 48 56 55 49 50 48 51 47 51 52 45 52 58 57 63 57 52 50 57 50 53 56 52 54 57 53 43
50 51 51 51 51 50 51 51 51 51 51 48 50 34 61 60 38 39 34 45 50 52 57 53 52 51 49 51 47 49 49 51 59 59 52 60 52 46 49 61 62 61 57 56 47 46 52
50 50 50 50 50 50 51 51 50 50 51 54 40 45 58 52 32 35 44 46 49 49 51 51 49 53 55 49 43 49 51 58 58 55 50 53 51 43 45 53 61 57 60 60 59 57 47
50 50 50 50 49 50 51 51 50 51 51 50 40 33 45 45 42 39 41 42 43 52 51 54 52 54 51 48 52 47 49 55 58 56 50 52 50 48 42 46 55 52 56 58 56 47 49
49 49 49 49 50 50 51 51 50 50 50 49 40 36 46 35 40 42 40 38 43 43 51 52 48 50 48 43 47 47 52 53 56 53 56 53 41 48 51 51 52 53 54 56 55 56 49
49 49 49 49 49 50 50 50 50 50 50 43 34 38 46 43 45 42 42 38 40 48 49 46 45 50 51 45 46 45 50 49 49 54 52 55 45 48 44 52 52 48 53 55 56 56 57
49 49 48 48 48 49 49 50 50 49 49 42 41 49 44 41 44 39 40 42 42 45 44 51 51 49 46 49 53 54 54 52 52 50 49 47 47 46 40 50 49 42 50 52 55 58 58
48 49 49 48 49 49 49 50 50 50 49 50 48 49 37 33 40 42 45 44 45 44 40 46 52 49 53 57 57 56 54 52 52 52 53 46 47 47 40 43 32 52 61 60 57 60 63
48 49 49 49 49 49 49 48 49 49 50 48 51 42 40 32 43 44 44 45 46 46 43 40 45 55 55 50 42 40 40 41 45 51 51 52 47 41 36 39 47 52 57 56 54 55 63
48 49 49 49 49 49 49 49 48 49 50 48 49 51 42 35 39 48 46 48 43 41 39 46 47 53 51 43 36 33 34 40 40 45 53 51 50 43 40 34 32 51 58 63 62 49 62
48 48 49 49 49 49 49 48 48 49 50 48 47 50 42 35 46 46 44 45 51 45 38 43 41 41 46 36 33 35 37 47 38 38 38 39 38 36 37 36 45 59 62 63 44 46 59
48 48 48 48 48 49 49 48 47 48 49 45 41 50 43 37 46 50 51 45 47 48 40 39 38 37 35 33 36 39 39 43 44 47 42 39 35 34 38 33 32 61 60 50 54 60 60
48 48 48 48 48 48 49 49 48 48 48 47 40 45 49 40 46 55 54 56 54 49 42 43 42 40 44 38 44 45 40 44 44 38 52 39 46 43 46 46 58 62 59 60 60 58 59

GFSGBSN_sfc_temp_078.txt.gz
Temp
60 60 60 59 59 59 60 60 59 59 58 58 58 58 58 58 58 58 57 57 57 57 57 58 58 58 60 63 66 86 69 70 78 77 76 75 74 74 69 74 75 73 76 80 81 82 81
59 59 59 59 59 59 59 59 58 58 58 57 57 57 57 57 57 57 57 56 56 56 57 57 58 58 58 52 81 87 85 84 83 80 77 78 77 79 74 74 73 77 78 78 80 80 80
59 59 59 59 58 58 58 57 57 57 57 57 57 57 57 57 57 57 57 56 56 56 57 57 58 60 57 59 83 82 83 82 84 83 78 82 83 78 77 72 79 77 70 74 77 78 77
58 58 58 58 58 58 57 57 57 57 57 57 57 56 56 56 56 56 56 55 56 56 57 57 58 61 54 79 83 80 83 80 83 84 82 83 84 78 74 77 74 70 69 61 73 76 78
58 58 58 57 57 57 57 57 57 57 57 56 56 56 56 55 55 55 55 55 55 56 57 59 58 59 58 77 73 81 81 75 79 80 81 83 79 71 72 64 60 64 56 61 66 77 77
57 57 57 57 57 57 57 57 57 57 56 56 56 56 56 55 55 54 54 54 58 59 61 67 67 58 64 67 77 78 82 77 73 74 73 71 69 62 63 60 49 55 57 62 63 73 76
57 57 57 57 57 57 57 57 57 56 56 56 56 55 55 55 55 54 55 59 63 56 61 60 64 62 69 77 80 76 80 74 72 69 59 66 56 53 59 63 64 63 61 61 69 76 73
56 56 56 56 56 56 57 57 56 56 56 56 55 55 55 55 54 54 56 59 58 59 47 61 63 64 69 71 62 69 77 66 63 57 63 60 54 61 64 65 63 62 58 59 67 74 72
55 55 55 55 56 56 56 56 56 56 56 55 55 54 54 54 54 55 60 61 68 66 47 58 66 66 68 69 62 64 71 67 61 58 59 54 58 63 58 58 59 61 57 59 61 69 72
55 54 55 55 55 55 55 54 55 55 55 55 54 54 53 53 52 60 59 68 68 63 41 55 59 65 67 67 59 72 73 67 62 56 60 57 62 57 53 49 52 50 64 64 63 60 53
54 53 53 54 54 54 54 54 54 54 55 55 54 54 53 53 53 54 60 67 67 57 33 60 61 73 70 61 64 65 72 66 57 58 59 53 53 52 48 48 54 51 61 59 58 59 58
53 54 53 53 52 52 52 53 53 54 54 54 54 54 53 55 56 58 62 64 58 36 33 54 62 59 59 63 63 66 64 68 67 59 61 58 64 57 51 54 58 58 58 56 57 57 47
52 52 52 52 51 51 51 52 52 52 53 54 54 53 53 58 50 59 60 54 38 35 59 55 56 60 59 58 61 62 57 54 50 44 45 53 55 57 56 47 53 56 51 36 37 42 42
52 52 52 53 53 53 53 53 52 52 51 53 53 52 54 58 60 59 54 43 32 50 53 60 57 58 54 60 60 60 56 52 56 54 48 43 39 53 57 51 48 51 50 36 33 38 44
52 52 52 52 52 52 52 52 52 52 50 52 52 53 53 56 59 57 43 32 42 48 57 56 55 50 53 59 57 58 56 55 57 55 45 45 45 59 59 59 55 46 45 52 41 43 37
51 51 52 52 52 51 52 51 51 51 52 52 50 50 51 59 58 51 37 34 46 56 57 55 46 53 48 55 52 54 54 57 52 59 59 51 42 57 58 60 57 52 58 44 42 32 32
51 51 51 51 51 51 51 51 52 51 51 52 48 42 56 61 55 41 31 38 46 55 57 50 48 49 52 51 52 51 51 52 56 57 59 55 49 48 56 50 48 49 48 46 46 43 37
50 50 50 51 50 51 50 51 51 51 51 49 46 34 56 58 37 37 33 43 49 52 57 54 53 50 49 51 50 50 50 52 59 57 50 54 50 43 48 58 59 56 52 51 38 38 46
50 50 50 50 51 50 50 50 50 50 50 48 39 44 56 52 32 35 42 43 46 48 50 51 50 53 54 50 45 51 52 58 58 55 49 51 47 39 43 48 57 51 51 51 53 47 36
50 50 50 50 50 50 50 50 50 50 50 47 40 33 45 44 44 39 38 40 41 52 50 52 52 54 51 48 52 47 50 56 58 57 50 52 46 43 35 37 45 45 50 52 51 42 43
50 50 50 50 49 49 50 50 50 50 49 44 40 36 44 34 38 40 42 42 41 43 52 53 48 49 48 43 46 46 52 54 57 54 54 52 41 45 47 48 48 42 45 48 43 45 42
49 50 49 49 49 49 49 50 50 50 50 41 34 38 46 41 43 41 41 39 41 45 46 45 45 50 50 45 47 43 48 48 47 55 52 55 42 46 43 50 46 47 52 53 52 51 54
49 49 49 49 49 48 48 49 50 50 49 39 45 48 39 40 42 39 39 42 43 46 47 44 46 45 47 50 50 50 51 50 49 48 48 47 45 43 38 48 47 40 48 51 54 57 55
49 49 49 49 50 49 48 48 49 50 49 47 49 47 37 32 39 40 45 46 44 47 44 49 50 42 49 54 57 53 53 53 48 49 53 45 45 44 37 42 30 49 61 59 55 57 60
48 48 49 49 49 50 49 49 49 49 50 48 51 43 39 32 41 43 44 44 45 47 45 46 50 51 46 47 44 40 40 42 46 50 49 52 45 38 35 36 45 51 57 55 53 53 62
48 48 49 49 49 49 49 49 48 48 50 49 50 51 42 34 37 47 44 46 42 43 44 46 53 50 44 44 38 31 31 38 38 43 52 50 49 40 38 32 30 48 59 63 62 46 61
48 48 48 49 48 49 49 49 48 48 48 48 48 50 42 33 43 46 42 42 49 46 42 42 39 41 46 38 33 33 33 45 36 37 38 39 39 34 34 33 42 56 57 62 42 43 58
48 48 48 48 48 48 48 49 49 49 48 46 45 51 43 36 42 48 50 44 45 45 38 41 38 38 36 32 33 36 36 41 41 45 39 39 34 34 36 33 30 59 57 45 50 53 57
47 48 48 48 48 48 48 48 49 48 47 48 42 50 50 39 43 52 53 55 54 51 41 40 38 39 45 39 42 42 37 41 42 36 48 35 45 40 43 42 56 60 54 58 59 55 54

GFSGBSN_sfc_temp_081.txt.gz
Temp
60 60 59 59 59 59 59 59 58 58 57 57 58 58 58 58 58 58 57 57 57 57 57 58 58 58 53 53 57 72 68 68 69 71 69 68 64 63 59 63 64 63 66 71 73 72 71
59 59 59 59 59 58 59 58 58 57 57 57 57 57 57 57 57 57 57 56 56 56 57 57 58 58 49 43 71 76 74 72 74 70 70 70 68 70 66 65 63 68 68 68 70 70 73
58 58 58 58 58 58 58 57 57 57 57 57 57 56 56 57 56 56 56 56 56 56 56 57 58 56 49 49 69 70 71 71 74 73 70 74 73 68 67 63 70 69 61 65 65 67 65
58 58 58 58 57 57 57 57 57 57 57 57 57 56 56 55 55 55 55 55 55 56 56 57 58 53 45 69 66 69 69 70 75 75 73 74 74 67 63 67 65 59 58 51 64 67 69
58 58 58 57 57 57 57 57 56 57 57 56 56 56 55 55 55 55 55 55 55 56 57 57 51 49 48 71 65 71 71 69 72 72 72 79 69 61 62 53 49 51 44 51 57 67 67
58 57 57 57 57 57 57 57 56 56 56 56 56 55 55 55 54 54 54 54 56 56 57 62 60 48 57 62 72 74 73 73 67 66 64 63 58 52 51 47 39 44 47 48 52 62 67
57 56 57 57 56 56 57 57 56 56 55 56 56 55 55 55 54 54 52 49 52 48 54 51 52 53 63 69 73 68 73 69 66 60 50 56 46 42 48 54 57 55 53 51 57 65 64
55 55 56 56 56 56 56 56 56 55 55 56 55 55 55 54 54 54 50 44 54 52 42 55 56 57 63 65 56 63 69 59 57 49 54 50 45 54 58 59 57 53 50 50 58 64 64
55 55 55 55 55 56 56 55 55 55 55 55 55 54 54 53 53 50 50 53 63 60 40 49 58 56 59 62 56 57 63 59 54 51 51 46 52 59 56 54 53 51 50 51 51 61 64
54 54 54 54 54 55 55 54 54 55 55 54 54 54 53 53 48 49 49 60 61 59 35 46 55 62 65 64 56 67 67 60 55 50 52 50 58 55 51 50 51 44 55 53 50 45 39
53 54 53 54 54 53 53 53 53 53 54 54 53 53 53 53 45 45 55 59 59 53 22 56 57 71 67 58 61 60 66 59 50 50 52 47 49 48 46 49 53 47 53 50 46 42 44
53 53 53 53 53 52 52 52 52 53 53 53 53 53 53 50 49 51 56 56 52 34 26 51 58 55 56 58 59 60 60 60 59 51 52 50 56 53 51 55 53 52 46 47 44 41 34
53 53 52 52 53 53 53 53 52 52 53 52 52 53 51 52 43 55 54 48 33 27 54 50 51 56 54 55 56 57 53 47 42 37 38 46 49 52 54 45 49 45 39 33 31 31 31
52 52 52 52 52 52 52 52 52 52 51 51 51 51 50 51 53 54 48 38 26 43 47 59 56 56 51 56 56 56 51 44 48 45 40 36 33 48 53 47 45 43 39 33 28 29 35
52 52 52 52 52 52 52 51 51 51 51 51 51 46 45 49 52 50 39 27 33 42 52 50 53 48 48 54 54 53 49 48 51 48 40 38 40 54 58 54 51 44 38 45 36 37 33
52 52 52 51 51 52 51 51 51 51 51 50 43 41 43 53 51 44 34 31 38 51 50 51 43 49 43 48 48 47 47 52 49 52 51 46 37 52 55 56 54 49 52 37 35 28 28
51 51 51 51 51 51 50 51 51 50 51 50 42 36 47 53 47 38 28 33 42 49 51 48 45 44 44 44 48 46 48 50 52 52 53 49 42 44 51 48 46 45 42 38 39 38 32
51 51 51 51 51 51 51 50 50 51 50 46 39 29 47 51 34 35 30 38 45 46 50 48 49 47 44 45 44 45 47 49 54 52 45 49 42 36 42 54 57 52 44 43 34 34 39
51 50 50 51 51 50 50 50 51 50 49 41 34 34 47 44 27 30 37 40 42 42 44 46 46 49 50 44 38 45 47 53 54 50 44 48 40 32 39 46 52 46 48 47 42 42 35
51 50 50 50 50 50 50 50 50 50 50 41 35 22 36 37 36 34 35 37 38 47 46 47 46 48 45 42 46 41 45 54 53 52 50 49 42 37 31 36 39 37 43 45 41 35 38
50 50 49 50 50 50 49 50 49 50 49 40 35 26 35 27 31 35 37 35 34 35 47 49 44 44 42 38 40 39 45 48 53 51 49 45 36 41 42 46 47 40 44 40 39 39 36
50 49 49 49 50 49 50 49 49 49 49 38 32 28 37 35 38 34 37 34 36 40 43 39 40 44 43 38 41 38 42 43 42 47 44 47 37 41 38 46 47 44 46 44 42 41 42
49 49 49 49 49 50 50 48 47 49 48 37 38 38 33 33 35 33 33 36 38 42 43 47 43 39 38 40 40 44 44 45 45 42 40 42 38 37 32 44 43 35 43 48 48 46 45
49 49 49 49 49 50 50 49 47 48 48 38 38 37 29 24 29 33 38 42 40 41 39 45 44 37 45 48 46 47 46 46 44 44 46 39 39 37 29 35 26 44 56 56 51 53 56
48 49 49 49 49 49 49 49 48 47 49 42 40 36 32 22 34 35 37 39 44 43 40 41 46 47 45 42 37 33 33 35 40 44 43 43 38 29 27 28 38 45 53 51 48 48 57
48 48 49 49 49 48 49 49 49 48 49 44 42 42 36 30 28 40 38 40 33 33 37 41 45 45 42 38 33 27 25 32 33 39 47 44 41 32 28 28 23 42 53 58 57 39 53
47 48 48 48 48 48 49 49 49 49 48 45 41 44 38 31 37 38 32 33 39 36 32 38 36 38 40 32 30 25 26 40 30 31 31 33 32 30 28 27 34 50 53 56 38 37 51
47 47 47 48 48 48 48 49 48 49 49 45 42 45 40 35 38 41 42 38 39 37 30 35 33 35 34 25 28 28 26 33 35 37 33 33 30 28 29 25 24 52 52 42 43 49 50
47 47 47 47 48 48 48 48 48 49 49 47 38 46 46 37 36 44 45 46 44 43 40 37 33 36 38 33 31 32 27 31 36 28 42 31 39 33 36 34 45 47 47 49 50 47 49

GFSGBSN_sfc_temp_084.txt.gz
Temp
59 59 59 59 59 59 59 59 58 57 57 57 57 57 58 58 58 58 57 57 57 57 57 57 58 58 53 46 50 70 68 68 67 67 65 65 62 59 55 58 59 55 61 65 67 67 67
59 59 59 58 58 58 59 58 58 57 57 57 57 57 57 57 57 57 57 56 56 56 57 57 58 58 48 38 64 69 68 68 67 66 66 66 64 65 60 60 58 63 63 64 66 65 67
58 58 58 58 57 57 57 57 57 57 57 57 57 57 56 56 56 56 56 56 55 56 56 57 57 56 48 45 62 63 64 64 67 68 65 69 69 62 62 58 65 64 57 61 62 63 60
58 58 58 58 57 57 57 57 57 57 57 57 57 56 55 55 55 55 55 55 55 55 56 57 57 53 43 62 60 59 61 64 69 70 70 71 70 64 60 62 61 55 53 47 59 59 63
57 57 57 57 57 57 56 56 56 57 57 56 56 56 55 55 55 54 54 54 55 56 57 57 52 49 43 65 60 65 65 64 68 68 66 75 65 59 58 51 46 47 42 46 52 60 59
57 57 57 57 57 56 56 56 56 56 56 55 56 56 55 55 54 54 53 54 55 55 55 59 57 45 52 58 67 69 66 68 65 63 61 59 55 49 47 44 38 41 43 41 43 53 59
56 56 56 56 56 56 56 56 56 55 55 55 55 55 55 54 54 54 52 45 47 46 51 48 49 49 55 64 69 65 68 66 63 57 48 53 44 41 46 49 51 50 48 45 49 58 57
55 55 55 55 55 56 56 56 55 54 55 55 54 55 55 54 54 53 48 43 51 53 40 53 53 53 58 61 51 59 65 56 54 47 49 46 41 49 53 53 52 50 46 44 52 57 53
55 55 55 55 55 55 55 55 54 54 54 54 54 54 54 53 53 47 45 48 59 56 38 46 53 52 54 59 52 54 60 56 51 47 47 42 48 54 52 50 49 48 45 45 46 51 52
54 53 54 54 54 54 54 53 53 53 53 53 53 53 53 53 45 44 46 57 57 55 34 41 49 54 58 60 51 63 63 57 52 47 48 46 55 52 48 48 49 41 51 50 47 41 35
54 54 53 53 53 53 53 53 53 53 53 53 53 53 53 53 41 39 49 55 55 49 20 51 54 66 63 56 58 58 65 56 48 48 48 44 47 47 45 48 50 44 49 46 45 39 40
53 53 53 53 53 52 53 53 53 53 52 53 53 52 52 47 41 45 54 52 46 33 23 47 56 54 53 56 57 59 59 60 58 48 48 47 52 50 50 51 51 50 45 44 43 39 31
52 52 53 53 52 52 53 52 52 52 52 52 52 52 50 50 39 51 51 44 31 26 49 47 48 53 51 50 52 54 51 47 42 36 36 43 46 49 51 43 46 44 38 31 30 30 28
52 52 52 52 52 52 52 52 52 52 52 52 51 50 46 48 45 50 46 35 24 39 43 53 53 52 46 53 52 51 48 42 45 43 37 34 33 44 50 46 41 39 38 32 27 27 31
52 52 52 52 52 52 52 52 52 51 51 51 50 40 40 44 47 46 36 26 30 39 45 43 49 46 46 52 51 49 46 46 47 46 38 35 37 48 50 50 48 40 34 43 34 35 30
52 52 52 51 51 51 51 51 51 51 51 51 38 37 38 47 46 41 32 29 36 46 46 46 39 45 39 43 44 47 46 49 48 50 48 43 35 47 51 51 49 46 46 34 35 27 27
51 51 51 51 51 51 51 51 51 51 51 50 37 34 43 46 44 36 27 30 39 47 47 41 40 41 42 41 43 42 44 48 50 50 50 44 40 39 46 45 42 44 37 37 37 34 28
51 51 50 50 50 51 51 51 50 50 50 44 36 28 42 48 29 31 26 36 43 43 47 44 46 45 43 43 40 42 43 46 53 52 43 46 40 32 39 51 53 50 45 41 33 33 35
51 51 51 51 51 50 50 50 50 50 49 38 34 34 42 43 25 27 35 37 41 40 41 42 41 44 45 41 36 42 44 50 52 47 43 44 36 30 35 43 46 42 46 45 43 39 33
50 50 50 50 50 50 50 49 50 49 49 39 33 27 31 35 34 32 31 33 35 46 43 45 43 45 43 40 44 40 42 51 51 49 49 48 39 35 28 35 39 36 39 42 39 34 34
50 50 50 50 50 50 50 50 50 49 49 39 33 26 32 27 31 32 33 34 32 34 43 45 41 42 40 35 38 37 43 45 50 48 46 43 33 37 40 43 44 42 42 40 37 39 35
50 50 50 50 50 49 50 50 50 49 49 37 30 27 31 30 36 33 34 33 34 37 39 38 36 40 39 35 35 32 39 39 39 45 41 43 33 37 35 43 44 41 44 43 39 40 39
50 49 49 49 49 50 50 50 50 48 47 36 38 36 31 30 31 30 31 35 35 38 41 44 43 38 35 39 41 42 41 42 42 39 38 38 35 31 29 39 39 33 41 44 43 44 41
49 49 49 49 49 49 50 49 49 48 46 39 38 33 28 23 27 32 35 37 37 39 34 41 43 37 43 47 45 44 43 43 42 42 43 37 35 34 28 33 24 42 51 52 48 50 48
49 49 49 49 49 49 49 49 49 49 47 42 36 34 32 19 30 32 34 36 38 39 40 40 43 45 45 42 35 32 31 33 37 41 40 41 35 27 25 27 35 42 49 47 46 43 49
48 48 48 48 48 48 48 49 49 49 48 44 42 37 35 30 26 37 33 35 29 29 32 39 42 43 42 35 30 24 24 31 31 36 43 40 37 30 25 24 20 38 51 56 54 35 48
48 48 48 48 48 48 48 48 49 49 49 45 42 40 35 30 33 35 30 31 36 33 29 33 35 35 38 30 28 24 25 37 28 30 30 28 27 28 25 23 31 45 48 53 36 35 47
47 47 47 47 48 48 48 48 48 49 49 46 42 45 38 30 36 39 40 34 35 35 30 34 30 32 34 26 26 28 24 31 31 36 33 32 29 26 27 24 24 45 46 39 41 45 46
47 47 47 47 47 47 48 48 48 48 49 48 39 45 44 34 34 41 42 43 42 43 36 37 33 34 36 33 31 31 25 26 30 26 40 30 34 31 33 32 41 45 44 47 46 43 44

GFSGBSN_sfc_temp_087.txt.gz
Temp
59 58 58 59 58 58 59 58 58 57 57 57 57 57 57 57 57 57 57 56 56 57 57 57 57 58 52 44 48 64 68 68 64 64 62 61 58 57 52 55 56 52 56 60 62 62 60
58 58 58 58 58 57 58 57 57 57 57 57 57 57 57 57 57 56 56 56 56 56 56 57 57 57 50 36 62 64 63 63 64 61 61 61 60 61 57 57 55 59 60 60 62 62 63
58 58 58 57 57 57 57 57 57 57 57 57 57 56 56 56 56 56 55 55 55 55 56 56 57 55 47 43 59 61 61 59 64 64 60 64 65 58 58 55 62 61 54 58 57 59 58
57 57 58 57 57 56 56 56 56 56 56 56 56 56 55 55 55 55 55 54 54 55 56 56 57 52 43 61 58 56 56 56 62 63 64 66 66 60 57 60 58 53 51 44 55 58 61
57 57 57 57 57 56 56 56 56 56 56 55 55 55 55 55 54 54 54 54 54 55 56 57 51 49 41 63 57 61 59 59 62 63 64 72 63 56 55 48 44 44 38 43 50 58 58
57 56 56 56 56 56 56 56 56 55 55 55 55 55 55 54 54 54 53 53 54 55 56 57 55 44 50 56 64 67 62 65 63 61 59 58 52 47 44 43 36 41 40 37 43 50 53
55 55 55 55 55 55 56 56 55 54 54 54 55 55 55 54 54 53 51 43 46 45 48 45 48 47 53 61 65 62 65 63 63 56 46 50 43 38 45 48 49 47 44 41 45 55 51
55 55 55 55 55 55 55 55 54 54 54 54 54 54 54 54 53 53 45 44 48 47 37 50 50 51 56 58 50 57 63 55 53 47 50 45 39 48 50 50 48 47 43 41 48 53 51
54 54 54 54 54 54 54 54 54 53 53 53 53 53 53 53 53 45 41 47 55 53 37 45 51 50 52 54 47 51 57 53 50 46 46 42 47 52 50 47 46 44 42 42 44 47 47
54 54 54 53 53 53 53 53 53 53 53 53 53 53 52 52 44 40 41 52 54 53 31 38 44 50 54 55 46 60 61 56 51 46 46 43 51 50 46 46 47 39 47 47 45 40 33
54 54 53 53 53 53 52 53 53 53 53 53 52 53 52 52 40 37 45 52 53 47 17 47 49 61 57 52 54 52 60 53 46 48 47 43 46 44 44 46 49 43 48 45 43 36 35
53 53 53 53 53 52 52 52 53 53 52 52 52 52 52 45 39 42 46 49 47 30 21 42 52 48 48 52 54 56 54 56 54 47 46 47 51 49 48 48 48 48 44 43 41 37 27
52 52 52 52 52 52 52 52 52 52 52 52 52 52 49 48 38 43 47 40 28 23 44 43 45 50 48 47 49 51 49 45 39 34 35 42 43 48 50 42 46 42 37 23 23 28 27
52 52 52 52 52 52 52 52 52 52 52 52 51 51 46 46 42 43 41 33 21 35 38 49 47 45 43 49 49 49 45 41 43 40 35 33 32 44 49 45 41 39 37 26 22 26 30
52 52 52 52 52 52 51 51 51 51 51 51 50 39 38 39 44 41 33 25 28 36 41 40 43 43 43 47 46 48 44 42 44 44 37 34 36 46 48 48 47 38 33 41 32 33 30
52 52 51 51 51 51 51 51 51 51 51 51 37 35 35 43 43 37 28 27 34 44 43 42 34 42 36 40 41 42 43 46 44 48 46 42 35 45 47 49 48 42 44 32 34 25 24
51 51 51 51 51 50 51 51 51 51 50 50 35 33 40 42 42 34 21 28 37 45 45 38 33 38 41 39 41 41 42 46 49 48 49 44 40 39 45 41 39 38 34 36 36 34 29
51 51 51 50 51 51 51 50 50 50 50 42 34 25 41 43 30 25 23 35 41 41 46 42 41 42 39 41 39 40 40 46 52 50 43 45 39 32 37 48 48 44 39 38 31 31 35
50 50 51 50 50 50 50 50 50 50 49 36 32 33 43 41 25 22 32 35 39 38 40 39 39 41 44 39 36 41 42 50 51 47 43 44 35 30 33 39 43 38 41 43 41 37 32
50 50 50 50 50 50 50 50 50 50 49 37 32 26 32 34 34 30 30 32 33 43 41 43 42 44 40 39 42 38 41 47 48 47 48 47 37 33 26 31 38 36 40 42 40 33 34
50 50 50 50 50 50 50 50 50 50 49 37 33 25 30 25 29 30 31 32 31 33 41 43 40 39 36 32 35 33 39 43 47 47 45 41 33 35 37 39 40 39 40 41 36 37 34
49 50 49 49 49 49 49 50 50 50 48 36 28 29 32 30 34 31 30 30 31 34 37 37 35 39 37 33 34 32 36 37 38 43 40 41 33 33 32 39 39 37 41 42 43 41 39
49 49 49 49 49 49 50 50 50 50 46 37 36 36 33 30 30 28 29 30 30 35 39 41 38 36 35 37 40 41 41 41 39 37 37 37 33 30 28 35 35 30 37 41 42 43 42
48 49 49 49 49 49 49 49 49 49 47 39 37 38 30 23 28 30 33 35 35 36 34 39 41 37 43 46 44 42 41 41 39 39 41 35 33 31 26 30 21 38 48 50 44 47 47
48 48 49 49 49 49 48 49 49 49 49 41 39 35 31 21 30 31 32 34 36 36 36 39 42 42 43 41 34 32 32 34 37 39 37 39 33 26 24 26 32 38 45 42 42 41 48
48 48 49 49 48 48 48 48 49 49 49 43 41 41 33 23 25 35 32 34 28 29 32 35 42 42 41 33 30 25 25 31 31 35 39 36 35 29 25 23 18 35 45 49 50 35 45
48 48 48 48 48 48 48 48 49 49 49 45 42 45 36 22 31 34 29 31 34 32 29 34 33 34 37 30 26 25 26 35 28 30 30 28 28 27 25 25 29 41 43 48 34 34 44
48 48 47 47 47 48 48 48 48 49 49 46 42 45 37 27 30 37 38 32 33 32 26 32 30 30 32 28 26 27 24 30 29 33 32 28 26 24 27 25 23 43 43 36 38 42 43
47 47 47 47 47 47 47 48 48 48 49 48 40 44 44 35 32 38 41 42 40 39 33 33 32 33 35 32 31 32 26 25 28 23 36 24 32 31 33 30 41 43 42 44 45 42 43

GFSGBSN_sfc_temp_090.txt.gz
Temp
58 58 58 58 57 57 58 57 57 57 56 56 56 57 57 57 57 57 56 56 56 56 56 56 57 57 51 42 46 63 65 64 63 62 60 59 55 53 49 51 53 48 53 56 60 60 59
57 57 57 57 57 57 57 57 56 56 56 56 56 56 56 56 56 56 56 55 55 55 56 56 57 57 48 35 60 63 59 59 61 59 59 60 58 58 53 53 51 55 56 59 59 59 58
57 57 57 57 56 56 56 56 56 56 56 56 56 56 56 56 56 55 55 55 55 55 55 56 56 54 46 42 59 60 60 57 57 59 57 61 62 57 55 52 58 57 51 54 54 56 55
57 57 57 56 56 56 56 56 56 56 56 55 56 55 55 55 55 54 54 54 54 55 56 56 56 52 41 59 60 57 58 54 57 59 61 63 63 57 54 57 56 49 48 41 52 55 58
56 56 56 56 55 55 56 56 56 55 55 55 55 55 54 54 54 54 54 54 54 56 57 56 51 47 40 61 55 60 57 54 60 60 61 68 60 53 51 45 41 43 37 41 47 56 54
55 55 55 55 55 55 55 55 55 54 54 54 54 54 54 54 54 53 53 53 54 54 55 55 55 42 49 53 61 65 58 60 59 58 57 56 51 45 42 40 33 38 38 36 40 47 49
55 55 55 55 55 55 55 56 54 54 54 54 54 54 54 54 53 53 49 43 45 41 44 39 42 44 47 57 64 59 63 61 60 56 45 50 42 36 41 46 48 44 42 41 41 52 48
54 54 54 54 54 55 55 55 54 53 53 53 53 53 53 53 53 52 42 38 45 42 34 45 45 45 51 55 47 54 61 53 53 46 50 45 39 47 50 48 46 45 41 39 46 50 48
53 54 54 54 54 54 54 54 53 53 53 53 53 53 53 52 52 43 38 41 52 50 34 41 49 48 49 51 44 48 55 53 50 47 45 42 47 51 49 45 43 41 40 40 42 45 45
54 53 54 53 53 53 53 53 53 53 53 52 52 52 52 52 43 39 38 47 49 51 30 37 41 46 51 51 42 56 59 55 49 45 46 43 50 48 44 44 45 38 47 46 43 38 31
53 54 53 53 52 52 52 52 53 53 52 52 52 52 52 52 43 39 43 47 49 45 17 43 46 57 53 47 50 48 59 53 46 46 46 42 45 43 42 45 48 42 48 45 43 36 33
52 52 52 52 52 52 52 52 52 52 52 52 52 52 52 44 38 40 43 46 43 30 19 38 46 44 43 46 49 52 52 55 53 46 44 45 48 47 46 46 48 48 44 42 39 36 26
52 51 52 52 52 52 52 52 52 52 52 51 51 51 49 46 38 41 43 36 26 21 40 38 39 46 42 44 47 48 46 43 39 35 34 40 42 46 49 42 45 43 38 23 22 28 24
52 52 52 52 52 52 51 51 51 51 51 51 51 50 45 45 40 41 38 29 20 32 34 42 41 41 38 46 45 47 44 38 41 39 33 31 30 43 48 44 40 38 38 27 22 25 29
51 52 52 52 51 51 51 51 51 51 51 51 49 37 36 39 41 40 32 20 26 32 38 34 39 36 40 43 43 45 42 40 43 43 35 32 33 43 47 46 46 37 33 39 31 31 25
51 52 51 51 51 50 50 51 51 51 51 50 36 35 34 41 41 37 28 24 30 40 41 36 30 34 32 38 39 40 41 43 44 46 45 41 33 43 44 48 46 43 44 30 33 25 24
51 51 50 51 50 50 50 51 51 50 50 49 34 30 39 41 43 34 19 23 33 42 43 33 30 31 34 37 39 37 38 45 46 46 47 43 39 37 43 40 37 38 35 35 36 33 27
50 50 50 50 50 50 50 50 50 50 49 41 33 24 38 41 27 30 19 31 39 38 43 36 34 33 32 37 37 37 38 43 50 48 41 44 38 32 37 44 47 43 38 37 27 27 33
50 50 50 50 50 50 50 50 50 49 48 34 30 32 39 40 24 25 29 32 36 35 38 38 33 34 36 33 32 40 37 46 47 45 41 44 35 30 33 39 43 39 40 43 39 35 31
50 50 50 50 50 50 50 50 50 50 48 36 32 23 28 35 34 29 28 29 30 40 38 40 38 37 33 35 39 35 39 45 47 46 47 47 37 34 27 31 38 35 40 41 38 30 33
50 50 50 49 50 49 50 50 50 50 49 39 32 24 30 21 25 28 30 30 30 31 40 39 33 34 34 30 34 32 38 41 46 45 44 42 32 36 37 38 38 37 37 38 36 36 32
49 49 50 49 49 49 49 49 50 49 49 38 28 28 29 27 31 29 30 27 27 30 34 34 33 38 37 33 34 32 35 36 35 41 40 41 31 33 32 38 36 33 37 37 38 40 39
49 49 49 49 49 49 49 49 49 49 46 37 36 37 30 28 28 26 29 31 30 35 35 39 37 36 34 36 38 39 39 39 39 37 36 36 33 30 29 33 33 29 33 38 39 40 39
48 48 48 49 49 49 49 49 49 48 47 39 38 36 29 20 26 29 31 32 32 34 32 38 39 35 39 43 42 40 39 39 38 39 40 34 33 30 26 30 19 36 44 43 40 43 44
48 48 48 49 48 49 49 48 48 49 49 40 39 36 30 18 29 30 30 32 33 35 34 35 38 39 41 39 33 32 32 33 36 38 36 38 32 26 23 25 31 37 41 39 36 38 43
48 48 48 48 49 48 48 48 48 48 49 43 40 41 35 23 24 32 30 31 29 29 31 34 41 40 39 32 29 25 25 30 30 33 36 34 34 29 25 22 16 33 41 45 43 32 40
47 48 48 48 49 48 48 48 48 48 49 44 41 43 36 28 30 32 29 29 33 30 28 32 33 33 36 29 25 25 26 33 27 29 29 27 28 28 25 26 29 39 41 45 29 30 40
47 47 47 47 48 47 48 48 48 48 48 45 41 44 37 30 30 35 36 32 32 31 25 31 30 30 32 27 27 27 24 29 29 32 31 28 25 24 29 25 21 39 40 33 38 41 41
47 47 47 47 47 47 47 48 48 48 48 48 40 43 43 35 33 36 38 41 39 37 32 32 30 30 34 27 30 30 28 26 28 25 35 23 31 30 30 30 39 40 38 41 42 38 40

GFSGBSN_sfc_temp_093.txt.gz
Temp
58 58 58 57 57 57 57 57 57 56 56 56 56 56 56 57 57 57 56 56 56 56 56 56 57 57 54 44 47 65 65 63 66 63 61 61 59 59 55 57 58 55 59 60 65 65 64
57 57 57 57 57 57 57 56 56 56 56 56 56 56 56 56 56 56 55 55 55 55 55 56 57 57 48 35 61 63 61 61 63 62 62 63 62 64 59 58 57 59 60 63 65 64 63
57 57 57 56 56 56 56 56 56 56 56 55 55 55 55 55 55 55 55 54 54 55 55 56 57 54 46 44 61 63 62 60 61 62 59 64 66 62 61 57 62 61 55 60 60 63 61
57 57 56 56 55 55 55 55 56 55 55 55 55 55 54 54 54 54 54 53 54 55 56 57 57 52 42 59 61 58 59 57 59 60 60 63 66 62 59 62 59 56 54 48 58 62 63
56 56 56 55 55 55 55 55 55 55 55 54 54 54 54 54 53 53 53 53 54 55 56 56 52 48 42 60 55 61 60 54 59 58 59 68 63 58 57 52 50 50 46 47 52 61 62
55 55 55 55 55 55 55 55 55 54 54 54 54 54 54 54 53 53 52 53 54 55 56 56 56 42 49 51 58 61 61 59 57 57 57 56 57 51 51 49 40 44 45 48 50 58 58
55 55 55 54 54 55 55 55 54 53 53 54 54 54 53 53 53 53 48 46 46 44 44 39 42 43 48 56 61 57 63 59 57 56 48 53 47 44 48 51 52 51 49 48 52 57 54
54 54 54 54 54 54 55 55 54 53 53 53 53 53 53 53 52 51 45 42 43 42 33 44 43 43 50 55 46 54 61 52 52 46 51 47 43 51 53 52 51 50 48 48 52 55 54
53 53 53 54 53 54 54 53 53 53 53 53 53 53 53 52 52 45 41 43 49 48 33 40 46 46 48 49 41 45 57 55 51 45 46 46 49 53 50 48 46 48 47 46 48 52 53
54 53 53 53 53 53 53 53 53 53 53 53 52 52 52 51 45 42 41 48 48 48 29 37 42 47 51 51 40 52 58 56 52 46 45 44 53 49 47 47 49 42 51 50 48 46 41
53 53 53 52 52 52 52 52 52 52 52 52 52 52 51 51 42 40 45 46 48 44 17 44 46 57 53 46 49 49 59 55 48 47 48 45 46 46 43 47 51 47 51 50 48 45 42
52 53 52 52 52 52 52 52 52 52 52 52 52 52 51 45 41 44 45 45 42 28 18 38 48 42 42 47 48 50 50 57 56 48 49 49 54 51 50 48 52 51 48 45 44 42 34
51 51 51 52 52 52 52 52 51 51 51 52 51 51 49 48 39 44 44 40 27 20 40 35 36 43 39 40 45 45 43 43 43 37 38 44 47 50 51 45 49 48 43 34 31 31 34
51 52 51 52 52 51 51 51 51 51 51 51 51 50 44 45 43 44 42 32 19 32 33 40 38 38 33 44 46 46 42 41 45 43 39 37 33 46 50 48 44 44 45 36 28 30 34
51 51 51 51 51 51 51 51 51 51 51 51 49 39 39 42 43 43 33 20 26 31 34 33 36 34 33 42 42 44 43 42 46 46 39 36 37 48 49 49 51 42 39 44 36 35 33
50 51 51 51 51 51 50 50 51 51 51 50 38 36 37 42 43 40 28 25 30 38 38 37 28 32 30 34 38 43 42 44 45 48 50 44 35 44 46 51 49 47 48 36 35 27 25
51 51 50 50 50 50 50 50 50 50 50 48 36 32 40 43 42 33 23 25 31 40 41 32 28 27 32 31 35 36 38 45 47 47 50 47 43 39 46 44 41 42 40 39 40 36 30
50 50 50 50 50 50 50 50 50 50 49 41 34 24 40 43 29 31 26 30 38 36 40 39 35 32 31 32 32 35 35 41 48 48 43 46 42 35 38 46 49 46 41 41 36 30 35
50 50 50 50 50 50 50 50 50 50 48 36 30 31 41 41 22 25 32 32 35 34 35 38 35 35 34 32 31 35 36 46 48 45 42 45 38 32 33 42 47 42 44 44 40 37 32
50 50 50 50 50 50 50 50 50 50 47 38 30 22 31 34 34 28 28 30 28 38 37 39 37 35 33 32 36 33 33 43 47 46 46 46 40 37 32 35 41 38 41 44 41 32 35
49 50 50 50 50 49 49 49 49 49 49 41 32 24 31 22 26 28 31 28 26 27 36 37 34 35 33 30 32 32 37 40 45 45 46 44 34 38 39 41 41 40 40 41 38 40 34
49 49 48 49 50 49 49 49 49 49 49 38 30 29 32 29 31 29 31 28 27 31 32 33 32 34 37 33 33 31 36 37 37 43 42 44 35 38 36 39 40 37 41 40 41 42 41
49 49 49 49 49 49 49 49 49 49 46 38 37 37 32 30 30 27 28 30 30 34 36 38 37 35 35 36 38 40 42 41 40 38 39 39 37 35 31 37 37 33 38 41 42 44 44
48 49 48 49 49 49 49 49 49 49 47 41 39 36 30 24 29 30 31 32 31 34 32 38 39 35 41 43 43 42 41 40 40 41 42 37 36 35 30 33 22 39 47 46 43 45 45
48 48 48 48 49 48 49 48 48 48 48 41 39 36 32 24 31 31 32 32 34 35 35 36 39 41 42 39 36 35 35 37 37 39 39 41 37 31 28 29 34 39 42 41 40 41 42
48 48 48 48 48 48 49 48 48 48 48 42 40 41 35 28 28 33 31 33 30 30 32 36 42 42 40 35 33 28 26 31 32 35 39 38 38 34 30 25 22 36 42 47 45 36 41
48 48 48 48 48 48 48 48 48 48 48 44 41 43 36 30 34 34 32 31 35 33 30 33 34 35 38 31 30 28 28 35 29 30 31 32 32 29 28 27 33 38 42 46 33 34 41
47 47 47 48 47 47 48 48 48 48 48 44 41 43 38 32 34 36 38 34 35 34 29 34 32 32 33 29 30 30 28 31 31 34 32 31 29 27 30 26 23 40 43 36 39 40 40
47 47 47 47 47 47 47 47 48 48 48 48 40 43 43 36 34 38 40 42 41 41 35 34 31 32 35 31 32 31 30 31 29 28 38 30 32 30 32 31 35 37 36 37 39 35 36

GFSGBSN_sfc_temp_099.txt.gz
Temp
59 59 58 58 58 58 57 57 57 56 56 56 56 56 56 56 56 56 56 55 55 56 56 57 57 57 61 61 65 83 67 70 77 76 74 74 70 70 66 71 74 72 74 77 79 80 81
59 58 58 57 57 57 57 56 56 56 56 55 55 55 55 56 56 55 55 55 55 55 56 57 57 57 59 52 79 82 79 77 77 77 74 75 72 76 71 70 70 75 75 75 78 78 77
58 58 57 57 57 57 56 56 56 56 55 55 55 55 55 55 55 55 55 54 54 54 55 56 57 61 57 60 80 82 80 77 78 76 72 77 78 73 73 67 75 73 68 73 74 75 75
58 57 57 56 56 56 55 55 55 55 55 55 55 55 54 54 54 54 54 54 54 55 55 57 57 63 52 75 80 75 77 74 77 77 74 77 78 72 70 74 71 66 66 59 71 73 75
57 57 57 56 55 55 55 55 55 54 54 55 54 54 54 54 54 54 53 54 54 55 57 58 60 59 53 71 67 74 74 68 73 74 73 75 71 65 67 60 59 62 55 58 63 75 73
57 57 56 55 55 55 55 55 54 54 54 54 54 54 54 54 53 53 53 53 59 59 62 68 66 53 60 61 71 72 76 72 66 67 65 64 63 58 59 58 47 55 55 60 61 71 73
57 56 55 55 55 55 55 55 54 54 54 54 54 54 53 53 53 53 55 68 61 60 60 52 56 57 61 68 70 66 71 68 67 62 54 59 53 50 57 60 62 57 57 54 62 70 67
56 56 55 55 55 55 55 54 54 54 54 54 54 53 53 53 53 53 60 57 53 53 40 55 57 58 62 64 55 62 69 55 57 51 59 55 49 60 64 64 59 56 42 48 60 66 66
55 55 55 55 54 54 54 54 53 53 53 53 53 53 53 52 52 56 60 58 65 61 42 49 59 58 59 61 55 58 63 59 54 52 53 51 57 63 61 60 55 52 46 50 53 59 62
54 54 54 54 54 53 53 53 53 53 53 53 53 53 52 52 52 60 59 63 63 59 34 48 55 56 59 60 52 66 68 59 55 51 55 56 63 60 58 56 59 48 58 54 53 49 43
53 54 53 53 53 52 52 52 52 52 52 52 52 52 52 51 56 57 59 63 61 52 24 53 54 65 61 55 58 59 66 60 51 53 52 52 57 57 55 56 59 54 60 55 53 53 53
53 54 53 53 52 52 52 52 52 52 52 52 52 52 52 61 61 61 62 60 56 31 26 45 52 50 51 55 55 59 58 63 62 55 57 55 65 62 59 60 59 60 55 56 56 53 42
53 53 53 52 52 52 52 52 51 52 52 52 52 52 53 61 54 62 60 56 38 32 49 42 43 49 48 39 43 51 50 49 48 41 41 49 48 62 61 54 56 54 48 37 34 37 39
52 52 52 52 52 52 52 51 51 51 51 52 51 50 53 62 62 59 57 46 31 40 40 48 46 46 38 39 42 39 48 47 54 54 46 38 37 52 57 53 48 51 49 38 31 34 41
52 52 52 52 52 52 51 51 51 51 51 51 50 61 61 59 59 59 51 35 35 40 45 41 43 38 35 38 36 36 48 50 54 57 37 40 41 53 57 59 57 50 45 54 41 47 44
52 52 52 52 51 51 51 51 51 51 51 50 57 59 58 58 59 54 44 37 41 47 46 45 31 35 26 32 33 38 49 55 54 57 54 53 37 52 55 60 59 54 57 43 47 33 35
51 52 52 51 51 51 51 50 50 50 51 50 56 53 56 59 57 49 35 41 44 49 48 41 34 31 32 30 32 37 41 56 57 58 61 55 47 46 53 49 49 52 48 51 51 46 37
51 51 51 50 51 51 51 50 50 50 50 48 55 44 57 59 42 45 41 44 45 46 49 45 43 35 30 31 31 32 35 41 57 58 52 56 48 41 46 58 55 57 51 51 41 40 45
51 51 51 50 50 50 50 50 50 50 49 57 49 52 58 54 35 39 46 45 47 45 44 43 36 37 35 32 30 33 34 45 50 52 50 53 47 39 39 49 53 51 53 56 52 48 42
51 50 50 51 50 50 50 50 50 50 50 52 51 38 52 54 47 41 39 40 39 48 44 41 38 41 38 35 39 32 33 43 50 50 47 50 49 46 38 43 51 46 52 53 51 44 45
50 50 51 50 50 50 50 50 50 50 50 51 48 39 46 38 43 42 41 39 35 36 46 48 44 45 41 33 34 32 38 39 46 48 44 46 38 39 49 54 53 50 48 50 47 50 43
50 50 50 50 50 50 50 50 49 50 50 48 35 46 50 45 45 43 41 38 37 42 43 41 39 45 46 39 37 33 39 39 35 43 40 46 41 45 44 51 51 47 50 50 50 50 50
49 49 50 50 50 50 50 50 50 49 49 49 52 53 46 44 44 43 43 41 41 45 46 48 46 45 44 44 47 47 49 48 46 43 42 44 44 41 37 47 48 39 47 50 52 53 52
49 49 49 49 49 50 50 49 49 49 49 54 54 51 39 38 46 43 43 44 43 45 42 48 50 44 49 55 56 55 51 51 52 50 50 44 45 45 38 42 32 46 56 55 51 50 51
49 49 49 50 49 49 49 49 49 49 49 48 54 48 42 34 47 44 43 44 47 48 47 47 49 52 54 52 46 44 43 43 48 49 49 50 46 41 38 39 43 46 48 48 47 41 49
49 49 49 49 49 49 48 48 49 49 49 48 49 52 46 36 43 45 43 46 43 44 45 47 54 56 53 49 44 36 34 40 39 44 53 51 50 45 41 35 29 36 47 55 55 38 45
49 49 49 49 48 48 48 48 49 49 49 48 47 47 45 38 49 47 42 42 47 45 44 47 46 47 52 42 37 37 36 45 36 37 39 41 41 37 39 37 37 36 46 52 39 31 42
48 48 48 48 48 48 47 47 49 49 49 49 43 47 42 40 47 49 50 45 46 47 39 45 44 44 41 37 38 36 35 40 39 43 39 38 34 36 39 36 29 37 46 36 32 36 38
47 48 48 48 48 48 47 48 48 48 48 49 42 46 45 39 45 51 52 53 52 51 47 48 41 43 43 38 40 35 35 38 40 31 47 34 37 33 32 29 34 37 35 36 37 34 35

GFSGBSN_sfc_temp_102.txt.gz
Temp
61 60 59 59 58 58 58 57 56 56 56 56 56 56 56 56 56 56 56 55 56 56 56 57 57 58 59 58 61 80 67 68 74 75 71 69 67 68 62 66 69 67 71 75 78 78 78
60 59 58 58 58 58 57 57 56 56 56 55 56 55 55 56 56 55 55 55 55 55 55 56 57 57 57 48 76 83 81 79 78 76 73 72 68 71 67 67 65 70 72 73 76 77 78
59 58 58 58 57 57 57 56 56 56 55 55 55 55 55 55 55 55 55 55 54 55 56 57 57 60 55 55 77 78 77 76 78 76 70 74 76 69 69 63 71 70 64 69 72 74 74
59 58 58 57 57 56 56 56 55 55 55 55 55 54 54 54 54 54 54 54 54 55 56 57 57 59 51 72 76 74 75 74 77 77 74 75 74 69 67 69 66 63 63 56 68 72 74
58 58 57 57 56 56 56 56 55 54 54 55 54 54 54 54 54 54 53 54 54 56 57 58 57 56 51 73 66 74 76 69 72 73 73 75 70 62 64 58 54 58 51 55 60 71 70
57 57 57 56 56 56 56 56 55 54 54 54 54 54 54 54 54 53 52 54 58 60 64 66 65 54 61 59 71 71 74 72 67 67 64 64 61 54 56 53 42 48 51 56 57 66 68
56 56 56 56 56 56 56 56 54 54 54 54 54 54 54 54 53 53 55 66 57 58 58 52 55 56 58 65 68 65 69 66 65 60 51 58 50 45 50 54 56 56 55 55 61 61 60
55 55 55 55 56 55 56 55 54 54 54 53 53 53 53 53 53 53 56 57 56 56 43 56 57 57 61 64 54 61 70 57 54 47 54 51 40 52 56 56 55 55 53 53 54 59 58
54 55 54 55 55 55 54 54 54 53 53 53 53 53 53 53 53 57 61 58 65 61 44 49 58 60 61 62 51 58 64 59 50 47 48 45 50 56 55 53 52 54 52 49 49 54 47
54 53 54 55 54 54 54 54 53 53 53 53 52 53 52 52 51 61 60 64 64 60 36 50 54 53 54 60 54 66 66 60 51 46 49 49 57 52 53 51 55 49 60 55 52 40 36
53 53 53 53 53 53 53 53 53 52 52 52 52 52 52 52 52 58 60 63 63 55 26 53 56 67 63 55 56 58 64 54 46 49 50 46 51 49 50 53 59 54 61 55 53 44 41
52 52 53 52 53 52 52 52 52 52 52 52 52 52 52 59 57 62 63 61 55 33 28 45 54 51 50 53 53 54 54 58 56 51 53 51 60 50 55 60 61 62 51 50 49 45 31
52 52 52 52 52 52 52 52 52 52 52 52 52 52 53 59 54 62 60 55 36 32 49 42 43 49 47 44 43 46 40 39 37 38 39 47 47 53 61 54 59 56 46 34 31 29 31
51 52 52 52 52 52 52 52 52 51 51 51 51 51 56 64 62 60 56 45 32 41 41 48 46 46 39 38 39 38 38 41 51 50 45 39 31 43 57 56 51 50 48 36 28 30 36
52 52 52 52 52 52 52 52 51 51 51 51 51 57 58 60 60 58 50 37 36 41 46 42 45 37 35 40 36 37 42 44 52 53 38 34 33 53 59 60 57 49 43 52 35 41 33
52 52 52 52 52 52 52 51 51 51 51 51 54 58 58 60 60 54 45 39 43 49 48 47 34 37 30 34 32 38 39 56 53 55 50 42 33 52 54 58 57 51 54 35 35 29 27
52 52 52 52 51 51 51 51 51 51 51 51 52 52 56 62 58 51 36 41 46 53 51 43 38 34 36 31 33 32 35 45 50 51 53 47 43 45 49 39 44 46 39 41 42 42 32
52 51 51 51 51 51 51 51 51 51 51 49 54 43 58 60 42 46 42 45 47 49 52 48 46 40 33 32 33 31 31 36 45 54 45 55 46 38 44 48 55 52 46 46 34 39 40
51 51 51 51 51 51 51 51 50 50 51 54 50 52 58 55 36 40 48 47 49 47 47 44 42 43 39 32 30 34 34 41 49 50 43 48 44 31 38 47 46 46 49 52 49 41 41
51 51 51 51 51 51 51 51 50 50 51 50 50 38 51 53 48 43 41 42 41 51 47 48 46 46 44 36 42 34 33 38 49 48 47 49 44 37 34 41 42 37 40 45 47 35 40
50 51 51 51 50 51 51 50 50 50 51 49 48 40 48 39 43 44 45 42 39 39 49 51 45 46 43 33 36 35 39 40 47 46 45 44 33 39 42 47 48 42 41 44 47 48 34
50 50 50 50 50 51 50 50 50 50 50 51 35 45 50 46 48 45 42 40 40 44 45 43 43 46 46 39 38 34 40 41 38 43 39 43 34 34 34 49 44 41 48 48 50 50 49
50 50 50 50 50 50 50 50 50 50 49 51 54 54 48 45 47 43 43 43 43 46 48 50 48 45 43 43 46 47 50 49 46 40 40 39 40 37 35 47 45 36 46 48 46 47 45
50 49 50 50 50 50 50 50 49 50 49 51 53 50 43 38 45 45 45 46 45 46 43 48 51 45 49 55 54 56 53 52 52 50 51 41 42 43 36 40 26 43 53 48 44 44 47
49 49 50 50 50 50 50 49 49 49 49 50 51 47 42 36 46 46 45 45 48 50 48 48 51 52 55 51 45 41 42 40 47 50 50 50 43 38 34 35 39 43 43 40 38 34 43
48 49 49 49 49 49 49 49 49 49 49 49 51 53 45 37 40 48 45 46 42 43 45 48 55 55 53 47 42 34 33 39 38 44 54 51 49 41 40 33 26 33 41 49 49 29 39
49 49 49 49 49 49 48 48 49 49 49 50 47 52 47 36 48 48 42 41 47 44 42 46 46 47 51 40 36 34 31 44 33 36 37 39 39 35 37 35 32 36 43 47 34 27 38
49 49 49 49 48 48 48 48 49 49 49 49 47 51 47 40 46 50 50 45 46 46 38 44 42 42 40 35 36 36 35 39 38 42 40 34 32 32 34 31 25 38 42 32 31 35 36
48 48 48 48 48 48 47 47 47 49 49 48 43 47 46 38 43 49 51 53 51 51 45 45 43 42 43 37 36 36 33 38 39 30 45 32 37 33 31 28 34 37 35 36 37 34 35

GFSGBSN_sfc_temp_105.txt.gz
Temp
61 61 60 59 59 58 58 58 57 56 56 56 56 56 56 56 56 56 56 55 55 56 56 56 57 57 52 47 50 68 68 67 66 66 63 61 57 55 52 56 58 56 61 65 68 69 70
60 60 59 59 58 58 58 57 56 56 55 55 55 55 55 55 55 55 55 55 55 55 55 56 57 57 47 39 65 72 70 66 66 64 63 63 59 60 56 56 56 61 62 63 66 67 70
60 59 59 58 58 58 57 57 56 56 55 55 55 55 55 55 55 55 55 55 54 55 55 56 57 55 47 46 64 67 67 64 67 67 63 66 65 58 57 54 62 61 55 60 62 65 64
59 59 58 58 57 57 57 56 56 55 55 55 55 55 54 54 54 54 54 54 54 55 56 57 57 52 42 65 62 66 65 65 69 69 67 67 67 60 56 58 56 52 53 45 59 62 65
59 58 58 57 57 56 56 56 55 55 55 54 54 54 54 54 54 53 53 54 54 55 57 57 50 48 43 67 62 67 66 62 65 67 66 72 65 55 54 46 42 46 39 44 51 63 61
58 58 58 57 56 56 56 56 55 55 54 54 54 54 54 54 53 53 53 54 55 57 60 62 60 45 55 54 62 64 66 66 60 60 59 59 55 47 47 41 30 37 40 44 45 54 60
58 58 57 56 56 56 56 56 55 54 54 54 54 54 54 54 54 53 50 49 45 46 48 44 48 48 51 59 64 60 64 61 59 53 43 50 41 39 41 45 46 45 44 44 50 58 53
57 56 56 56 56 56 56 56 55 54 54 54 54 53 53 53 53 53 48 46 49 47 36 50 52 53 58 59 53 57 63 51 52 43 47 41 36 46 51 50 46 44 42 42 50 58 48
55 55 55 55 55 55 55 55 54 54 53 53 53 53 53 53 53 49 48 51 55 53 35 46 55 57 57 56 51 53 60 55 47 39 42 38 40 50 49 47 40 43 41 43 44 47 47
54 54 54 54 55 55 55 54 54 53 53 53 53 52 52 52 47 49 47 55 54 50 27 46 53 55 58 57 49 62 62 52 47 41 42 41 47 45 45 42 42 38 49 49 48 40 33
54 54 53 54 54 53 53 53 53 53 52 52 52 52 52 52 43 46 51 54 53 46 21 49 52 64 60 51 52 52 60 52 42 41 43 36 43 43 43 47 47 42 51 49 50 36 37
53 53 53 53 52 52 52 53 53 52 52 52 52 52 52 52 45 49 52 51 46 29 22 42 51 47 47 49 48 50 50 53 51 43 43 39 51 48 46 51 49 50 46 45 41 40 26
52 52 52 52 52 52 52 52 52 52 52 52 52 52 50 53 43 51 50 43 28 23 46 40 40 46 44 41 41 43 41 41 35 31 32 41 44 51 51 41 46 49 41 25 27 24 25
51 51 51 52 52 52 52 52 52 51 51 51 51 51 50 53 50 50 45 35 25 38 38 46 44 44 36 40 39 40 41 35 42 39 34 32 28 45 50 46 40 41 39 27 23 24 29
51 51 51 52 52 52 52 52 52 51 51 51 51 44 45 49 52 48 37 23 29 37 43 40 42 35 33 39 37 37 39 36 43 43 35 31 31 45 48 51 49 43 37 43 34 34 27
52 52 52 51 51 52 51 52 51 51 51 51 41 44 45 52 51 43 32 35 39 47 47 44 30 35 27 32 32 34 36 44 39 42 43 36 28 44 50 53 51 46 50 31 31 26 25
51 51 51 51 51 51 51 51 51 51 51 51 39 38 47 52 48 37 24 33 43 50 49 42 35 34 33 31 31 30 33 40 42 39 41 40 33 39 47 41 41 42 35 38 39 35 27
51 51 51 51 51 50 51 51 51 50 50 46 41 32 48 49 32 30 27 41 47 46 49 45 42 38 33 33 31 27 28 36 43 42 37 43 38 34 40 46 50 46 41 40 32 31 33
51 51 50 51 51 51 51 51 51 50 50 41 37 37 48 46 23 25 40 45 46 44 44 43 39 41 37 32 25 30 31 43 45 43 39 41 38 30 32 41 40 39 45 45 43 39 32
51 50 50 51 50 51 50 50 50 50 50 41 37 29 37 39 38 34 35 39 38 47 45 46 43 42 36 31 37 31 32 42 45 46 46 45 40 33 28 33 41 37 42 43 38 33 33
50 50 50 50 50 50 50 50 50 50 50 41 36 30 38 26 30 35 37 38 35 34 45 46 41 41 37 30 31 30 37 39 44 45 43 39 32 34 37 40 39 36 36 37 38 40 33
50 50 50 50 50 50 50 50 50 50 50 37 28 33 39 35 42 38 37 35 36 40 40 40 37 41 40 34 33 31 37 36 35 41 38 41 32 34 34 36 38 33 37 41 38 38 38
50 50 50 50 50 50 50 50 50 50 48 39 42 42 37 37 37 32 34 39 39 42 44 46 42 40 37 39 42 44 45 44 42 40 37 37 34 32 28 41 41 30 36 37 37 39 39
50 50 50 50 50 50 50 50 49 49 48 42 41 39 31 26 33 39 43 43 42 42 39 45 45 39 44 49 48 48 48 45 44 46 46 39 37 37 31 36 25 32 41 40 34 36 40
49 49 50 50 50 50 49 49 49 49 49 44 42 38 33 25 37 42 42 42 42 42 41 43 44 46 46 43 36 36 35 38 43 47 46 47 39 32 30 28 33 36 36 34 35 30 37
48 49 50 49 49 49 49 49 49 49 49 41 41 42 37 27 32 43 39 41 32 31 35 41 46 46 44 37 34 30 28 34 32 38 48 46 43 35 32 28 23 31 35 41 42 25 36
49 48 49 49 49 48 49 48 48 49 49 44 41 44 38 27 38 41 34 33 40 36 31 36 38 37 41 28 28 28 29 40 30 32 32 32 31 28 29 27 29 32 37 41 29 25 36
48 48 48 49 48 48 48 48 48 48 49 43 41 44 40 35 36 42 44 37 37 35 27 34 32 33 30 27 28 28 28 32 33 37 35 29 28 25 28 25 21 35 36 29 31 35 35
48 48 48 48 48 48 48 48 48 48 48 46 40 43 42 36 34 40 43 45 44 42 36 36 33 36 34 27 29 30 27 29 32 27 40 27 33 26 28 27 33 36 33 35 36 34 35

GFSGBSN_sfc_temp_111.txt.gz
Temp
62 62 61 61 60 60 60 59 58 57 56 56 55 56 56 56 56 56 56 55 55 56 56 56 57 57 50 46 48 61 65 64 63 61 57 55 51 48 43 46 48 47 51 55 57 56 56
61 61 61 61 60 60 60 59 58 57 56 56 55 55 55 55 55 55 55 55 55 55 55 56 57 57 46 42 59 62 60 61 61 57 55 55 52 54 48 47 46 51 51 51 54 54 55
61 60 60 60 60 59 59 58 58 57 56 56 55 55 55 55 55 55 55 55 55 55 55 56 56 53 44 46 58 55 58 57 58 58 54 58 56 50 49 45 52 50 44 48 50 49 50
61 60 60 60 59 58 58 58 57 57 56 56 55 55 54 54 54 54 54 54 54 55 56 56 57 48 41 58 54 56 57 58 60 60 58 60 59 52 48 50 48 44 43 36 48 48 51
60 60 60 59 58 58 58 57 57 57 56 55 55 54 54 54 54 53 54 54 54 56 57 57 47 44 41 61 55 60 59 56 57 59 57 65 56 48 46 39 35 39 32 35 40 50 48
61 60 60 59 58 58 57 57 56 56 56 55 54 54 54 53 53 53 53 53 54 57 55 56 54 41 49 51 57 58 58 59 53 53 51 49 44 38 37 33 27 31 31 33 33 42 45
61 60 59 59 58 57 57 57 56 55 55 55 54 54 53 53 53 53 51 50 48 48 47 43 43 44 47 53 57 54 58 55 51 46 37 42 33 29 35 37 39 37 35 33 38 41 41
60 59 59 59 58 57 57 57 56 55 55 54 54 53 53 53 53 53 48 47 48 47 37 47 46 46 51 51 45 51 55 46 44 37 40 36 32 41 44 42 39 37 33 34 39 44 40
59 59 59 58 57 57 57 57 55 54 54 54 53 53 53 53 53 49 48 50 53 52 35 43 50 50 53 51 47 48 52 47 42 39 38 33 39 46 42 39 37 36 33 33 33 41 44
59 57 58 57 57 56 56 55 54 53 54 53 53 52 52 52 47 44 45 53 52 50 30 43 48 51 54 52 44 58 54 47 42 37 39 36 43 41 39 37 39 30 41 39 36 32 24
58 58 57 56 55 55 55 54 53 53 53 53 52 52 52 52 42 43 48 51 50 46 25 46 48 59 54 46 48 48 54 47 38 39 40 36 38 37 35 38 42 36 43 40 39 35 30
59 57 56 55 55 54 53 53 52 52 52 53 52 52 52 47 42 46 48 47 47 31 26 39 46 44 43 45 45 47 47 50 48 39 39 38 43 40 39 44 43 46 40 39 37 32 22
57 56 55 54 54 53 53 52 51 51 51 52 52 52 49 49 43 47 48 44 31 26 42 37 37 42 39 37 39 41 38 39 35 31 31 37 37 40 45 37 42 39 33 22 22 15 21
57 55 55 54 52 52 52 51 51 51 52 52 51 50 49 49 47 46 45 36 27 35 35 42 41 39 31 36 37 37 35 32 41 37 32 27 29 41 46 41 37 35 34 26 17 22 28
56 55 53 52 52 52 51 51 50 51 51 51 50 41 43 46 47 46 39 26 31 34 40 38 38 31 29 35 33 33 33 34 39 40 30 30 28 43 46 47 42 37 31 41 30 33 27
55 53 52 51 51 51 51 51 50 51 51 51 41 42 42 48 48 43 33 34 36 43 43 40 29 32 22 29 29 32 32 40 39 43 45 36 28 40 44 46 43 40 43 32 31 22 14
53 52 51 51 50 50 50 50 50 50 51 50 42 38 45 48 48 37 26 32 40 45 45 38 31 29 30 24 28 26 31 37 44 42 42 40 32 35 43 38 33 36 34 36 37 31 20
51 51 50 50 49 49 50 50 50 51 50 46 40 32 45 47 33 27 28 37 45 42 44 41 39 34 28 25 30 25 27 35 45 44 34 42 35 29 36 44 44 40 39 39 28 28 31
50 49 49 49 49 49 50 50 50 50 50 41 37 37 45 45 27 26 36 40 42 39 39 39 36 36 32 24 24 26 26 39 42 41 38 40 35 27 32 37 40 36 39 42 38 36 29
48 48 48 49 49 50 50 50 50 50 50 42 37 30 37 38 34 34 33 35 35 42 39 40 38 37 31 27 31 25 26 37 42 41 45 42 36 31 26 30 35 32 36 40 36 30 28
48 48 48 49 49 50 49 49 50 50 50 42 36 32 38 28 30 33 34 35 32 32 39 39 35 35 32 23 28 27 31 34 39 42 42 39 30 33 33 34 34 32 33 37 34 33 28
48 48 48 48 49 49 50 49 50 50 49 40 33 34 35 34 37 35 34 32 33 36 36 34 33 36 33 30 31 30 33 32 31 37 37 40 30 32 30 32 32 28 31 31 33 32 31
48 48 48 49 49 50 49 49 49 49 47 38 38 39 37 33 33 31 30 35 36 38 39 39 36 33 33 35 37 39 40 40 39 35 33 34 32 31 27 36 33 26 28 29 31 32 33
48 48 49 49 50 50 49 49 49 49 46 40 38 37 33 27 32 34 37 38 36 37 35 38 38 33 39 43 40 40 38 38 38 38 41 34 33 33 29 31 20 28 33 34 31 31 33
49 49 49 50 50 49 49 49 49 49 48 40 38 37 32 25 32 36 37 36 36 37 35 36 38 41 40 36 32 32 32 34 39 42 41 41 35 31 28 26 28 30 30 29 30 27 32
49 49 49 49 49 48 48 49 49 49 48 40 38 38 34 30 29 38 33 35 29 28 31 35 40 40 38 32 30 24 24 30 30 35 42 40 37 31 30 24 20 26 32 37 37 24 32
49 49 49 49 48 48 48 48 49 49 48 41 37 38 35 28 33 35 31 32 34 30 28 31 33 34 35 25 24 23 23 34 27 28 29 30 30 26 27 25 26 30 33 37 26 24 33
49 48 48 48 48 48 48 48 48 48 48 42 37 38 35 29 32 37 39 34 33 30 25 31 28 29 27 23 25 24 24 30 30 33 31 28 26 24 27 22 18 31 34 28 31 34 33
48 48 48 48 48 48 48 48 48 48 48 44 35 38 38 32 33 36 38 41 40 39 32 31 31 32 31 25 25 26 26 29 30 26 37 26 29 26 26 24 31 34 32 34 35 32 34

GFSGBSN_sfc_temp_114.txt.gz
Temp
63 62 62 62 61 60 61 60 59 58 57 57 56 56 56 56 56 56 55 55 55 56 56 56 57 57 50 47 49 58 63 62 61 60 55 52 48 45 41 44 46 45 47 51 50 50 50
62 62 62 61 61 61 60 60 59 58 57 56 56 56 56 55 55 55 55 55 55 55 55 56 56 56 45 43 57 58 57 58 58 55 53 52 50 51 46 44 43 46 47 48 47 47 48
62 62 61 60 60 60 60 59 58 58 57 56 56 55 55 55 55 54 54 54 54 55 55 56 56 52 43 48 54 54 56 53 55 55 51 55 55 49 46 43 49 47 40 47 48 45 46
62 62 61 60 59 59 59 59 58 58 57 56 56 55 55 54 54 54 54 54 54 55 56 56 56 46 42 57 53 56 52 55 57 57 54 58 54 49 46 48 44 40 39 34 44 44 48
61 61 61 60 59 59 58 58 58 57 57 56 56 55 54 54 53 53 54 54 54 57 56 56 46 41 43 60 54 56 54 54 56 56 54 62 53 45 44 36 34 34 30 33 38 46 44
61 61 60 60 59 59 58 58 57 57 56 56 55 55 54 53 53 53 53 53 54 54 54 54 53 40 49 50 55 56 54 56 52 50 49 47 42 37 34 31 25 29 29 30 31 42 43
62 62 61 60 59 59 58 58 57 56 56 56 55 54 54 53 53 53 48 46 44 42 44 42 42 44 47 52 53 51 55 52 49 44 35 40 32 29 33 35 38 36 33 29 36 43 39
59 61 60 60 59 59 59 58 56 55 55 55 55 54 53 53 53 53 44 42 43 44 36 45 44 44 48 49 44 50 53 45 42 36 37 34 29 40 42 40 36 34 31 30 37 43 40
57 58 60 60 59 59 58 57 56 55 55 54 54 53 53 53 53 48 45 45 49 49 34 42 47 47 50 49 45 46 49 46 39 35 36 31 37 44 40 37 35 34 31 32 32 38 40
56 57 58 60 59 58 58 57 55 54 54 53 52 53 52 52 47 43 42 47 48 47 31 40 44 49 52 50 44 54 53 45 40 35 37 34 41 39 37 34 36 27 39 37 35 32 23
56 56 57 59 58 57 56 55 55 54 53 52 51 52 52 52 41 42 47 47 47 44 23 43 45 56 52 45 46 47 51 45 37 38 36 34 36 35 34 35 39 34 41 37 36 32 30
55 56 56 57 57 56 55 54 54 53 52 52 52 52 52 47 41 48 47 48 45 31 24 37 45 43 42 44 43 45 45 47 46 38 37 36 42 39 37 41 41 43 37 36 35 29 21
54 55 56 57 58 56 55 54 53 53 52 52 52 52 50 49 44 45 45 44 31 24 40 34 36 40 38 37 38 39 36 35 34 29 30 36 36 38 42 35 39 37 31 21 20 21 21
54 54 56 56 57 55 54 53 52 51 51 51 51 51 50 49 47 47 43 36 26 34 33 40 39 37 31 35 35 35 33 30 38 35 31 28 25 36 42 38 37 33 33 26 18 20 26
53 54 55 56 55 54 53 52 51 51 50 51 50 42 43 46 46 45 38 24 31 33 39 37 37 30 29 34 32 32 31 31 36 39 29 27 26 40 44 45 41 34 29 39 28 30 25
54 54 56 56 54 53 52 51 51 50 50 50 42 40 43 47 47 42 31 33 35 42 42 39 29 31 23 28 28 28 30 37 36 41 42 33 28 38 42 42 42 39 42 29 29 22 20
54 55 56 56 54 52 52 51 50 50 51 50 42 36 44 47 46 37 26 32 38 44 45 38 31 29 30 23 26 24 29 36 40 40 41 38 32 34 39 36 33 34 32 35 34 30 23
55 55 55 53 52 51 51 50 50 50 50 47 39 32 44 45 31 28 29 36 44 41 43 40 38 34 29 25 25 20 24 33 41 40 33 38 34 27 33 44 43 39 36 37 29 27 30
54 54 53 52 51 50 50 49 49 49 49 41 35 36 44 43 25 28 36 40 41 39 39 38 36 35 31 23 18 24 25 37 39 38 34 37 33 26 29 35 39 35 38 40 38 35 27
53 52 51 51 50 49 49 48 48 49 51 44 37 30 34 36 35 35 34 35 35 42 39 40 37 35 30 27 30 23 24 36 39 40 44 42 35 31 24 28 31 29 35 38 36 28 26
51 50 50 49 49 49 48 48 49 50 50 43 36 32 37 29 31 34 36 35 33 33 39 39 34 34 32 22 27 26 29 33 38 42 40 38 31 32 32 32 32 29 31 33 30 31 25
48 48 48 48 48 48 48 49 50 50 49 40 33 34 36 35 36 35 36 33 33 35 36 34 33 34 33 29 31 28 31 30 30 36 35 38 30 32 31 34 33 27 29 31 31 31 28
46 46 47 47 47 46 48 49 49 49 48 38 37 40 38 35 34 33 31 33 35 37 37 39 36 33 32 34 35 36 37 37 37 33 31 33 33 30 27 34 32 25 26 27 29 31 31
46 46 45 46 46 47 48 48 49 49 47 40 38 38 34 29 34 34 36 37 36 37 34 37 36 33 37 39 38 37 34 35 35 36 37 32 33 33 29 30 20 27 35 34 30 29 32
47 47 47 48 47 47 48 49 49 48 47 40 38 38 35 28 35 36 36 35 35 36 35 35 37 39 38 34 31 31 31 32 34 40 37 38 33 30 27 25 27 30 29 28 28 26 30
47 47 47 48 48 48 48 49 49 48 48 40 37 38 37 33 32 38 33 35 30 30 31 34 37 38 36 31 29 24 23 29 28 32 41 37 36 30 28 24 18 25 31 36 35 24 31
48 48 48 48 48 48 48 49 49 49 48 41 37 38 38 31 34 35 32 32 33 30 27 30 32 32 33 24 23 23 22 31 24 27 28 29 30 26 26 24 25 29 32 36 25 22 31
48 48 48 48 48 48 48 48 48 48 47 42 37 38 38 31 32 37 39 33 32 30 25 30 27 28 26 22 25 24 24 27 25 31 30 26 25 24 27 23 20 32 33 28 30 32 32
48 47 47 47 47 47 48 48 48 48 48 45 36 38 38 34 34 36 38 39 40 38 31 30 30 31 30 24 25 25 24 26 29 26 34 26 29 26 26 24 31 33 31 33 33 33 32

GFSGBSN_sfc_temp_117.txt.gz
Temp
63 63 62 62 62 61 61 60 60 59 58 58 57 57 57 57 56 56 56 55 56 56 56 56 57 57 56 55 55 62 63 63 66 65 60 58 55 53 48 50 52 50 53 54 55 55 57
62 62 62 62 61 61 61 60 59 58 58 57 57 56 56 56 56 56 55 55 55 55 56 56 56 56 54 51 63 62 60 63 62 63 60 60 57 57 51 49 49 52 53 52 53 54 55
62 62 62 61 61 61 61 60 59 58 58 57 57 56 55 55 55 55 55 55 55 55 56 56 56 54 50 55 62 61 59 62 62 62 58 61 60 57 54 49 55 51 46 51 53 54 52
62 62 62 60 60 60 59 59 59 59 58 57 57 56 55 55 54 54 54 54 54 56 57 56 56 52 50 61 60 61 62 63 63 62 60 62 60 56 52 54 51 47 47 40 50 53 54
61 61 62 60 60 59 59 59 59 59 58 57 57 56 55 54 54 54 54 54 55 57 57 56 51 50 51 63 61 62 62 59 60 60 60 63 59 52 51 45 41 41 37 39 43 52 50
60 60 60 61 60 59 59 59 58 58 57 57 56 55 55 54 53 53 53 54 56 55 55 56 54 48 57 54 58 59 61 59 55 55 55 53 49 46 44 42 33 36 36 39 38 47 47
59 59 59 59 60 60 59 59 58 57 56 56 55 55 54 54 54 53 51 51 50 48 49 49 48 48 51 56 57 57 59 57 55 51 44 46 42 39 43 42 43 41 37 36 41 46 42
58 58 58 59 59 60 60 59 58 57 56 55 55 55 54 54 53 53 50 48 49 51 44 48 47 47 50 53 50 55 59 51 48 41 43 41 37 46 45 43 40 39 35 35 41 46 44
57 57 57 57 58 59 60 59 58 56 55 55 54 54 54 53 53 51 48 49 52 52 42 46 49 49 53 53 49 51 56 50 44 39 41 37 43 45 42 41 37 38 35 36 36 42 44
56 56 56 57 57 58 59 58 57 56 55 54 53 53 53 52 51 48 48 54 52 52 39 43 46 52 53 53 46 58 57 51 45 39 41 39 44 42 40 38 40 32 42 40 38 35 30
56 55 55 56 56 56 57 58 58 56 55 53 53 53 52 53 47 47 53 51 50 47 30 45 47 60 54 48 48 50 56 50 41 41 40 41 40 39 38 40 42 40 43 41 40 36 34
55 55 55 56 55 55 56 57 56 55 54 53 52 52 52 48 46 51 52 51 49 38 28 39 46 44 44 46 46 49 48 51 50 41 41 41 47 44 42 44 44 46 41 41 40 35 25
55 55 55 55 56 56 56 57 56 54 53 52 51 52 50 50 45 50 50 47 38 30 43 37 38 42 40 38 40 41 39 38 36 33 33 39 41 44 45 40 44 41 38 29 28 27 26
54 54 54 54 55 55 55 56 54 53 52 51 51 51 50 50 49 48 48 40 30 37 36 43 40 39 35 37 38 38 36 35 40 37 33 29 31 41 45 42 40 40 39 30 20 25 28
54 54 54 54 54 54 55 56 54 52 51 50 50 43 43 46 48 49 42 32 35 37 41 38 38 33 33 36 35 35 35 35 39 40 30 28 29 44 46 47 46 39 34 43 30 33 27
54 53 53 53 53 53 54 55 53 51 51 50 41 40 41 47 48 46 37 35 37 43 43 41 33 34 28 32 32 33 33 40 39 43 44 35 27 41 44 48 46 43 45 31 32 24 23
52 52 52 53 53 52 54 55 52 51 50 50 39 34 42 48 48 39 31 35 40 46 46 39 33 32 33 29 30 30 33 39 42 42 43 39 30 36 42 41 40 41 37 35 35 34 27
51 51 51 52 51 52 54 55 51 50 49 46 37 31 42 47 35 35 32 39 44 42 45 42 39 36 32 29 31 26 30 35 44 42 35 40 34 28 36 46 47 44 40 37 29 29 33
49 49 50 52 52 53 54 52 50 49 50 41 34 34 44 45 29 30 38 40 42 41 41 40 37 37 33 28 25 28 30 40 41 40 38 38 33 29 35 39 42 37 40 39 37 35 30
50 52 53 54 53 53 53 50 50 50 51 46 37 31 35 37 37 37 36 37 36 43 41 41 38 37 34 31 33 29 30 38 41 41 44 43 35 30 26 28 32 29 32 35 35 29 25
53 53 52 52 53 53 51 50 49 51 52 43 37 33 39 29 32 36 38 36 35 34 41 42 37 37 35 28 31 29 32 36 40 42 42 38 30 32 33 32 33 30 28 31 30 32 27
53 53 53 53 52 51 50 49 50 50 49 39 33 35 38 38 38 37 37 35 36 36 38 36 36 36 37 33 34 31 35 35 34 39 37 39 30 32 31 34 33 28 29 31 31 30 28
50 50 50 50 50 49 49 49 50 50 48 38 38 41 40 37 35 35 33 36 37 39 39 41 39 37 35 37 39 40 41 41 41 37 34 32 31 31 29 33 33 26 27 28 30 31 32
47 49 49 49 49 49 49 49 49 49 46 42 41 40 35 30 37 37 37 39 37 39 36 39 39 38 40 42 41 40 37 37 37 37 40 32 32 33 31 30 21 28 33 33 30 30 32
46 45 47 48 48 47 47 47 48 48 48 41 39 40 36 32 37 36 37 37 38 39 37 37 40 41 41 39 36 34 34 35 35 38 37 37 33 30 28 27 28 29 30 30 29 27 31
46 46 46 46 45 47 48 48 48 48 48 41 38 40 40 35 34 41 37 39 33 33 35 36 40 41 40 37 34 28 25 31 30 33 40 38 37 32 30 25 22 26 31 35 36 26 32
45 45 45 45 46 46 48 48 48 48 48 42 38 39 41 32 36 39 35 35 36 35 32 35 35 37 38 32 30 28 28 33 27 28 29 32 32 27 27 26 26 30 33 36 25 25 32
45 45 45 47 48 48 48 48 48 48 48 43 38 39 41 34 36 40 41 36 35 36 32 34 33 33 32 28 30 28 29 31 29 32 31 28 26 26 27 24 21 32 33 30 30 33 33
46 47 47 47 48 48 48 48 48 48 48 46 37 39 40 37 36 39 40 41 43 41 35 34 34 34 35 30 31 31 29 31 30 27 36 28 31 27 26 25 31 33 31 33 36 34 33

GFSGBSN_sfc_temp_120.txt.gz
Temp
63 63 62 61 62 61 62 61 60 59 59 58 58 58 57 57 57 56 56 56 56 56 56 57 57 58 66 68 64 73 65 70 75 74 69 66 63 62 58 60 62 60 62 64 64 64 64
62 62 62 61 62 62 62 61 60 59 58 58 57 57 57 56 56 56 56 55 55 56 56 57 57 56 65 61 72 73 72 73 73 72 69 68 64 64 60 59 58 62 61 61 64 63 64
62 62 61 61 61 61 61 60 60 59 58 58 57 57 56 56 56 56 55 55 55 55 56 57 57 63 63 62 73 75 71 72 72 70 65 68 68 63 63 59 62 61 55 62 64 63 60
61 61 61 61 60 60 60 60 59 59 58 58 57 57 56 55 55 55 55 55 55 55 57 57 57 63 62 71 75 71 74 72 72 72 68 69 68 64 60 63 60 56 57 52 61 62 62
60 60 60 60 60 59 59 59 59 59 59 58 57 56 55 55 54 54 54 54 55 57 57 57 61 61 60 69 67 71 71 66 68 68 68 68 66 61 60 55 54 54 49 52 55 62 58
60 59 59 59 59 59 59 59 58 58 58 57 56 56 55 55 54 54 53 54 56 57 60 64 64 57 64 62 66 66 71 67 62 63 62 61 62 56 57 55 47 48 48 52 52 59 58
59 59 59 59 59 59 60 59 58 57 57 56 56 55 55 54 54 54 57 63 60 58 59 60 60 59 61 66 66 65 68 64 63 59 55 56 53 53 53 53 52 50 48 48 54 59 52
58 58 58 58 58 59 59 59 58 57 57 56 55 55 54 54 54 53 58 60 62 60 57 58 57 57 60 62 58 62 67 58 55 52 52 52 50 55 53 52 49 49 46 47 53 55 53
57 57 57 58 58 58 58 59 58 57 57 56 55 55 54 53 53 52 59 57 63 61 56 55 57 58 60 61 56 58 62 58 53 50 50 48 53 52 50 50 47 49 47 48 47 53 56
56 56 56 57 57 57 57 57 57 58 56 55 54 54 53 53 50 53 56 59 61 59 50 52 52 58 59 60 53 63 63 57 53 49 50 50 53 49 49 48 50 43 53 50 48 46 41
56 56 56 56 56 56 56 56 57 57 56 55 53 53 52 54 48 49 57 57 57 57 34 53 52 65 61 54 55 56 62 56 50 50 48 50 49 48 47 49 50 47 53 49 48 45 45
55 55 55 56 55 55 55 55 55 56 55 54 53 52 52 48 51 52 55 55 57 43 34 45 53 51 51 52 52 55 55 58 56 48 51 51 57 51 52 52 52 53 49 50 50 46 36
54 55 55 55 55 55 56 56 56 55 55 53 53 52 51 51 49 50 55 51 40 37 50 43 45 49 50 47 48 48 47 47 47 42 44 50 50 53 52 49 53 49 46 39 36 35 39
54 54 54 55 55 55 55 55 55 55 55 53 52 51 50 49 49 50 51 40 33 47 47 49 48 48 44 45 45 44 45 44 47 46 44 40 40 50 52 49 46 48 45 37 24 31 37
54 54 54 54 54 55 55 55 54 55 54 52 50 45 44 46 48 51 41 33 41 49 51 46 46 42 41 43 44 43 44 45 47 48 35 37 35 52 52 54 52 46 42 49 35 39 31
54 54 54 54 54 54 54 54 54 55 53 50 44 41 41 46 50 46 37 36 46 52 52 50 43 44 37 41 40 41 42 48 45 48 50 42 29 48 50 53 55 50 51 37 36 26 27
53 53 53 53 53 53 54 54 54 54 51 51 41 35 41 47 48 38 31 39 48 52 52 46 41 38 40 35 40 39 42 46 48 48 48 46 34 43 49 47 46 46 42 42 39 39 30
52 52 52 52 53 53 53 53 53 54 50 47 39 32 41 46 33 35 36 45 47 49 51 46 46 42 39 35 38 34 38 44 51 48 41 44 39 36 43 52 52 51 44 39 32 34 37
52 52 52 52 52 52 52 53 52 53 50 43 36 33 41 43 29 32 40 44 45 44 46 45 41 43 41 34 31 35 37 46 48 46 44 45 39 35 42 46 49 41 42 41 38 35 31
51 51 50 50 51 52 52 52 52 52 52 50 36 28 34 35 42 37 38 39 39 45 44 45 42 43 40 37 41 34 35 44 47 47 45 45 41 34 32 32 36 32 35 39 35 32 30
49 49 49 49 50 51 52 52 52 52 53 49 38 35 41 30 32 39 43 42 39 35 43 46 40 43 42 33 37 36 40 43 46 45 46 45 32 37 37 35 37 34 31 34 32 33 31
48 47 49 52 53 53 53 52 52 51 54 47 34 37 45 44 39 38 41 39 40 42 44 41 40 44 45 39 40 37 42 42 41 45 44 44 34 34 32 37 36 31 31 35 35 33 30
47 49 52 52 52 53 52 52 52 51 55 46 42 50 45 39 37 38 40 44 44 44 41 47 46 43 41 44 48 49 50 47 47 43 41 38 34 32 33 36 37 31 28 30 32 36 35
47 51 52 51 52 52 51 51 50 53 56 49 47 48 40 32 39 41 44 46 44 45 40 44 47 44 46 50 50 48 46 46 46 45 47 37 34 34 35 34 26 30 38 39 35 35 37
47 51 51 51 51 50 50 50 52 53 51 49 47 46 43 34 41 40 41 42 44 45 42 43 45 47 50 47 42 39 39 39 41 44 44 44 35 34 31 33 29 31 33 34 33 30 35
46 49 50 49 49 49 49 49 48 48 48 43 41 51 48 38 37 45 42 43 39 40 40 40 44 48 47 46 41 34 33 39 35 36 44 42 41 35 35 29 26 31 35 37 37 28 36
46 47 48 49 48 48 48 48 48 47 48 47 41 47 49 35 42 46 42 42 47 45 41 41 41 42 46 41 36 36 35 41 34 34 32 35 35 32 32 31 30 34 34 36 27 27 38
46 46 46 47 47 47 47 47 48 48 49 49 41 46 49 42 40 46 47 42 44 47 39 41 40 39 40 37 39 38 37 39 36 39 37 36 33 32 33 30 25 36 34 30 33 38 39
44 46 46 46 46 47 47 47 48 49 49 50 44 46 52 48 43 48 46 48 52 51 45 43 42 43 45 41 43 42 37 39 39 30 42 32 37 34 32 30 34 34 33 37 41 37 38

GFSGBSN_sfc_temp_123.txt.gz
Temp
63 63 62 62 62 62 61 61 61 60 59 59 59 59 59 58 58 57 57 57 57 57 57 57 58 58 69 72 74 78 68 70 80 79 74 72 70 69 66 69 70 66 69 71 71 71 70
62 62 62 62 61 61 62 61 61 59 59 59 58 58 58 58 58 57 57 56 56 56 57 57 58 57 71 65 80 80 78 79 79 78 75 74 70 71 66 66 65 69 67 68 70 70 72
61 61 62 61 61 61 61 60 60 59 59 58 58 58 57 57 57 57 56 56 56 56 56 58 58 70 68 69 81 82 78 78 78 76 71 75 74 68 70 65 70 67 61 68 71 70 67
60 60 60 60 60 60 60 60 59 59 59 58 58 57 57 57 56 56 56 55 55 56 57 58 58 71 66 78 83 77 80 78 78 78 74 75 74 69 67 70 66 63 65 59 70 70 69
60 60 60 60 59 59 59 59 59 59 59 58 58 57 56 56 55 55 55 55 56 58 57 58 65 68 66 69 72 77 77 72 74 75 74 74 71 67 68 61 61 64 57 60 63 71 67
60 60 60 59 59 59 59 59 59 58 58 57 57 56 55 55 55 55 54 55 57 56 62 72 72 62 68 67 73 73 77 73 69 69 67 66 66 62 65 62 53 55 56 58 57 66 66
59 59 59 59 59 59 59 59 59 58 57 57 56 56 54 54 55 54 57 67 65 62 66 66 67 67 69 73 74 71 74 71 69 66 60 64 58 58 63 61 59 57 55 55 61 66 59
58 58 58 58 59 59 59 59 58 57 57 57 56 55 54 53 54 54 59 64 64 59 54 71 69 67 69 71 64 68 73 63 62 58 62 58 55 63 60 59 56 56 53 55 61 63 60
57 57 57 58 58 58 58 58 58 58 57 56 55 55 54 54 54 55 61 61 62 62 56 62 67 65 66 68 64 66 68 65 60 58 59 55 61 60 57 57 55 56 54 54 54 59 61
56 56 56 57 57 57 58 57 57 57 57 56 55 54 53 53 52 56 57 64 62 61 48 58 57 63 65 66 59 71 70 64 60 56 59 58 63 57 56 55 57 49 60 56 54 51 45
56 56 56 56 56 56 56 56 56 56 56 56 55 54 53 56 54 55 57 59 58 56 29 60 59 72 67 60 62 61 69 62 56 58 55 56 56 55 53 56 57 52 58 54 54 51 50
56 56 56 56 56 56 55 55 55 55 55 56 54 54 52 50 51 59 59 54 50 33 27 51 58 55 55 59 59 62 60 63 63 56 58 57 65 58 57 58 58 59 54 56 57 54 41
55 55 55 55 55 55 55 55 55 56 55 55 54 52 50 52 51 58 55 50 31 29 55 50 50 56 55 53 55 56 54 52 52 47 48 57 56 60 59 54 61 56 52 41 40 38 39
54 54 54 54 55 55 55 55 55 55 55 55 52 51 51 52 52 54 48 38 26 46 51 57 55 54 50 54 53 53 52 51 54 53 50 48 44 55 59 55 52 52 52 41 29 34 39
54 54 54 54 54 55 55 55 55 55 55 54 52 47 46 48 51 49 40 29 38 50 58 53 52 48 48 52 50 50 52 52 56 54 44 45 43 59 57 59 57 51 47 54 40 45 37
54 54 54 54 54 54 54 54 54 55 55 52 45 43 43 48 50 45 35 33 38 54 55 55 42 50 44 48 45 48 50 55 52 54 55 48 35 54 56 58 59 54 58 41 40 28 30
52 53 53 53 53 53 54 54 54 55 54 52 44 38 43 49 46 36 31 39 47 55 58 51 47 47 48 46 47 47 49 53 55 53 54 52 37 48 54 52 52 52 47 45 45 42 31
52 52 52 52 53 53 53 54 54 54 52 49 42 34 45 47 33 35 37 41 49 51 57 52 54 50 47 43 43 38 43 49 57 54 46 52 43 39 48 57 57 54 48 47 33 36 34
51 51 52 52 52 53 53 53 54 53 52 45 38 34 44 44 33 34 42 43 48 46 50 51 48 48 45 36 33 38 40 53 54 51 48 48 42 38 44 49 53 47 48 46 42 39 32
51 51 52 52 52 52 52 53 53 53 52 52 36 30 33 34 42 45 39 42 42 53 52 50 48 45 41 40 45 36 40 49 52 51 47 47 44 39 38 40 43 36 41 42 39 30 34
51 51 51 52 52 52 52 52 53 52 52 50 39 38 45 29 32 40 45 44 39 39 50 48 41 43 42 36 39 38 43 48 50 49 48 48 35 38 42 43 42 37 32 37 35 38 32
50 50 51 51 51 51 52 52 52 53 52 44 36 47 50 50 43 41 42 42 40 43 45 41 41 42 42 38 40 38 45 45 45 50 48 48 34 35 33 42 41 32 33 38 37 35 33
50 50 50 50 50 50 50 51 51 52 50 43 50 59 52 46 42 37 43 45 45 48 47 48 45 42 41 46 53 54 55 54 52 48 46 42 38 34 35 43 40 32 31 34 37 41 40
49 49 49 49 50 50 50 51 51 51 51 51 54 57 47 41 45 42 47 47 47 47 42 46 50 45 51 56 54 52 50 50 50 50 52 39 37 39 37 38 26 32 45 45 41 41 43
48 48 49 49 49 51 52 52 52 50 51 55 54 52 51 43 47 45 45 46 47 47 44 48 52 55 55 51 44 40 40 42 45 49 49 50 39 35 34 36 31 33 39 40 39 35 41
47 48 50 50 51 51 51 52 52 51 52 55 55 58 55 47 45 51 46 46 41 43 46 45 49 55 53 48 43 36 34 40 38 41 48 47 44 36 37 31 28 33 40 44 44 32 41
46 48 48 49 50 50 50 51 51 50 53 53 48 57 57 44 53 50 43 44 49 46 42 42 42 44 50 43 38 38 39 48 38 35 33 36 37 33 35 34 33 37 39 40 29 31 41
46 48 48 48 48 49 50 49 49 50 52 54 45 54 54 44 45 49 49 46 47 48 39 44 42 44 43 39 41 42 41 43 41 45 42 39 37 35 37 33 29 39 35 31 37 41 42
45 47 47 48 48 48 48 49 50 51 52 57 46 50 53 44 40 50 50 54 56 57 51 49 48 46 47 44 46 48 40 43 43 33 47 36 44 38 36 32 36 35 36 40 41 39 40

GFSGBSN_sfc_temp_126.txt.gz
Temp
63 63 63 62 62 61 61 61 60 59 59 60 59 59 60 60 59 59 58 57 57 57 57 58 59 59 64 69 72 76 70 70 77 81 76 74 70 70 65 69 71 67 69 72 73 72 71
61 61 62 61 61 61 62 61 60 59 59 59 59 59 59 59 59 58 58 57 56 56 57 58 59 58 66 62 82 83 81 80 81 78 76 76 71 72 66 67 66 70 69 68 70 70 71
61 60 60 61 61 61 61 60 60 59 59 59 59 58 58 58 58 58 57 56 56 56 57 58 59 65 66 67 83 84 80 79 80 77 72 76 75 68 70 65 72 69 61 65 69 72 69
61 60 60 59 59 59 60 60 59 59 58 58 59 58 57 57 57 57 56 56 56 56 57 59 59 66 63 81 84 80 82 79 82 79 77 77 76 69 66 70 66 61 63 56 69 72 72
61 60 60 59 59 59 59 59 59 59 59 58 58 57 56 56 56 56 55 55 55 57 59 59 62 64 63 71 72 80 79 74 77 77 76 77 72 65 67 59 57 63 54 59 63 72 68
60 60 60 59 59 59 59 59 58 58 58 58 58 56 56 55 54 54 55 55 59 58 63 68 71 61 70 68 76 76 79 75 71 71 68 67 64 59 61 59 49 55 55 58 56 65 66
60 59 59 59 59 59 59 59 58 58 58 58 57 56 55 54 52 52 53 63 60 58 63 64 68 67 72 77 77 73 78 72 71 66 57 65 57 54 61 64 61 58 55 54 59 66 62
58 58 58 58 58 59 59 59 58 57 57 57 57 56 55 54 53 53 52 54 60 59 52 67 69 71 76 76 65 71 76 63 63 56 64 60 52 62 66 62 58 56 53 53 60 65 62
57 57 57 58 58 58 59 58 58 57 57 57 56 55 54 53 53 53 56 58 65 67 52 59 69 69 70 71 62 66 71 66 60 57 59 55 61 65 60 58 56 56 54 54 54 59 61
57 56 56 57 57 57 57 58 57 57 57 56 55 54 53 52 50 59 57 67 66 64 44 55 62 65 70 68 60 73 74 66 61 56 59 59 65 62 59 56 58 50 61 58 54 51 43
56 56 56 56 56 56 56 56 57 56 56 56 55 53 52 54 56 57 61 64 63 59 31 62 60 74 69 60 63 64 73 65 54 58 57 54 58 56 53 56 61 54 59 55 54 50 49
56 56 56 56 55 55 55 56 56 56 56 55 55 53 53 51 52 55 58 58 55 40 30 51 61 57 57 59 61 64 61 65 65 57 59 57 65 61 58 61 60 60 55 54 55 52 40
55 55 55 55 55 55 55 55 55 55 56 56 55 53 53 54 45 54 54 47 34 30 56 51 53 56 55 54 56 58 54 52 49 44 47 55 56 62 63 54 59 57 50 38 37 38 38
55 55 55 55 55 55 55 55 55 55 55 56 53 52 52 51 54 52 48 38 28 45 50 59 58 57 49 54 55 56 52 50 57 55 49 46 44 58 61 55 53 54 51 39 29 31 37
54 54 54 54 54 54 54 55 54 54 55 53 51 47 46 49 52 50 42 32 37 48 57 54 54 50 50 54 53 53 51 51 57 58 45 43 46 61 61 60 57 51 46 54 41 43 35
54 54 54 54 54 54 54 54 54 54 55 51 46 44 43 50 52 47 36 35 42 53 55 54 45 52 45 50 47 49 49 58 55 58 57 49 36 54 58 60 59 54 58 42 42 28 29
53 53 53 53 53 53 53 54 54 54 54 52 44 39 44 51 49 39 31 40 48 56 55 49 45 44 47 42 48 44 48 56 58 55 55 52 39 47 55 50 49 50 47 47 45 41 31
52 52 52 52 52 53 53 54 54 54 53 50 43 35 45 49 33 35 36 45 48 52 56 54 53 51 45 43 43 35 40 46 59 56 46 51 45 36 45 58 59 55 50 47 35 35 36
52 52 52 52 52 52 53 53 53 54 52 46 39 35 45 47 30 34 44 45 48 48 51 51 49 51 47 38 34 42 45 55 56 52 46 49 40 34 42 50 52 49 50 47 44 40 31
52 52 51 51 52 52 52 52 53 53 53 50 37 31 34 37 40 41 41 41 42 50 51 54 51 52 43 38 44 38 42 49 52 49 48 47 42 37 31 35 43 40 42 44 41 31 33
51 50 51 51 51 52 52 52 52 53 52 47 40 36 43 29 31 35 41 43 40 40 50 52 48 49 43 37 41 40 44 45 49 49 47 46 34 40 41 43 44 41 36 39 37 37 32
50 50 51 50 51 51 52 52 52 52 53 44 34 43 48 45 43 35 38 40 42 45 48 46 45 47 48 42 42 39 43 43 43 48 44 47 35 33 33 41 43 37 33 35 39 37 34
50 50 50 50 50 51 51 51 51 52 52 42 45 53 52 46 44 37 36 43 45 49 48 53 50 47 44 46 50 51 52 51 51 47 43 43 39 34 32 44 41 32 33 34 39 43 40
49 49 50 50 50 51 51 51 51 52 52 48 47 53 45 38 45 41 44 46 47 49 44 51 52 46 49 56 54 52 51 51 50 49 51 43 39 36 34 37 26 33 45 45 43 43 43
49 49 49 49 49 50 51 50 51 51 52 48 49 50 49 38 47 48 45 47 49 51 47 48 50 51 54 49 41 38 39 40 43 47 48 49 40 32 31 34 32 36 42 42 40 38 44
49 48 49 49 49 49 49 50 50 51 52 49 48 54 52 43 44 53 47 49 45 45 39 44 50 54 51 45 41 33 31 37 37 42 50 49 45 36 35 30 28 34 44 47 47 31 44
47 48 48 48 48 49 49 49 50 51 51 49 48 52 50 41 52 54 47 47 51 46 42 45 44 45 50 41 35 35 36 47 37 35 34 36 35 31 32 31 33 39 41 44 29 30 44
47 47 47 48 49 50 50 50 50 50 50 49 46 53 51 45 51 56 57 51 49 48 38 42 41 43 41 37 38 40 39 43 42 45 40 36 34 32 35 31 27 40 37 31 37 43 43
45 45 47 48 49 49 49 50 51 50 50 50 44 52 55 50 42 55 57 61 58 56 48 45 44 43 45 41 44 45 40 43 43 34 48 35 41 34 32 30 36 36 37 42 44 39 39